ECMWFFLT1_sfc_thetae_000.txt.gz
Theta_e
330 332 334 336 337 338 339 340 341 342 343 344 346 347 349 349 350 351 351 351 350 350 350 349 349 350 351 351 349 345 344 343 342 340 339 336 336 333 332 334 335 336 336 335 334 335 338 340 340 340 338 339 337 336 336 339 340 341 340 340 340 340 339
329 331 333 336 337 338 340 341 342 343 344 345 346 347 349 349 350 351 351 351 351 350 350 349 349 349 350 350 349 344 340 338 340 341 338 337 338 335 334 335 335 335 335 335 334 335 338 339 339 338 337 339 338 337 337 338 339 338 339 339 338 338 339
328 332 333 336 337 338 340 341 342 344 344 346 347 347 348 349 351 351 351 351 350 351 351 350 350 349 348 349 347 342 339 336 337 337 334 334 335 335 335 336 335 335 334 334 334 334 338 338 338 337 336 336 338 337 337 337 337 338 338 337 337 338 337
328 331 334 337 339 340 341 342 343 344 346 346 347 348 348 350 351 352 352 351 350 350 349 350 350 349 348 346 344 341 337 335 336 335 333 333 334 335 335 334 335 335 333 332 333 335 338 337 336 335 341 335 336 337 336 337 336 336 337 336 336 336 336
327 331 334 336 338 340 341 342 344 345 345 347 348 349 349 350 351 352 352 352 351 350 351 350 350 350 349 346 343 340 337 334 334 334 333 332 335 335 334 333 333 333 333 332 334 337 337 335 335 335 337 336 335 335 336 336 336 336 336 336 336 336 336
326 329 332 336 338 340 342 343 345 346 346 347 348 348 349 350 350 351 352 352 351 351 351 350 349 349 348 345 342 338 336 335 335 334 332 333 333 333 333 333 332 332 331 332 335 335 335 335 334 334 334 335 335 335 335 335 335 336 336 335 334 335 335
325 329 331 335 338 340 342 344 345 347 348 349 349 350 350 349 349 350 351 351 351 350 349 349 349 348 347 342 339 338 335 334 333 333 333 333 333 333 333 333 335 332 333 333 333 335 334 334 334 334 334 334 336 335 335 334 334 334 334 334 334 335 335
325 328 331 334 337 340 342 344 346 347 349 349 349 349 349 350 350 350 350 351 351 350 349 349 349 347 346 342 339 337 336 334 333 334 333 332 332 332 332 332 334 333 333 332 333 334 333 333 334 335 334 334 334 335 334 333 333 333 334 334 334 334 335
325 327 330 333 336 339 342 344 345 347 348 348 348 349 349 349 349 349 350 351 351 350 349 349 348 348 346 342 339 337 337 335 334 333 332 332 331 331 331 332 333 334 333 332 332 334 334 333 333 335 335 334 335 334 333 333 334 334 334 334 333 333 333
323 325 328 332 335 338 341 343 345 346 347 347 348 348 348 349 349 350 350 350 351 350 349 349 348 346 344 341 339 338 337 335 335 333 332 331 332 332 332 332 333 334 333 333 332 332 335 335 335 335 335 334 334 333 333 332 332 333 332 332 332 332 332
322 325 327 329 332 335 338 340 342 344 346 347 348 348 348 348 349 349 350 350 350 350 350 349 348 345 343 341 339 338 337 335 334 333 333 332 332 332 333 332 333 334 333 333 332 333 333 335 335 334 333 333 333 332 332 332 333 332 331 331 331 332 332
322 324 326 328 330 333 335 338 341 343 345 346 348 348 348 348 348 349 350 350 351 350 349 348 347 344 342 341 340 338 336 335 334 333 333 332 332 332 333 333 333 334 335 334 332 332 332 333 334 334 333 333 333 333 333 333 333 332 332 331 331 331 332
322 324 325 326 328 331 334 336 339 342 344 346 347 348 348 348 348 348 349 349 350 351 349 348 346 344 342 341 340 339 337 335 334 334 334 334 333 334 333 333 334 334 335 336 334 333 332 332 333 335 334 333 333 333 333 333 333 332 331 331 331 331 331
328 323 324 326 327 328 331 335 337 339 342 344 346 348 348 349 348 348 348 348 349 350 349 348 347 344 342 342 340 338 337 337 336 335 336 337 334 334 334 334 334 334 335 336 334 333 333 332 332 333 334 334 334 334 335 333 332 331 330 330 331 332 332
322 323 324 324 325 327 330 332 335 338 340 343 345 346 347 348 347 347 348 348 349 349 349 349 347 345 342 341 340 339 339 337 336 336 336 336 334 333 334 335 335 335 334 335 335 335 334 334 333 332 332 334 334 334 334 333 331 331 331 331 332 332 332
321 323 323 324 324 326 329 331 333 336 338 340 342 344 345 346 346 346 346 347 347 348 349 349 347 345 343 342 342 342 341 339 336 334 334 334 334 334 334 333 334 334 334 334 334 335 335 334 333 333 332 332 333 333 333 332 332 332 328 330 333 332 332
322 323 324 324 324 326 328 330 331 333 335 338 340 343 344 346 346 346 346 346 347 347 348 348 346 345 342 341 339 337 335 333 332 332 333 333 333 333 334 334 335 334 333 334 333 333 335 334 332 331 332 332 332 331 331 331 331 328 325 326 329 333 333
322 323 323 324 325 325 327 328 329 331 333 336 338 341 343 344 345 345 345 346 346 347 348 347 346 341 340 339 336 335 335 335 334 334 333 332 332 331 332 333 333 333 332 332 333 333 332 333 331 331 331 330 330 330 330 330 328 323 324 326 326 329 334
322 323 324 325 326 327 326 327 329 331 332 334 337 339 342 344 344 344 345 345 347 348 347 346 345 342 338 335 336 335 335 334 333 333 333 332 333 332 332 331 332 332 332 332 333 333 331 331 331 331 330 329 329 329 330 330 327 323 323 324 324 325 328
321 323 324 325 326 327 327 328 329 331 332 334 336 338 341 343 344 344 346 345 345 345 345 344 344 340 334 335 335 335 334 333 331 331 331 332 332 332 331 331 332 333 333 333 333 332 332 332 331 332 331 330 330 330 331 332 326 323 322 322 322 323 326
320 323 323 325 325 327 328 328 331 332 332 332 333 337 339 340 342 343 342 343 342 343 342 343 342 336 334 334 335 335 334 333 331 332 333 331 330 330 330 330 331 332 332 332 332 331 331 331 330 331 332 332 332 332 332 333 325 321 320 319 319 321 324
321 323 323 325 327 328 329 330 332 332 333 335 335 336 337 339 341 341 341 341 341 341 340 340 338 334 334 334 335 335 334 331 328 329 330 330 329 328 328 327 328 328 329 330 330 331 331 331 331 331 332 332 332 332 331 333 324 321 320 319 319 321 325
322 324 327 328 331 331 332 333 334 334 336 335 334 334 335 337 339 340 339 339 339 339 337 336 334 333 334 334 335 334 333 331 329 329 328 328 328 327 328 327 328 328 329 327 327 329 330 330 330 332 331 332 332 331 331 332 327 320 318 317 318 320 325
321 321 323 324 324 325 328 329 332 336 336 335 335 335 335 336 338 339 338 338 337 337 334 334 333 333 333 333 334 333 331 330 329 329 329 325 324 325 326 327 326 326 329 328 327 328 329 331 330 330 331 331 332 331 330 330 327 318 315 315 316 318 325
323 324 325 326 325 324 328 330 333 337 336 335 335 334 335 336 337 337 337 336 336 336 334 332 332 332 332 332 332 331 330 331 329 328 327 326 327 329 327 325 326 328 329 329 329 330 329 331 330 329 328 326 327 332 331 329 325 319 318 318 315 319 324
327 329 330 334 333 331 333 338 339 336 335 335 334 334 335 336 337 337 336 335 335 334 333 332 332 332 332 332 331 331 331 330 329 328 327 326 327 327 329 328 328 328 329 330 330 330 328 329 329 328 327 327 329 327 327 326 325 325 317 316 313 314 322
331 334 335 336 336 339 335 334 334 335 335 335 335 334 335 336 336 335 335 333 333 333 333 333 333 332 332 332 332 331 331 330 328 327 328 329 330 330 330 330 329 329 329 327 327 327 327 327 326 326 325 325 326 326 326 326 324 324 317 312 309 312 317
327 326 330 337 338 336 334 333 332 332 331 331 334 333 335 336 335 334 333 332 332 333 333 333 333 332 332 331 331 331 331 330 332 332 331 332 333 330 330 329 329 329 328 328 326 326 325 325 324 323 322 322 323 323 323 326 327 324 316 309 306 307 312
328 328 328 330 331 334 335 332 331 330 330 331 333 333 334 335 334 334 333 331 331 332 333 333 332 332 332 332 332 331 331 332 334 333 332 330 329 328 327 328 328 328 328 327 326 325 324 323 323 323 322 322 322 323 323 323 326 321 319 307 304 304 307
328 329 329 330 332 332 332 329 330 330 331 331 332 332 334 335 333 333 331 329 331 332 333 332 332 332 332 332 332 332 332 332 333 331 329 329 328 328 326 326 326 326 326 325 324 323 323 323 323 322 321 321 322 322 321 321 322 319 315 311 303 302 303
327 327 328 329 330 332 329 329 329 330 330 330 331 331 332 334 333 332 330 330 332 332 331 331 331 331 331 330 331 331 331 331 329 328 327 328 329 327 326 325 326 324 324 323 322 323 323 324 323 322 322 322 321 320 319 319 319 318 315 310 306 302 302
326 328 328 329 329 329 329 329 330 330 329 330 331 331 332 333 333 331 330 331 333 331 330 331 330 330 329 329 329 328 328 327 326 326 326 326 326 327 327 326 326 324 324 324 323 322 322 322 322 321 321 320 319 318 318 317 317 315 314 315 312 309 307
323 325 326 327 329 331 329 329 329 329 330 329 330 331 331 332 332 331 330 331 331 330 330 329 329 330 328 327 327 327 326 325 325 325 324 323 323 324 323 324 325 324 324 323 323 322 322 322 322 321 320 320 318 317 317 317 315 314 313 312 311 312 312
323 324 324 326 328 329 328 329 328 329 329 328 328 330 331 331 330 330 330 331 331 330 329 329 328 326 325 325 326 326 325 325 331 325 321 322 321 321 321 321 322 322 322 321 322 322 322 322 322 320 320 320 318 317 317 317 315 312 311 309 310 309 309
323 321 323 325 327 328 328 327 327 327 328 328 329 330 331 331 331 331 330 330 330 329 327 326 327 325 324 324 325 325 328 327 325 320 320 319 321 321 321 321 321 321 323 321 316 319 322 322 321 323 322 322 320 318 317 317 316 316 309 312 306 308 306
323 324 324 325 326 326 327 329 327 327 327 327 328 329 329 328 330 332 333 331 329 327 326 326 324 323 323 323 325 325 324 321 321 320 320 318 318 310 306 300 295 298 310 313 309 304 300 308 321 322 322 320 319 318 319 319 319 304 300 298 297 297 298
322 323 323 324 324 325 326 325 328 327 326 325 325 324 323 323 324 327 329 329 328 327 326 325 324 322 323 323 323 323 321 320 319 319 319 318 315 312 310 307 304 294 294 298 300 297 295 300 303 308 312 319 314 306 302 303 298 295 293 291 292 292 291
321 321 323 324 324 325 325 324 326 325 324 323 322 322 322 322 322 323 324 325 326 326 325 324 324 322 323 324 324 324 323 321 321 318 314 312 312 312 312 310 308 307 297 293 295 296 293 293 296 299 302 305 308 306 305 297 294 293 292 292 291 291 291

ECMWFFLT1_sfc_thetae_003.txt.gz
Theta_e
338 339 340 342 342 342 343 345 347 347 349 351 352 352 354 355 357 359 358 359 360 360 363 363 362 362 362 362 364 366 365 365 365 363 361 360 359 357 355 353 353 353 352 349 349 350 350 353 353 351 351 351 347 347 348 347 347 345 347 349 348 347 346
336 337 339 341 342 343 345 347 348 348 349 350 351 353 353 356 357 357 358 360 361 361 362 362 362 362 362 363 364 365 365 365 365 363 362 360 359 357 356 354 353 352 353 351 352 352 353 352 352 351 350 351 348 348 346 349 349 348 345 349 347 347 347
334 336 338 340 341 343 345 346 348 348 349 349 350 352 353 356 358 358 358 359 360 362 363 363 363 362 362 364 364 364 364 364 363 361 360 357 356 354 354 354 353 352 351 353 353 352 352 352 353 352 350 350 346 348 348 347 349 347 347 349 347 344 346
335 336 338 341 343 345 346 346 347 347 348 349 350 352 354 357 359 359 360 360 359 361 361 362 362 361 362 362 363 363 362 362 361 359 358 357 356 354 352 351 352 352 351 351 350 351 350 351 351 352 351 350 349 347 347 345 345 347 345 346 345 344 346
336 337 338 339 341 344 345 345 346 348 347 349 351 354 356 357 358 358 359 360 359 359 361 362 361 362 362 362 362 362 361 360 358 357 357 356 356 354 351 348 349 349 349 350 351 350 350 350 349 350 350 350 348 348 348 348 346 348 344 346 343 343 341
334 336 337 338 339 341 343 345 346 347 347 348 350 353 354 355 355 355 357 359 359 360 362 363 362 362 360 360 360 360 360 358 356 355 355 355 354 352 349 349 348 348 348 349 349 348 349 349 349 349 347 346 344 344 344 346 344 344 343 346 345 341 338
332 335 337 339 340 341 342 344 345 347 348 349 351 353 353 352 353 354 355 356 357 359 359 360 361 361 360 360 359 359 357 355 354 353 353 353 352 351 350 349 349 348 348 350 347 348 347 348 348 349 348 346 345 344 344 345 342 345 346 347 345 346 344
334 335 339 340 341 342 342 344 346 347 349 350 350 351 351 352 353 353 354 355 356 356 357 356 359 361 360 361 359 358 356 355 353 352 350 349 349 348 347 346 348 349 348 346 347 346 344 346 346 347 347 345 346 346 345 345 346 343 345 344 344 343 343
333 337 338 339 341 342 343 346 347 348 350 351 351 352 352 352 352 353 355 355 356 356 356 357 358 360 362 361 359 358 355 352 351 350 348 346 344 342 340 343 344 345 345 343 342 344 345 345 344 346 346 345 345 347 346 347 346 346 345 345 344 340 339
333 336 339 339 341 343 346 348 350 351 352 353 354 354 353 353 354 354 355 355 356 356 357 357 358 359 360 359 358 356 351 349 345 344 343 340 340 339 339 340 339 341 340 339 340 340 342 343 343 344 345 344 345 346 346 346 345 345 346 345 344 343 341
334 337 340 339 342 345 348 348 349 352 353 354 355 354 355 355 355 354 355 355 355 356 357 358 359 358 358 358 354 350 347 347 346 343 342 341 339 338 336 337 337 339 337 337 338 338 338 341 341 342 343 342 344 345 345 345 346 345 345 345 346 345 343
335 336 338 340 343 344 345 348 352 353 354 355 355 354 356 357 356 355 356 356 356 356 357 357 358 358 357 357 353 347 346 348 347 344 342 341 341 337 337 337 338 337 338 337 336 336 338 339 340 341 342 343 344 345 346 347 347 345 344 343 344 345 344
334 335 337 337 341 343 348 350 350 352 354 354 354 355 356 356 355 355 357 357 356 357 357 359 359 359 357 356 352 348 348 349 348 345 342 340 341 341 340 339 336 337 337 337 337 337 337 339 339 341 342 343 344 345 346 347 346 345 346 346 346 345 344
334 334 335 339 341 342 343 346 350 352 354 354 354 357 356 356 356 357 358 357 357 357 357 358 360 359 358 356 352 350 349 350 349 346 345 343 343 342 340 340 339 338 338 338 337 336 336 337 337 340 341 342 343 344 345 345 345 345 346 346 346 345 345
331 331 333 334 338 342 344 346 348 350 352 353 355 355 356 356 357 358 359 358 359 357 358 359 359 359 357 356 353 351 351 350 347 347 345 342 341 341 341 340 337 334 337 337 337 336 337 339 339 340 340 341 341 342 343 343 343 344 345 344 345 346 344
331 332 332 333 337 339 342 345 348 350 352 354 354 355 355 356 357 357 357 356 357 359 359 360 360 359 358 356 355 353 351 349 347 346 344 341 341 339 340 338 334 333 335 336 337 338 339 339 339 339 340 340 340 341 343 343 343 338 330 334 344 345 344
333 333 333 335 338 339 341 343 346 349 350 352 353 354 355 356 357 357 356 356 356 358 359 359 360 359 358 356 355 353 351 349 346 346 344 343 342 341 341 335 330 328 331 335 337 338 339 341 339 338 339 339 340 339 340 340 340 330 326 326 328 339 343
335 335 335 336 339 338 339 341 344 345 348 349 352 355 355 357 357 357 356 356 357 357 358 359 358 357 359 357 355 353 350 348 346 345 344 343 342 341 340 336 332 331 333 336 336 337 339 340 339 340 340 340 339 338 339 339 332 326 325 326 326 329 338
336 337 337 340 339 338 338 338 341 345 346 348 350 352 355 357 356 356 358 358 358 359 357 356 356 358 357 356 352 349 347 346 344 344 341 340 339 338 338 335 334 334 334 334 336 336 336 338 338 338 339 338 337 337 337 337 331 324 323 324 324 325 329
334 335 335 337 338 338 340 341 341 344 345 349 350 350 353 355 355 356 357 357 359 357 357 357 356 357 355 352 349 346 344 343 341 338 336 336 336 336 336 336 335 335 336 336 335 334 334 336 338 339 337 336 335 336 337 337 329 323 321 321 321 322 327
332 333 334 336 337 336 338 340 343 344 343 343 344 349 350 351 353 354 354 356 356 357 357 357 356 355 351 350 348 346 343 340 337 334 334 335 338 340 337 335 337 338 338 338 338 335 335 337 337 338 337 337 336 336 336 336 327 322 319 318 318 319 325
332 332 333 336 340 339 340 337 338 339 342 344 346 347 347 349 350 351 351 353 355 355 356 356 355 351 350 349 347 345 343 339 336 335 335 337 339 338 337 337 337 337 341 341 340 339 339 340 339 333 333 337 338 337 336 336 325 322 321 318 318 320 331
332 334 337 341 339 340 343 341 342 343 347 345 345 346 346 347 349 350 351 351 353 355 354 354 351 349 349 348 346 345 343 340 337 337 337 337 337 336 336 336 336 337 340 338 339 337 337 337 335 334 335 336 337 336 336 336 328 319 316 316 317 320 335
331 334 336 337 343 343 345 345 345 346 344 345 345 346 348 348 351 353 352 352 352 352 352 351 349 348 348 347 346 345 344 343 340 338 338 338 337 336 335 336 336 337 338 335 335 334 335 336 336 335 336 336 337 337 338 338 327 314 314 315 316 324 336
332 334 337 338 338 340 343 346 346 345 347 346 344 347 351 352 353 353 351 351 351 350 350 349 348 347 347 346 346 345 343 342 341 339 338 335 335 334 333 333 335 335 334 333 334 334 336 336 335 336 337 336 338 334 336 338 329 316 314 313 315 326 340
337 336 336 338 341 345 347 349 348 346 350 353 351 349 352 353 353 352 351 350 349 347 347 347 347 348 348 347 345 343 341 340 340 338 335 333 334 338 337 333 332 331 330 331 332 332 333 333 335 338 337 337 338 335 334 335 337 332 313 314 315 319 333
342 342 340 340 343 346 347 349 352 352 351 350 349 348 351 352 351 350 349 348 347 346 346 346 347 347 347 345 343 341 340 339 338 336 337 337 337 336 333 333 332 331 331 329 330 333 335 336 339 340 339 337 337 334 332 331 332 331 314 311 313 314 320
340 341 342 344 344 345 345 345 348 348 348 349 349 350 350 352 351 348 347 346 347 347 345 345 346 345 345 343 341 340 338 337 339 340 339 338 336 335 333 333 333 334 332 330 334 337 337 339 339 339 340 339 339 337 335 333 331 337 318 313 310 309 313
341 341 341 343 345 346 346 350 351 351 350 347 348 347 349 350 349 346 346 346 346 344 344 345 344 343 342 341 339 338 337 338 340 339 337 336 336 335 334 334 335 336 337 338 338 338 338 339 339 339 337 336 337 337 336 335 334 323 329 309 306 304 307
342 342 341 341 343 346 347 350 350 349 346 345 345 347 348 351 348 346 346 346 344 344 344 343 342 341 339 338 337 337 337 337 338 338 337 337 337 337 338 337 337 337 339 339 338 337 336 337 339 337 334 331 330 331 332 332 335 322 317 316 305 304 304
341 339 338 343 341 346 348 349 346 343 342 342 344 346 349 352 348 345 346 344 344 343 343 342 340 339 337 336 336 336 337 337 338 339 338 337 336 335 336 336 337 336 338 338 337 336 334 333 334 334 334 334 332 331 332 332 332 331 320 312 307 304 303
337 339 340 342 344 344 344 343 343 341 339 339 341 343 346 351 350 347 347 344 344 344 343 341 340 338 337 337 337 338 338 337 338 339 338 336 335 336 336 336 336 335 335 334 333 334 333 334 333 332 331 331 332 334 333 331 331 330 327 320 313 310 307
337 338 340 340 341 342 342 342 340 340 339 339 340 342 342 346 347 348 343 342 342 343 342 341 339 338 338 338 339 338 337 337 336 335 335 336 335 334 334 334 334 335 335 334 332 333 332 331 331 331 332 334 334 333 332 331 329 329 328 328 324 323 317
336 337 338 339 339 340 342 344 343 342 343 342 340 341 342 341 342 342 342 341 341 341 341 340 340 339 339 339 338 338 337 337 336 334 334 333 331 334 333 334 334 332 332 332 332 332 332 331 332 333 333 332 332 332 332 330 330 329 328 326 326 325 323
335 336 337 338 337 339 341 342 343 343 343 341 341 342 342 342 342 342 342 341 340 341 340 339 338 339 338 337 337 336 338 336 336 333 333 331 334 329 319 321 327 331 334 329 329 333 334 335 334 333 333 333 333 332 331 331 330 330 319 329 316 323 324
336 337 337 337 339 339 340 341 342 343 342 341 341 342 342 341 340 341 340 340 340 340 340 338 337 337 335 335 335 335 335 335 335 335 334 334 335 324 315 303 296 304 322 325 311 303 298 303 330 330 332 330 333 335 331 330 332 310 305 302 302 301 299
334 334 334 335 338 339 339 339 340 342 342 340 340 341 341 341 340 340 339 340 340 339 340 338 336 335 334 334 334 334 335 334 334 335 335 333 330 324 321 318 313 294 293 302 306 299 295 297 297 301 310 331 330 316 299 301 297 296 297 296 295 294 293
334 334 334 334 335 337 338 338 339 340 340 339 339 339 340 339 340 341 338 339 339 339 339 338 336 335 334 334 335 334 335 333 332 330 329 327 326 325 323 322 322 319 298 293 295 295 293 292 295 299 305 309 318 316 314 299 294 294 294 294 293 292 291

ECMWFFLT1_sfc_thetae_006.txt.gz
Theta_e
345 346 346 347 348 348 348 350 353 352 354 357 359 360 359 361 362 363 364 366 368 369 372 374 373 371 371 369 371 370 369 367 367 364 362 361 361 361 360 360 360 361 358 357 356 353 356 356 354 352 352 351 349 348 348 346 345 343 344 345 345 344 344
342 344 345 346 347 348 350 352 354 353 354 356 358 361 360 362 364 363 365 367 369 369 371 373 373 373 372 371 371 371 370 368 368 367 365 363 363 363 363 363 361 361 361 359 357 357 356 353 353 353 350 349 348 349 346 347 345 344 342 343 342 343 345
342 342 345 346 347 348 351 352 354 354 355 355 357 358 359 362 365 365 365 366 368 370 371 372 373 372 372 372 371 370 370 368 368 368 366 362 364 362 364 363 361 360 360 360 358 356 356 355 354 352 350 348 346 347 347 347 346 344 343 344 343 342 344
342 342 345 348 349 351 352 353 353 353 353 355 356 357 360 363 365 366 366 367 368 369 369 371 372 371 372 372 371 371 370 370 370 368 366 364 364 364 362 363 362 361 359 358 357 356 356 354 352 351 349 348 347 347 347 346 345 344 343 343 343 343 343
341 343 344 346 348 350 351 352 353 354 353 353 356 360 361 362 364 365 366 367 366 368 369 370 369 371 371 372 371 371 371 370 369 369 367 365 366 365 362 360 361 360 360 360 359 357 355 353 351 349 348 349 348 347 347 346 344 345 344 343 342 341 340
339 341 343 344 346 349 351 352 352 352 352 351 355 358 359 360 361 361 363 366 366 366 370 370 369 371 370 370 370 370 371 370 370 370 368 368 367 364 363 364 363 362 359 360 358 357 355 353 349 348 347 347 346 346 346 345 343 344 345 344 343 341 339
338 342 342 344 346 347 350 351 351 351 353 353 355 358 358 357 358 358 359 362 363 365 366 366 368 369 371 370 370 370 369 368 369 368 370 369 369 367 366 365 364 362 361 362 358 357 355 352 349 349 348 346 347 345 345 345 344 344 344 344 342 342 341
340 342 345 346 346 346 346 351 352 352 354 355 353 355 356 356 357 356 357 357 361 359 361 361 365 369 371 370 369 370 369 368 366 368 369 367 367 366 365 363 362 363 362 360 359 356 352 352 350 350 348 345 346 346 345 344 345 341 342 341 339 341 341
342 345 346 345 346 345 346 349 352 353 355 356 355 356 357 356 355 355 356 356 357 358 359 357 361 367 371 370 369 368 369 368 368 367 366 365 365 362 361 362 362 362 361 358 355 357 354 353 351 351 350 348 347 348 346 345 343 342 340 339 340 341 341
343 345 347 345 345 345 346 347 352 355 354 355 356 357 357 357 357 356 356 355 355 356 356 356 357 364 370 368 367 368 368 367 365 364 362 361 362 360 360 359 360 360 359 356 354 352 352 351 351 351 350 348 348 348 346 344 342 341 340 339 341 342 342
343 347 347 345 345 346 346 347 350 353 355 358 357 356 358 358 358 357 357 356 355 355 357 357 357 361 367 367 364 365 366 364 363 361 361 359 358 357 357 355 355 357 355 352 350 352 353 351 350 350 349 345 345 345 345 343 342 341 340 340 342 342 341
348 347 348 348 347 346 346 350 353 356 358 359 358 356 359 360 359 357 358 359 357 356 357 358 358 357 364 365 363 364 363 363 361 359 359 358 359 357 354 352 353 352 351 350 348 348 347 347 347 345 342 342 342 344 344 343 342 342 342 340 341 341 341
347 348 348 346 347 348 351 353 354 357 359 359 358 359 359 359 359 358 360 361 359 358 359 361 360 361 362 364 362 365 363 361 360 360 358 359 357 355 351 348 347 347 345 346 347 345 344 347 345 344 344 344 344 343 342 342 342 343 344 344 343 341 341
348 346 347 348 349 349 351 354 357 359 360 360 359 361 361 361 360 360 362 361 361 360 360 361 363 363 364 366 364 365 362 361 363 363 360 356 352 350 348 348 348 348 347 348 345 343 344 343 343 344 344 345 344 343 343 343 342 343 345 345 343 342 341
344 343 345 345 349 352 354 355 358 360 360 361 361 361 361 361 362 363 363 363 364 360 361 364 365 365 365 366 365 366 365 364 362 360 350 348 345 344 345 345 344 343 342 344 343 347 347 342 340 341 341 342 342 343 343 342 342 343 345 345 344 343 341
342 342 342 344 347 350 354 356 359 361 362 362 360 361 360 361 363 362 362 362 363 363 362 364 366 366 366 365 365 366 365 363 362 354 347 345 344 342 342 341 338 338 337 338 340 344 345 345 344 341 341 341 342 344 344 344 344 338 332 337 343 344 344
342 343 343 345 348 350 354 355 358 361 361 362 361 362 361 362 363 363 361 362 362 365 364 364 367 367 366 364 364 363 364 361 357 348 344 342 340 340 338 337 337 337 337 338 339 339 343 342 342 341 340 340 342 343 344 344 343 331 329 330 333 343 344
342 345 345 345 347 350 352 354 356 359 360 361 362 363 364 365 365 364 361 363 363 364 365 365 366 364 365 364 365 363 362 359 353 345 342 343 343 344 345 344 341 340 340 341 341 341 340 339 340 342 341 341 343 343 344 344 333 327 327 328 328 331 341
344 345 348 349 349 350 350 351 356 360 360 361 362 363 365 367 364 365 365 365 366 367 365 364 364 365 365 364 364 362 360 358 353 346 344 345 345 347 347 347 345 344 343 342 343 345 343 342 343 343 344 343 343 342 342 343 332 326 326 326 326 326 332
342 345 349 349 350 350 352 353 354 356 358 361 363 362 364 367 365 366 366 366 367 366 367 366 365 365 364 364 362 360 359 357 354 348 346 345 345 345 345 345 345 345 344 343 343 342 342 342 343 344 345 344 344 342 343 345 331 325 323 323 324 325 329
342 345 346 348 350 350 352 352 353 356 357 357 358 361 363 363 365 365 364 366 364 366 366 366 365 364 363 360 360 359 359 356 354 349 346 345 344 344 344 344 344 344 343 342 341 341 341 341 343 342 343 344 344 345 345 344 326 322 322 320 320 322 328
337 342 343 344 349 350 351 350 352 353 355 357 359 360 360 360 360 360 360 363 364 365 366 365 365 362 361 360 359 358 357 355 352 350 348 347 347 346 345 345 345 344 344 343 342 343 343 343 343 342 342 342 343 342 342 341 325 322 321 319 319 322 332
335 340 341 345 346 348 354 353 352 354 356 356 355 354 354 356 356 356 357 359 362 365 365 364 362 360 360 357 356 355 355 353 351 350 349 348 347 346 346 344 344 346 348 346 344 342 342 343 341 342 341 341 340 339 339 339 329 320 319 319 318 323 338
338 343 342 344 349 352 353 352 352 352 350 351 353 353 352 352 354 357 358 359 362 362 362 363 361 359 357 355 355 353 353 353 353 352 350 349 348 348 347 345 346 346 348 346 343 341 340 340 340 342 341 339 338 337 338 338 330 318 317 316 316 327 341
336 339 345 348 350 348 347 348 350 350 353 354 350 353 356 357 358 358 359 361 361 363 362 362 361 359 357 355 354 353 352 352 352 352 349 349 349 349 347 347 347 347 346 344 342 341 341 340 341 340 339 338 338 333 336 338 331 317 316 314 315 329 344
339 340 343 347 347 349 353 355 354 351 353 353 356 359 359 360 362 361 361 361 361 361 360 361 360 361 359 356 355 353 351 351 351 349 349 349 349 348 347 347 346 345 344 343 342 341 341 341 341 339 338 339 338 339 338 338 342 335 313 313 312 319 342
345 345 344 346 349 352 355 354 353 350 350 359 361 361 363 363 361 361 362 361 360 358 358 360 361 360 359 357 354 352 352 352 350 349 347 347 346 346 346 344 343 341 341 338 338 339 338 338 337 336 337 337 337 336 337 336 335 342 313 310 312 314 320
346 348 351 352 352 349 348 346 348 348 355 360 360 361 362 363 361 361 360 358 357 358 359 360 360 360 359 357 355 353 352 351 351 351 350 350 350 348 343 341 341 340 339 336 337 338 337 336 336 335 335 336 335 337 336 338 339 345 315 311 310 310 315
346 346 347 350 351 349 344 347 349 351 355 355 357 357 359 359 360 359 358 356 358 358 359 358 358 359 357 356 354 353 352 351 352 350 349 348 347 344 339 339 338 338 337 335 335 335 335 336 335 334 333 334 335 336 337 347 339 329 330 311 309 306 309
343 343 339 337 339 342 350 357 358 355 353 351 353 355 354 357 358 357 358 358 360 357 355 356 358 358 356 354 353 350 350 350 349 348 347 346 344 341 339 338 337 336 336 335 334 334 334 333 333 333 333 332 332 338 344 345 343 326 326 323 309 306 305
336 336 335 336 334 339 341 352 355 355 355 357 358 358 360 361 360 361 360 358 356 355 356 357 357 355 353 352 351 350 349 349 348 346 344 343 341 339 338 337 337 335 337 337 336 335 334 333 333 333 332 331 332 337 341 342 341 339 326 318 309 307 305
338 337 337 343 346 339 340 343 347 350 350 353 356 358 359 359 360 357 353 353 353 357 358 356 354 352 351 351 350 348 348 347 345 343 342 341 340 341 340 338 336 336 337 335 334 335 334 333 332 332 333 332 335 336 339 340 339 339 335 320 314 312 308
347 348 345 345 349 349 342 341 341 343 344 346 348 349 350 357 360 360 356 356 357 357 356 354 353 350 351 350 349 348 347 345 342 340 340 341 341 340 340 340 338 338 338 336 335 335 334 334 334 334 333 334 335 337 337 337 337 337 336 332 326 324 317
344 345 347 348 348 350 348 344 341 344 347 349 349 350 349 349 353 355 355 354 354 353 354 352 351 350 350 348 347 345 344 343 340 339 338 338 338 337 337 339 340 337 337 336 335 334 333 334 333 332 332 332 333 335 336 335 336 337 336 333 331 330 330
346 347 347 346 347 350 347 348 345 347 349 351 354 353 354 355 353 353 353 352 350 352 350 347 346 349 348 346 345 344 344 342 340 339 338 338 339 340 337 342 341 339 338 342 341 338 335 334 332 332 332 331 333 334 334 333 333 336 325 342 321 337 331
343 344 345 347 347 347 348 349 350 350 350 353 354 354 354 351 350 349 347 348 350 350 349 348 347 347 345 344 343 342 341 341 338 339 338 337 337 333 323 305 297 310 332 333 315 302 297 305 331 329 331 330 330 333 329 328 336 306 299 299 297 296 297
341 342 342 344 345 345 346 347 349 350 351 352 352 351 350 349 348 348 347 350 350 350 350 349 345 344 342 343 341 340 341 339 339 339 340 339 338 334 328 322 316 294 293 303 304 299 293 293 293 297 303 325 334 316 299 301 300 298 298 296 295 295 295
336 341 341 341 341 343 346 347 347 348 349 351 351 349 349 346 348 349 348 350 350 351 351 349 346 342 341 341 342 342 343 340 340 340 339 339 339 338 333 331 329 320 297 292 296 296 293 292 292 293 298 300 311 321 320 302 295 295 295 295 294 294 293

ECMWFFLT1_sfc_thetae_009.txt.gz
Theta_e
341 341 339 343 346 346 347 349 351 349 349 350 350 351 352 355 357 360 361 364 366 367 369 369 368 367 367 366 367 368 367 366 366 365 364 363 362 362 361 359 359 359 356 354 356 355 356 356 353 351 351 350 348 349 350 349 348 344 345 345 345 344 345
338 338 336 341 345 348 348 350 352 351 351 350 351 354 353 354 357 358 361 364 367 367 368 368 369 368 368 368 368 368 368 367 366 366 366 364 364 364 362 362 360 359 359 358 356 357 356 354 353 351 349 349 348 350 348 350 348 346 343 344 343 343 344
335 338 339 342 345 349 349 349 352 352 353 352 352 352 353 356 358 361 362 363 366 369 369 369 370 369 369 370 368 368 368 367 365 365 364 361 363 361 362 363 361 358 360 359 358 356 356 355 354 353 350 349 348 348 349 349 347 345 344 345 343 341 343
335 339 339 343 349 352 351 350 351 353 352 353 353 353 355 358 360 361 361 363 366 368 369 369 370 370 369 370 369 369 368 368 367 365 364 362 362 362 361 362 362 360 357 356 356 355 356 355 352 352 351 350 349 348 347 347 346 345 344 344 343 343 343
332 340 342 340 347 350 351 350 350 352 352 352 354 358 357 357 358 360 361 363 365 368 368 369 369 371 371 370 369 368 369 369 368 366 365 364 363 363 361 359 360 358 356 356 357 358 357 356 353 352 351 351 348 348 347 346 346 346 345 346 344 342 341
329 337 339 340 347 349 351 351 350 350 351 351 355 358 357 356 357 358 359 362 365 368 369 369 369 371 371 370 369 367 369 371 370 369 366 365 364 361 360 360 358 357 353 357 356 357 358 356 353 353 351 348 346 346 346 346 344 344 345 346 345 343 339
330 335 337 340 346 350 351 352 352 352 352 352 353 357 357 355 356 357 358 360 361 364 365 364 366 368 371 371 370 370 369 368 369 368 367 365 364 363 362 360 360 357 355 358 357 357 356 356 354 353 351 349 347 346 347 348 345 344 344 346 345 346 344
331 331 337 343 345 349 351 353 353 354 353 351 349 352 354 354 356 356 356 357 357 357 362 361 361 367 371 373 371 371 371 370 370 370 369 366 364 363 361 362 361 360 359 355 358 358 355 356 352 352 350 348 348 347 347 347 347 342 344 344 344 343 341
330 335 337 342 345 347 349 353 354 354 355 351 348 351 354 354 353 353 354 354 355 353 356 358 359 364 371 372 372 372 372 371 371 370 369 366 363 359 359 359 361 361 359 355 355 358 357 355 352 352 351 349 348 349 347 348 346 346 345 344 344 342 340
334 338 342 343 344 344 349 352 356 358 356 354 352 354 354 353 352 351 351 349 352 351 351 355 352 358 368 371 371 371 372 371 371 369 366 363 362 357 355 357 361 362 359 356 353 356 357 356 353 352 352 349 347 347 347 347 346 345 344 342 342 342 342
337 341 342 344 349 350 351 350 355 359 359 360 357 350 356 354 349 348 349 348 348 350 350 353 350 351 363 369 368 369 370 368 367 367 363 361 358 357 355 356 358 360 358 356 352 357 355 354 353 352 352 348 346 347 347 346 347 346 342 340 340 340 340
345 343 351 353 352 350 350 356 358 363 363 365 357 350 360 358 349 347 348 348 348 347 349 351 353 350 361 368 366 367 368 368 367 364 362 360 355 356 355 356 359 357 355 355 354 356 352 352 351 351 352 351 349 349 351 350 348 344 341 340 339 340 341
349 352 354 352 352 352 356 358 357 359 362 359 355 355 356 355 351 346 354 352 348 346 347 352 350 356 357 366 366 366 369 368 367 365 363 360 360 360 352 350 356 351 348 353 356 354 353 353 352 354 354 353 353 352 351 349 345 343 342 342 341 342 343
352 354 354 353 353 353 353 355 356 358 360 359 359 359 359 357 354 351 352 350 350 347 348 350 353 355 359 365 368 368 367 369 367 366 363 362 362 361 357 359 357 356 354 356 356 355 356 355 355 356 356 353 353 351 350 347 344 342 342 343 343 343 343
343 348 351 351 355 356 355 353 356 357 358 360 361 361 361 360 359 359 357 354 356 348 348 354 359 358 356 363 367 369 370 369 368 366 365 362 363 361 361 360 359 355 358 359 357 356 355 355 354 353 351 350 347 346 345 343 340 340 340 341 343 344 343
331 346 346 350 354 354 357 356 357 359 361 364 363 362 359 360 362 359 358 357 355 353 350 355 361 364 359 359 366 369 371 370 367 366 366 362 362 361 361 360 360 359 359 357 356 355 353 352 352 349 346 344 345 343 341 340 340 336 329 335 345 346 345
325 326 328 334 343 355 357 358 359 361 362 364 364 363 361 362 362 361 359 359 357 357 352 354 366 362 362 364 367 370 371 370 368 366 366 366 365 364 361 360 360 359 358 357 357 354 352 351 349 344 342 340 338 338 341 340 338 329 328 330 334 345 345
327 330 330 331 336 352 359 360 361 362 363 363 363 364 363 365 363 361 359 360 359 357 355 358 362 362 367 366 371 372 369 365 364 363 364 363 362 361 361 360 358 358 358 357 357 356 354 350 348 345 342 339 340 342 342 341 330 326 327 329 330 335 346
327 326 328 342 343 350 354 358 362 365 364 365 363 364 365 367 363 363 363 365 364 364 358 359 364 367 369 370 370 369 367 361 360 360 360 360 360 360 359 357 356 355 353 354 355 354 352 350 346 343 339 339 340 339 339 339 329 326 326 327 328 329 337
327 327 328 337 338 336 352 357 357 363 366 367 367 365 366 369 366 365 364 364 366 365 366 367 367 370 370 371 370 368 363 359 358 358 358 359 359 358 357 357 355 354 354 354 354 352 350 349 346 343 342 342 342 341 340 341 329 325 324 325 326 328 334
330 330 336 341 344 342 356 359 360 363 365 364 364 365 366 366 366 366 362 364 365 368 371 369 370 371 371 368 369 367 361 359 358 357 357 358 358 358 357 357 356 355 354 351 351 350 349 346 344 343 343 342 342 341 340 341 325 323 323 323 323 325 331
326 327 343 341 346 355 359 358 358 358 364 365 363 363 365 365 365 362 360 365 367 368 369 370 371 370 368 366 367 364 361 358 358 358 356 355 355 355 355 355 355 355 354 352 350 350 349 348 344 341 341 343 343 342 341 340 321 322 322 321 321 323 336
323 335 341 349 352 355 361 362 360 360 367 364 363 365 364 363 365 363 364 365 366 369 369 369 369 368 366 364 365 363 363 359 357 355 354 353 353 353 352 354 354 354 354 351 350 348 347 346 344 345 345 345 344 342 341 341 327 319 318 318 318 324 337
333 335 337 344 353 353 361 360 359 362 363 362 363 364 365 367 367 366 368 367 368 369 369 368 365 365 363 362 364 364 364 360 356 353 351 352 352 352 353 352 353 350 351 349 347 345 345 345 344 343 344 342 342 341 340 341 329 315 315 316 317 325 338
336 334 337 344 348 349 357 358 358 359 363 363 361 365 369 369 368 366 365 366 367 368 366 366 366 365 362 363 364 363 361 360 357 354 352 352 351 350 350 349 350 350 350 348 348 346 347 344 343 343 344 341 340 337 339 342 330 314 315 315 314 327 342
337 336 342 344 347 352 358 360 360 361 357 358 364 368 368 365 365 365 364 366 366 364 364 366 365 364 363 361 360 361 361 360 359 358 355 353 353 352 351 352 351 349 348 348 348 347 347 345 345 343 342 342 343 344 342 341 342 333 314 314 313 318 340
341 340 341 342 347 357 358 357 358 358 359 363 365 361 363 364 362 363 366 366 365 363 363 365 365 363 361 360 358 358 356 356 357 356 355 355 354 353 352 350 350 349 349 347 346 346 345 344 343 343 343 342 342 342 342 342 342 340 313 313 312 316 324
342 340 344 349 355 356 355 353 358 357 356 359 359 361 362 363 362 364 364 363 362 363 365 366 364 362 361 360 358 358 357 355 356 356 353 354 354 353 352 352 351 349 348 342 343 343 343 345 343 341 341 341 341 342 341 341 338 342 318 313 311 313 316
344 342 344 349 352 353 351 352 351 352 356 357 359 361 363 364 364 362 360 361 362 362 366 366 364 363 361 359 357 356 355 354 355 353 353 353 352 351 350 348 346 345 346 345 343 342 341 341 339 339 336 338 339 339 341 342 342 332 335 313 311 310 312
347 348 353 353 353 353 351 353 357 360 360 359 360 361 364 364 360 360 361 361 363 364 365 365 364 363 359 357 356 354 351 351 351 351 351 351 351 349 348 346 345 345 345 344 341 340 339 338 338 335 333 333 334 336 337 342 344 327 323 320 311 309 309
352 352 350 348 347 352 354 356 354 350 348 347 349 351 357 361 359 360 360 362 364 364 363 362 362 359 357 356 353 351 350 349 350 350 350 349 348 346 344 344 345 341 343 342 338 337 337 337 336 335 334 332 334 335 336 338 341 336 323 317 312 309 307
347 346 345 346 347 345 342 341 342 342 342 347 352 355 359 359 361 361 364 365 365 365 364 362 358 356 356 355 353 351 350 349 349 348 348 348 346 346 345 343 340 339 339 337 335 337 337 336 335 334 335 334 334 333 336 340 339 337 327 319 316 314 309
340 343 343 343 346 349 352 354 353 354 355 354 355 353 355 362 365 365 364 363 364 364 363 360 357 354 353 353 352 353 352 350 346 345 344 346 344 343 343 342 340 339 338 335 335 336 336 336 335 334 332 332 333 333 335 339 337 336 331 331 329 328 321
350 351 344 342 343 343 342 341 343 344 344 343 342 344 348 358 360 361 361 360 360 358 357 355 354 354 355 354 352 351 349 347 344 344 343 342 342 341 339 339 339 338 337 335 335 335 334 334 332 332 332 331 331 333 335 335 337 336 337 334 334 333 331
350 353 356 354 349 345 343 342 343 348 347 347 348 350 353 355 357 357 359 359 358 359 357 354 352 355 354 352 351 348 348 346 344 343 343 342 343 347 348 344 341 339 340 340 340 340 338 338 335 334 334 332 333 332 335 336 335 335 326 343 322 332 331
347 347 350 354 356 356 354 355 354 354 355 356 358 356 355 353 352 353 351 355 359 359 357 355 354 354 350 348 347 347 345 344 343 343 342 341 340 334 322 304 297 310 340 332 311 302 299 310 331 328 333 334 338 334 337 335 337 309 305 308 310 309 307
345 346 348 350 350 353 355 356 356 357 357 356 355 351 350 350 349 350 349 354 354 355 355 353 349 346 344 345 344 343 344 342 341 343 342 340 339 338 334 330 320 296 293 302 303 297 293 293 294 299 304 327 333 319 302 304 302 300 299 300 299 297 297
343 343 345 348 350 351 352 353 353 353 353 354 353 352 351 347 349 352 351 353 353 355 354 352 348 345 343 343 341 344 346 342 341 341 339 338 340 339 337 336 333 325 300 293 296 295 293 292 292 293 296 298 312 324 324 305 297 297 297 297 296 296 295

ECMWFFLT1_sfc_thetae_012.txt.gz
Theta_e
340 341 341 343 343 343 344 347 348 348 352 352 353 354 352 355 358 360 360 363 364 365 367 369 368 367 367 367 369 369 368 368 369 367 365 364 363 363 363 362 362 362 361 360 360 359 363 360 360 357 355 354 354 353 354 353 353 352 351 351 352 353 347
334 337 338 340 341 342 343 346 350 349 351 353 353 355 353 355 358 359 360 363 364 365 367 368 368 367 367 368 368 369 368 368 368 367 367 366 366 366 365 364 364 363 363 361 363 363 361 359 358 356 351 353 351 353 351 352 352 351 348 349 348 350 349
335 337 338 338 340 344 345 345 347 350 351 351 351 352 353 355 358 360 361 363 364 366 367 368 368 367 367 368 368 368 368 367 367 367 365 364 365 360 364 366 365 362 361 363 362 360 359 358 358 356 353 350 348 352 351 351 351 349 350 347 347 345 347
337 336 338 340 343 345 346 346 347 346 347 350 350 350 355 358 359 360 362 363 364 365 367 368 367 366 367 368 368 367 367 368 367 365 364 364 364 364 364 365 364 362 361 360 359 357 355 357 354 355 354 352 351 350 349 349 347 348 348 349 346 346 346
335 338 339 340 340 345 344 344 346 349 348 351 350 353 355 358 358 358 362 362 362 364 366 367 365 365 367 368 367 367 367 368 366 365 365 365 366 365 363 359 361 359 360 359 359 359 357 356 353 352 351 352 350 350 349 350 348 348 347 349 346 346 345
333 337 339 338 337 342 345 344 343 344 349 351 350 352 353 354 354 353 357 360 362 363 367 368 366 367 366 367 367 367 368 368 368 367 366 366 365 363 362 361 360 359 359 359 358 358 357 356 353 351 350 349 348 347 347 347 346 346 345 346 347 344 343
337 339 339 338 338 339 342 343 342 344 350 352 352 352 352 352 352 352 354 357 360 363 364 365 365 365 366 366 367 368 367 367 368 366 366 366 365 363 363 363 362 359 358 359 357 356 356 356 354 352 351 348 349 347 346 346 345 346 345 344 345 346 345
337 338 341 341 340 338 340 344 346 350 351 353 352 351 350 351 351 352 352 355 359 362 363 363 363 365 366 367 368 367 367 366 367 366 365 364 363 363 363 362 362 361 359 357 357 357 355 356 354 353 352 350 350 348 348 348 346 346 345 344 344 342 343
340 341 341 338 337 336 339 344 345 347 347 348 352 353 351 351 350 350 351 355 358 360 363 364 363 363 367 367 367 367 367 367 366 366 365 362 361 358 359 361 361 361 357 356 356 357 357 356 354 355 353 351 350 348 348 348 346 345 345 344 343 341 340
341 341 340 339 338 338 342 347 346 346 345 346 350 354 353 352 352 350 352 355 357 357 361 362 362 363 367 367 366 366 367 367 367 364 362 359 358 356 357 357 358 359 357 355 354 355 357 358 356 355 354 352 351 348 348 348 347 345 344 345 344 342 341
338 343 341 338 341 343 344 343 344 347 347 350 353 354 355 354 354 352 353 354 355 356 361 362 362 363 365 365 363 363 365 364 365 365 363 360 358 356 356 357 357 357 356 354 353 355 356 357 357 356 354 351 350 348 347 347 347 346 344 345 345 345 344
344 342 344 343 346 347 344 345 346 350 353 352 354 354 357 357 355 352 353 354 354 355 360 361 359 359 363 365 362 363 363 364 362 362 363 361 359 358 357 356 357 357 356 354 353 355 356 356 356 355 353 352 350 350 348 348 347 346 345 344 344 344 343
340 347 345 346 346 347 350 351 350 350 356 362 357 355 356 357 355 353 355 355 354 356 357 358 357 359 362 364 363 365 365 363 363 364 363 363 361 360 358 356 357 357 355 354 353 354 354 356 356 356 354 352 350 349 349 348 347 347 346 344 343 342 341
351 347 346 353 352 352 353 354 358 358 360 362 359 355 354 356 355 355 356 354 354 354 354 354 356 358 361 364 365 366 366 367 368 367 366 365 364 362 360 357 356 357 358 357 356 354 352 355 356 356 354 352 350 349 348 348 347 347 346 343 340 339 339
344 343 350 350 356 360 361 363 368 369 365 363 361 356 353 354 354 356 356 354 353 350 351 353 353 354 360 364 365 367 368 369 370 369 368 365 364 362 361 358 356 358 360 359 357 355 352 356 358 355 353 352 350 347 347 347 347 347 345 342 340 341 340
333 343 347 348 354 357 363 363 364 366 367 366 362 359 353 354 355 355 353 352 350 349 350 352 352 352 351 357 363 367 369 370 370 368 368 365 363 362 361 358 356 357 359 359 358 356 355 358 358 354 352 351 350 347 347 349 350 340 331 335 340 340 341
327 326 339 349 357 356 359 361 361 363 364 364 363 363 356 355 357 357 351 349 347 349 349 352 353 353 352 356 362 367 370 370 370 369 367 365 363 362 360 358 357 357 358 358 356 355 359 359 356 353 353 353 349 348 351 350 347 329 327 330 334 340 343
328 344 337 341 350 355 359 359 360 360 361 361 363 365 362 360 359 356 350 348 346 345 348 352 352 353 353 358 365 370 370 370 370 369 367 365 363 362 361 360 359 357 358 358 358 359 359 357 356 355 355 354 351 350 347 346 332 324 325 327 329 335 344
329 330 344 339 350 355 356 355 357 360 357 357 359 360 362 365 360 358 355 351 348 348 346 349 353 355 355 361 367 370 371 371 370 369 368 366 364 363 363 361 361 361 360 360 362 359 356 356 356 354 353 351 348 344 344 343 325 323 323 326 326 328 338
328 327 329 336 347 355 357 357 357 359 359 361 362 359 361 363 361 362 360 357 354 351 349 349 357 358 358 363 367 371 372 371 369 368 367 366 366 367 366 364 363 363 362 360 361 359 355 354 354 352 350 348 346 344 342 341 324 322 321 323 325 327 332
334 330 330 335 358 356 362 363 364 363 364 361 361 364 364 363 363 364 361 361 359 358 354 352 358 361 361 365 370 374 374 370 368 367 367 366 367 366 365 364 363 361 359 357 356 356 355 352 351 350 349 345 343 343 342 340 322 320 321 322 322 325 330
329 332 331 331 350 351 362 362 363 362 364 363 365 364 363 362 361 359 358 359 360 362 361 358 362 366 366 375 372 369 370 369 368 367 366 365 365 364 363 362 362 359 358 356 355 355 353 353 351 348 345 345 344 341 344 341 320 321 320 321 321 324 335
326 328 331 337 338 353 363 361 364 363 370 367 364 363 361 362 361 360 359 357 358 364 365 366 368 368 371 372 368 366 367 367 365 363 363 362 362 361 360 360 360 360 359 355 353 351 350 350 347 348 345 345 344 343 343 343 323 319 319 319 320 324 337
326 327 329 329 336 343 365 363 364 366 367 366 364 363 363 362 364 364 362 360 364 364 367 370 369 370 372 370 366 365 365 365 364 362 361 360 359 359 359 359 359 358 359 355 352 349 349 349 348 346 344 343 342 342 343 341 327 316 317 318 318 325 339
324 324 326 328 330 333 359 364 363 360 367 365 361 364 368 367 367 365 363 362 364 364 366 369 369 370 370 369 366 365 364 364 362 361 360 359 359 358 357 357 358 358 358 355 354 353 353 350 349 347 346 342 342 341 341 341 329 313 317 315 315 327 341
328 326 326 328 329 341 356 369 365 359 360 362 364 366 369 368 368 365 363 364 366 362 364 368 370 371 370 369 365 364 364 363 362 361 359 358 357 357 357 357 356 355 353 352 351 350 350 349 347 346 344 344 344 347 341 341 338 322 313 313 313 321 341
342 336 335 330 332 354 366 366 363 357 355 362 367 366 369 369 366 363 364 367 365 362 362 368 370 369 369 369 365 363 363 363 362 359 358 357 356 355 354 353 353 352 351 348 347 349 349 347 345 345 345 342 344 343 343 342 343 327 311 311 313 317 326
339 341 333 338 350 352 361 357 359 359 358 368 370 369 369 369 366 366 368 367 366 368 369 370 368 367 368 367 364 362 361 361 361 358 356 355 356 354 352 353 353 351 349 347 347 348 348 347 346 345 344 345 345 347 347 345 341 335 313 313 311 313 317
344 336 340 346 363 356 356 356 356 355 360 364 365 365 369 368 367 369 368 368 370 370 371 367 366 366 366 364 363 361 360 360 358 355 355 354 354 353 352 351 350 349 349 349 348 347 345 345 344 344 343 345 345 345 346 347 344 331 326 312 310 310 312
344 341 336 335 347 355 356 356 358 360 361 360 363 365 367 367 367 367 367 369 370 369 366 365 364 363 361 360 361 359 358 358 358 358 357 356 356 354 353 351 350 349 349 350 348 346 345 344 343 342 339 338 340 341 342 347 344 331 325 320 312 310 309
342 341 336 336 338 356 355 360 362 361 363 365 368 368 369 370 366 365 365 367 367 364 364 363 362 360 359 359 357 356 357 358 356 355 356 355 355 353 350 351 351 348 349 348 347 346 343 343 341 340 339 340 338 338 342 344 343 335 325 320 314 311 309
347 346 342 343 355 355 355 357 359 359 359 363 368 368 366 367 366 363 364 367 365 365 364 361 359 357 356 356 355 355 355 353 352 352 353 353 353 353 353 348 346 345 345 345 343 345 343 341 338 337 338 337 336 337 339 342 337 330 323 320 317 314 310
339 339 343 342 348 353 354 350 352 354 356 359 362 362 361 363 365 365 367 366 366 365 363 359 357 354 354 353 352 352 352 351 348 348 349 351 350 349 348 349 344 343 342 342 339 339 339 337 336 336 334 335 336 337 339 339 336 331 327 326 323 322 317
339 341 341 345 354 356 357 356 354 353 355 356 358 359 359 361 362 364 364 363 364 362 360 356 354 352 351 350 349 348 348 347 348 347 346 346 346 344 343 344 342 340 341 339 339 338 337 336 336 334 334 333 333 337 338 338 336 333 330 328 328 326 325
342 340 343 348 352 352 350 350 349 352 352 353 356 359 361 362 363 362 364 363 361 360 357 354 351 353 350 348 348 346 348 347 346 346 345 345 334 320 317 328 341 341 329 321 321 335 337 337 336 335 333 332 333 334 334 336 336 336 323 331 320 326 327
343 343 343 346 349 350 350 350 349 350 352 356 359 358 359 360 360 360 360 360 359 357 354 353 351 350 348 347 346 345 346 344 343 343 342 337 331 326 318 307 296 311 334 325 313 304 305 314 330 328 336 335 331 332 335 336 338 320 312 311 309 310 313
341 345 349 351 350 351 353 355 356 355 355 355 354 352 353 355 354 355 356 357 356 354 354 354 351 348 346 345 343 342 343 341 341 345 343 338 334 332 328 323 316 297 296 303 303 298 295 294 295 299 305 332 332 318 309 318 310 309 307 305 305 304 304
337 342 345 349 350 351 352 353 353 352 350 351 350 349 349 345 352 359 356 357 356 356 356 355 351 347 345 345 344 342 342 340 341 341 341 339 338 336 333 330 325 320 300 294 297 297 294 294 294 294 297 302 316 322 319 306 302 302 301 300 299 298 297

ECMWFFLT1_sfc_thetae_015.txt.gz
Theta_e
330 332 333 334 337 338 339 342 344 344 345 346 347 347 347 348 349 351 352 354 355 355 356 357 357 358 358 358 358 360 361 360 360 359 357 356 354 354 353 354 354 354 353 354 353 354 353 354 353 351 351 347 340 340 343 342 341 343 339 342 342 340 338
330 332 335 336 336 337 340 342 344 345 345 346 347 347 347 348 349 350 352 354 356 356 357 357 358 358 359 359 359 360 361 360 360 360 358 357 356 356 355 354 355 354 354 355 354 354 353 353 352 350 351 345 340 340 342 343 343 340 338 338 340 340 338
330 333 336 336 337 337 338 342 344 345 345 346 348 347 347 348 349 350 353 354 355 357 358 357 358 358 359 359 360 360 361 361 360 359 358 357 356 357 356 355 356 355 356 355 355 353 354 352 351 350 349 343 343 342 341 343 342 340 338 337 338 339 337
330 333 336 337 337 338 338 340 343 344 346 347 348 348 347 348 350 352 354 355 355 356 357 358 358 359 359 359 360 361 361 361 361 360 359 358 356 357 357 356 356 356 355 355 355 353 355 351 350 348 351 342 343 343 342 342 342 340 339 338 336 337 338
330 333 335 336 336 337 337 338 341 343 345 347 348 349 348 349 351 353 354 356 357 357 358 359 360 360 360 360 360 361 361 361 361 361 360 359 358 357 357 356 356 355 355 355 355 354 351 350 350 347 346 342 343 343 342 341 341 340 339 337 336 336 336
331 332 334 336 337 337 337 338 340 343 344 345 347 348 349 350 351 352 354 356 357 358 359 360 360 361 360 360 360 361 361 361 361 361 360 359 358 356 356 356 356 355 354 354 355 353 350 350 348 346 344 343 343 343 342 341 341 340 339 337 335 337 336
331 333 334 335 336 337 338 339 339 342 344 346 348 350 350 350 350 352 354 356 358 357 358 360 361 361 360 361 360 361 360 360 360 360 360 359 358 356 356 356 356 355 354 354 353 352 350 349 347 346 345 343 343 342 342 341 340 339 338 339 335 336 337
330 331 333 335 335 336 337 339 340 341 344 346 347 349 349 350 350 351 353 355 357 359 359 360 360 361 360 361 361 360 360 360 360 360 359 358 358 356 356 356 356 355 354 352 352 352 350 349 348 346 344 343 343 342 341 342 340 339 337 338 337 336 338
331 332 333 334 335 336 337 339 340 340 342 343 344 347 349 349 350 350 352 354 357 358 359 360 361 361 361 360 360 360 360 361 360 359 358 358 358 357 356 356 355 355 353 353 352 352 351 349 349 346 344 343 343 342 341 341 340 339 337 337 337 336 337
331 332 333 335 336 336 337 339 340 340 340 341 342 345 347 349 350 350 351 353 356 357 359 360 361 361 360 360 360 360 360 360 360 359 358 357 358 357 356 356 356 355 353 353 353 351 351 350 349 347 345 343 343 342 341 340 340 339 338 337 337 336 336
332 332 333 333 334 334 336 338 337 338 340 341 343 346 347 348 349 349 350 351 354 356 358 359 361 361 361 360 359 360 359 359 360 359 357 357 357 357 357 356 356 356 354 353 352 351 350 350 349 347 345 344 343 342 341 340 340 339 338 338 337 336 335
332 332 332 333 332 333 335 337 338 339 341 344 345 346 346 347 348 349 349 350 352 354 356 358 360 361 361 360 359 359 359 359 359 359 358 357 356 356 356 356 355 355 355 353 351 350 350 350 349 348 346 345 344 343 341 341 340 339 339 338 338 337 336
331 331 333 332 332 335 336 337 337 341 342 344 346 347 346 346 347 348 348 348 350 353 356 358 359 360 360 359 358 358 358 359 359 359 358 357 357 356 355 355 355 355 354 354 352 350 349 350 350 349 348 346 345 344 342 342 341 339 339 339 338 337 336
338 333 333 332 332 334 334 336 337 339 341 342 344 346 348 347 348 348 348 348 349 353 356 358 359 359 359 359 357 357 358 359 359 359 359 358 357 355 354 353 353 354 354 354 351 349 349 349 350 350 349 347 346 345 343 342 341 340 339 339 339 338 337
331 331 330 332 332 335 335 335 336 337 340 341 343 343 347 348 347 348 348 348 349 352 355 358 359 358 358 358 356 356 358 358 359 360 359 358 357 355 354 352 352 352 352 352 351 350 349 350 350 350 349 348 347 345 344 342 342 341 340 338 338 338 338
330 331 330 332 335 336 336 337 337 338 340 342 342 344 346 348 348 348 348 348 349 351 354 356 357 357 357 358 357 357 357 358 358 359 359 358 357 355 354 353 351 351 351 351 350 349 348 349 350 350 349 348 346 345 344 343 343 337 329 333 339 337 337
330 331 330 332 335 337 336 338 339 339 340 343 344 344 347 349 349 349 349 349 350 350 352 355 356 356 356 357 359 358 358 357 357 358 358 358 358 356 355 353 352 351 351 351 350 349 348 348 349 350 350 348 346 344 344 344 342 329 327 330 333 337 335
334 337 339 339 341 340 341 342 344 344 342 343 349 348 347 350 351 350 349 349 350 350 352 353 355 355 354 357 359 359 358 358 358 357 357 358 358 357 356 354 353 351 350 351 351 350 349 347 349 350 349 349 347 344 343 343 334 326 327 329 329 334 336
334 338 341 341 341 343 344 346 349 351 348 347 349 352 350 350 351 350 350 350 350 351 351 351 352 353 353 355 358 359 360 359 359 358 357 357 358 358 357 355 353 351 349 350 352 350 349 348 350 350 349 348 346 344 343 342 330 325 325 327 326 329 334
323 333 342 343 344 346 348 350 351 354 355 354 354 355 353 351 351 352 352 352 351 350 349 348 349 351 351 353 356 359 360 361 360 360 359 359 359 358 357 355 353 352 350 351 352 350 350 351 350 349 349 348 346 344 344 343 325 324 323 324 325 327 332
319 321 339 341 342 346 347 348 349 351 353 355 356 356 354 351 351 352 351 351 349 349 348 347 346 347 349 350 354 357 359 361 361 361 361 360 359 358 356 355 353 352 351 352 352 350 349 350 349 349 348 348 347 345 344 343 321 321 321 321 322 325 331
329 328 325 336 343 346 346 347 347 349 350 354 354 355 355 351 352 351 350 350 348 347 347 346 345 345 346 347 350 354 358 360 361 361 361 360 359 357 356 354 353 353 353 353 353 351 350 349 349 347 345 345 344 341 339 333 319 320 320 320 321 324 332
323 325 327 324 336 347 350 350 349 350 352 352 353 354 355 355 353 352 350 348 347 345 345 344 343 344 345 346 347 351 357 360 361 361 361 360 358 356 356 354 354 354 353 352 351 349 348 347 347 346 343 340 339 338 336 330 319 318 317 318 319 322 331
316 320 324 327 336 345 350 352 352 353 353 352 353 354 355 355 355 353 350 348 347 345 343 342 342 346 346 346 347 351 357 360 361 361 360 359 358 357 356 356 355 353 351 350 349 348 347 346 344 343 341 339 338 339 337 333 321 315 315 316 317 322 330
315 316 319 322 332 347 352 354 353 354 354 354 353 355 355 356 355 354 352 350 348 347 344 342 342 347 348 348 349 355 360 362 362 361 360 359 358 358 356 355 354 352 351 349 348 347 346 344 343 341 340 339 339 336 338 336 322 312 315 315 315 322 330
326 331 330 325 321 337 353 355 354 354 355 354 354 356 357 357 356 354 353 352 351 349 347 345 344 349 353 355 358 362 363 363 361 361 360 358 358 357 356 355 354 352 350 349 347 346 345 343 342 340 339 340 339 339 339 336 327 320 313 314 314 317 331
337 334 334 331 335 342 336 351 348 348 354 356 356 357 358 358 356 353 353 353 352 350 351 351 349 354 361 361 362 363 362 362 361 359 359 358 357 356 354 354 353 352 350 348 347 345 344 343 342 341 340 340 339 338 338 338 331 323 312 312 313 315 324
333 334 334 333 350 353 342 349 352 354 356 357 357 358 358 358 355 353 353 353 352 352 354 356 360 363 362 361 361 361 360 359 359 358 357 355 354 352 351 350 351 349 347 345 344 343 342 342 341 340 339 339 339 338 337 340 335 325 313 312 310 312 319
339 337 333 331 332 346 354 349 351 355 357 359 360 359 360 358 355 354 353 353 353 355 358 364 364 362 360 359 359 358 357 356 355 354 354 353 352 350 348 347 347 345 344 343 344 343 341 341 340 340 339 338 338 338 339 339 333 321 320 311 310 310 314
338 340 338 331 334 346 351 351 351 350 353 359 360 360 360 359 356 355 354 354 357 361 364 364 362 360 358 356 356 356 354 353 353 352 351 350 349 348 346 345 345 345 344 344 343 341 339 338 338 338 337 336 336 338 339 338 334 321 318 316 311 310 312
339 339 340 341 341 343 349 351 350 353 353 355 357 359 360 360 358 354 354 358 361 362 363 362 360 357 356 356 355 353 352 351 350 350 350 349 348 346 344 343 343 342 343 343 340 338 337 335 335 335 335 334 334 334 337 337 335 329 323 317 313 311 311
338 339 341 341 342 343 349 352 351 350 343 340 339 343 353 361 360 355 358 363 361 362 362 360 357 355 354 354 353 351 350 349 348 349 349 348 347 345 344 343 342 341 341 341 340 338 336 335 334 333 334 333 333 333 336 335 331 325 322 320 317 315 312
335 337 336 338 341 342 343 345 343 340 342 341 341 340 339 349 360 362 362 359 361 361 360 357 354 352 352 351 351 350 349 347 347 347 347 347 346 346 344 343 341 339 337 338 339 337 336 335 333 331 331 332 331 334 334 330 326 323 320 319 318 318 316
332 335 336 338 341 340 337 336 337 338 338 338 340 342 344 345 351 357 360 359 359 357 354 350 348 347 345 344 344 343 344 345 349 346 345 344 344 342 341 340 339 336 334 334 335 334 333 332 330 329 328 329 330 333 332 328 325 323 322 320 320 318 317
332 333 337 338 340 339 333 333 335 336 338 339 342 346 347 350 346 344 342 341 341 341 341 341 341 343 344 345 345 344 343 345 345 344 332 319 314 310 315 331 337 328 321 315 319 335 334 332 331 331 330 329 331 333 331 329 326 326 318 323 316 319 320
332 334 336 338 341 338 335 335 334 335 336 337 340 342 342 341 340 343 345 344 342 342 341 339 341 341 342 344 344 344 343 343 341 331 325 321 318 315 311 303 301 317 324 317 310 305 309 320 330 330 328 330 329 335 334 331 332 317 310 308 306 307 311
329 333 335 337 337 339 337 339 340 339 336 337 340 340 343 346 344 344 343 341 341 342 343 343 343 343 343 343 342 341 342 341 336 329 326 324 323 320 317 314 307 296 299 306 303 301 297 296 296 300 306 327 327 321 316 322 313 307 306 304 303 304 305
326 329 334 336 334 335 338 338 336 335 335 338 340 339 338 340 346 348 346 347 347 347 344 344 342 341 341 342 341 339 339 339 334 330 328 327 325 322 320 317 314 311 300 295 298 297 295 294 294 295 297 307 319 321 319 310 306 305 303 303 303 303 302

ECMWFFLT1_sfc_thetae_018.txt.gz
Theta_e
327 328 328 329 331 334 336 338 338 339 340 342 343 344 344 345 347 348 350 351 351 350 352 353 353 353 352 353 354 354 354 353 354 354 353 353 353 353 353 352 352 352 351 351 351 352 353 354 352 352 350 348 346 343 342 340 340 342 339 339 339 338 338
326 328 329 330 330 332 335 338 339 339 340 342 343 344 345 345 347 347 349 351 352 351 352 353 354 354 353 352 353 354 354 354 355 355 354 353 354 354 354 352 352 352 352 352 352 353 352 352 352 351 349 349 345 342 340 338 339 340 338 337 337 336 336
326 328 329 330 331 331 333 337 339 340 340 342 344 344 344 345 347 347 349 350 351 352 352 353 354 354 354 353 352 353 354 355 355 355 354 353 353 353 353 353 352 352 352 353 353 353 353 352 351 351 349 348 344 341 339 337 338 337 337 337 337 335 334
325 327 330 331 332 333 333 336 339 340 341 342 344 345 345 345 347 348 349 350 351 352 351 352 353 354 354 353 352 352 354 355 356 356 355 355 354 354 353 352 352 352 352 352 353 353 353 352 351 350 353 348 343 339 339 337 337 336 336 337 336 335 335
326 327 329 331 331 332 333 334 337 340 341 342 344 346 346 346 347 348 349 351 352 351 352 353 354 354 355 355 354 354 354 355 356 356 356 356 355 354 353 351 352 351 352 352 353 353 352 351 350 349 350 347 342 338 339 338 338 336 335 335 335 335 334
326 326 327 330 332 333 334 335 337 339 341 341 343 345 346 346 347 347 349 350 351 353 353 353 353 354 354 355 355 355 355 356 357 357 357 356 355 353 353 352 352 352 351 352 353 352 352 351 350 349 348 346 341 338 338 338 338 336 334 334 334 335 333
326 327 328 329 331 333 334 335 337 339 341 343 344 346 346 346 346 347 349 350 351 351 352 353 353 354 354 355 356 356 355 356 357 357 357 357 356 354 353 353 352 352 352 353 352 352 352 350 350 349 348 344 342 338 337 338 338 337 335 333 332 333 334
327 327 328 330 332 333 335 336 337 340 342 343 344 345 345 346 347 347 348 350 351 352 352 353 353 354 355 355 356 355 356 356 357 358 358 357 356 355 354 354 353 353 353 352 352 352 351 350 350 349 347 343 341 339 337 338 338 337 335 333 332 332 334
327 329 329 331 332 333 334 335 337 340 341 342 343 345 345 346 346 347 348 350 351 352 353 354 354 355 356 355 355 356 357 357 357 358 357 357 356 355 354 354 354 354 352 352 352 353 351 350 349 348 347 343 341 340 339 338 338 338 336 334 332 332 333
326 328 330 331 333 334 334 335 336 338 340 342 343 344 345 345 346 347 348 349 351 352 353 355 355 356 356 356 356 356 356 357 358 357 357 357 356 355 355 354 354 354 353 353 353 352 351 350 348 348 346 343 341 340 339 338 338 337 337 336 333 333 333
327 328 329 330 332 333 334 334 334 335 339 341 342 344 345 346 346 346 348 350 351 352 354 355 356 356 356 356 356 356 356 356 357 357 357 357 357 356 356 355 354 354 353 353 352 352 351 349 348 347 345 343 341 340 339 339 338 337 336 336 336 334 333
327 328 328 329 331 332 332 333 335 335 337 340 341 343 345 345 346 347 348 349 352 353 354 355 357 357 356 356 356 355 355 356 356 356 357 357 357 356 356 355 354 354 354 353 351 351 351 349 348 346 345 344 342 341 340 339 339 338 336 336 336 335 334
327 327 328 329 331 332 332 333 334 335 337 339 340 342 345 346 346 346 347 348 351 353 354 355 356 357 357 357 356 356 355 356 356 356 356 357 357 357 356 355 355 354 353 353 352 350 350 349 348 347 345 344 343 341 340 339 339 338 337 336 335 335 334
332 327 328 329 330 330 331 332 334 335 336 338 340 342 344 346 346 347 347 348 350 353 354 356 356 357 357 356 356 356 356 356 357 357 357 357 357 356 356 355 354 354 353 353 352 350 349 349 348 347 346 344 342 342 341 339 339 339 338 337 335 335 334
323 325 326 327 328 330 330 331 333 335 336 337 339 340 343 345 346 347 347 348 350 352 354 356 356 356 356 356 356 356 357 357 357 357 357 357 356 355 355 355 354 354 353 352 352 352 350 349 348 347 346 345 343 342 341 340 339 339 338 337 336 335 334
323 326 327 327 327 329 331 333 334 335 336 337 338 339 342 344 345 346 347 347 349 350 353 355 355 355 356 356 356 356 357 357 357 357 357 356 355 355 354 354 354 353 352 352 352 351 350 349 348 347 346 345 344 343 342 341 341 335 327 331 337 335 335
324 326 327 328 328 329 331 333 334 335 336 337 338 339 342 343 345 347 347 348 348 349 352 354 354 355 355 355 356 356 356 356 356 357 356 356 355 355 354 353 353 352 351 351 351 351 349 348 347 347 347 346 344 343 342 342 340 328 325 328 331 336 336
325 326 327 328 329 330 331 333 333 335 337 338 340 341 342 343 344 346 346 347 348 349 351 352 353 354 355 356 356 356 356 356 356 356 356 356 355 355 354 353 352 351 350 350 350 350 349 347 347 347 347 347 346 344 343 342 332 326 325 327 328 333 337
327 327 328 329 329 331 332 333 334 335 338 339 340 342 343 344 344 344 346 347 348 349 349 351 352 353 354 355 356 356 356 356 355 355 355 355 355 355 354 353 351 350 349 348 349 349 348 347 346 346 347 347 346 344 344 344 331 324 323 326 326 329 335
328 328 328 329 331 332 332 333 335 336 338 340 341 343 345 346 345 346 347 348 348 347 348 349 351 353 353 354 355 356 356 355 355 355 355 355 355 355 353 352 351 350 349 349 348 347 347 347 346 346 346 347 346 345 345 344 327 323 322 324 325 327 332
329 329 329 330 332 333 333 334 335 336 336 339 341 342 344 346 347 347 347 347 347 347 347 348 350 352 353 354 355 355 355 355 354 354 354 355 355 354 353 352 352 350 349 348 348 347 346 346 345 346 347 347 347 346 345 345 322 321 321 322 322 325 330
324 323 328 331 333 334 334 334 335 336 337 340 341 343 344 345 347 347 347 347 347 346 347 348 349 350 352 353 354 355 355 355 354 353 353 354 354 353 353 353 352 351 350 349 349 349 348 347 346 346 346 347 347 346 344 341 319 320 320 320 321 323 334
321 321 324 329 335 334 337 337 336 338 341 341 341 342 343 345 346 347 348 347 346 346 346 347 347 348 351 352 354 355 356 355 354 353 353 353 353 352 353 353 352 352 351 349 348 348 348 348 347 347 347 346 346 344 343 333 321 319 318 318 319 322 335
323 318 319 327 335 338 338 338 339 341 342 342 342 342 345 345 345 346 346 346 347 346 346 346 346 348 350 351 353 354 355 356 355 354 353 353 352 352 353 354 354 353 351 349 348 348 348 349 348 347 347 346 345 344 339 334 322 316 316 317 317 324 335
331 330 318 317 326 336 339 341 343 344 346 346 347 347 347 347 346 346 346 346 346 346 345 345 346 347 348 350 352 353 355 356 356 356 354 354 354 354 353 354 353 353 352 351 350 349 348 347 346 344 344 345 344 335 337 335 323 314 316 316 316 325 336
334 333 331 326 319 324 333 342 344 343 343 344 347 351 351 349 348 346 346 346 347 346 345 346 347 348 348 349 351 352 353 355 356 356 356 355 355 355 355 355 354 352 351 350 350 348 346 345 344 341 340 341 341 338 339 336 331 321 314 315 314 319 335
336 335 335 335 332 343 334 339 343 344 344 345 347 350 352 352 349 346 346 346 346 346 347 348 348 348 348 347 348 349 351 353 356 356 357 358 357 357 356 355 353 352 350 349 348 346 344 343 342 340 338 339 339 338 338 337 333 325 312 313 314 316 323
336 337 339 339 342 338 339 338 344 346 345 346 347 349 351 352 349 347 346 346 345 346 348 349 348 348 347 346 345 346 348 351 355 357 358 358 358 356 355 354 353 351 350 348 345 343 342 341 339 338 337 337 338 338 337 337 334 330 314 313 311 312 316
333 335 335 336 336 339 340 342 340 344 346 348 347 347 349 351 349 348 347 346 346 348 349 348 348 347 346 345 344 344 346 350 353 356 358 358 357 356 353 352 351 349 347 345 344 342 341 339 339 338 337 337 337 337 338 336 332 323 323 312 309 309 312
333 334 335 337 338 338 339 340 343 343 344 347 347 349 349 348 348 348 348 348 350 349 349 347 346 344 343 344 345 346 348 351 354 357 358 357 356 354 352 350 349 347 345 344 343 341 339 338 338 337 336 335 335 336 337 336 331 321 318 317 310 308 309
330 332 334 334 336 338 338 337 339 343 338 340 340 341 343 345 346 344 343 345 349 353 353 351 350 349 349 350 351 351 353 355 356 356 357 356 354 351 350 348 346 344 344 343 341 340 338 338 337 337 336 335 335 335 334 334 330 325 321 318 311 309 309
330 332 334 336 336 338 337 336 338 338 338 336 338 341 343 344 344 341 340 343 347 354 357 354 351 351 352 353 353 353 354 354 354 355 354 354 353 351 350 347 345 344 343 342 340 339 338 337 337 336 336 335 334 334 335 333 329 323 320 319 316 314 312
329 331 333 334 335 335 333 334 335 335 336 336 339 339 342 344 345 344 344 346 348 353 356 354 352 350 350 351 351 351 352 352 351 350 351 351 350 350 348 346 345 343 340 339 338 337 337 336 335 335 334 334 334 334 334 331 326 322 319 318 317 317 317
327 331 332 333 334 334 332 332 332 333 336 337 340 340 339 339 338 340 344 349 352 351 350 348 348 347 346 347 347 348 349 348 349 348 346 345 346 344 341 339 339 337 335 335 337 336 335 335 334 333 333 333 333 333 332 329 325 322 321 318 319 318 320
325 327 331 331 331 333 333 331 332 333 335 337 340 339 338 337 338 341 343 347 349 348 347 345 342 344 343 343 343 343 344 346 345 344 338 327 319 318 328 338 337 335 331 327 338 338 336 334 334 334 335 334 333 332 329 327 325 325 317 322 315 317 320
324 325 327 331 332 332 333 334 334 334 335 336 336 337 337 337 338 340 343 345 347 347 343 341 341 342 342 342 342 342 341 342 341 338 334 328 322 318 312 305 300 310 331 327 320 326 323 323 333 335 334 335 334 334 332 329 330 317 309 307 306 306 310
324 326 328 330 331 332 334 333 335 336 336 336 337 337 338 337 338 339 340 341 342 343 342 341 339 338 338 339 340 338 339 337 334 332 330 327 325 322 318 315 309 297 297 305 306 304 300 303 308 314 322 334 333 329 321 321 313 305 305 303 303 303 304
325 327 328 330 330 331 332 333 335 334 335 336 338 338 338 337 337 338 338 338 338 337 336 336 336 335 337 339 338 334 332 332 330 329 327 326 325 323 321 319 315 311 299 295 299 299 298 298 302 307 312 315 322 324 323 310 304 304 302 302 301 301 302

ECMWFFLT1_sfc_thetae_021.txt.gz
Theta_e
324 325 326 329 330 331 332 333 333 334 335 336 337 338 339 340 343 344 345 345 345 345 346 348 349 349 349 349 349 349 350 350 350 350 350 349 350 350 351 351 351 351 352 351 352 353 355 355 353 353 352 352 350 347 345 344 342 341 340 340 339 339 338
322 324 325 328 329 331 332 334 334 335 335 336 337 338 339 340 342 344 345 345 345 345 346 348 350 349 349 349 350 350 350 350 350 352 351 351 351 351 352 352 352 351 352 352 352 353 354 354 354 352 352 351 349 347 345 343 341 340 339 339 337 337 337
321 323 324 326 328 330 332 333 335 335 336 337 338 338 339 340 342 343 345 345 345 346 347 347 349 350 350 350 350 350 350 350 350 350 350 350 351 351 352 353 352 352 352 352 352 352 354 353 353 352 351 350 348 346 345 343 341 340 338 338 338 337 335
322 323 324 325 327 330 332 333 335 336 337 337 338 339 339 340 342 344 345 346 346 346 346 347 348 349 350 350 350 350 350 351 351 351 351 351 351 352 352 352 352 352 352 351 352 352 353 353 352 351 354 349 348 346 344 343 340 339 338 337 337 336 335
323 324 324 324 325 328 331 332 334 335 336 337 338 340 340 341 342 344 345 347 347 346 347 348 349 350 350 351 351 351 351 351 351 351 351 352 352 352 351 351 352 351 352 352 352 352 352 351 351 350 350 349 347 345 343 341 339 338 337 336 336 335 334
323 324 324 325 325 327 329 332 334 335 336 337 338 339 341 341 343 343 345 347 348 348 348 349 349 350 350 350 351 351 351 352 352 352 351 352 352 351 351 351 351 351 351 351 352 351 352 351 350 350 349 348 347 345 342 340 337 336 335 335 335 335 334
323 324 325 326 326 327 328 330 333 335 337 338 338 340 342 342 342 343 345 346 348 348 348 348 349 350 351 351 350 351 350 351 351 351 352 352 352 351 351 352 352 351 351 352 351 351 351 350 350 350 349 348 347 344 342 340 337 335 334 334 334 334 334
323 324 325 326 327 328 328 329 331 334 337 338 338 339 340 342 343 343 344 345 347 349 349 349 349 350 351 352 351 350 350 351 352 352 353 352 352 352 352 352 352 352 351 350 351 351 351 350 350 350 349 348 347 345 342 340 338 335 333 333 333 333 334
324 325 325 326 328 329 329 330 330 332 334 336 337 339 340 342 342 343 344 345 347 348 349 350 350 351 352 352 352 351 351 351 351 352 352 352 352 352 352 352 352 352 351 350 350 351 351 350 350 349 348 348 347 344 342 340 339 337 334 333 332 332 332
323 323 325 327 328 330 330 330 331 331 332 335 337 338 340 342 343 343 344 345 346 347 349 350 351 351 352 352 352 352 352 351 351 351 352 352 353 352 353 353 352 352 351 351 351 350 351 351 350 349 348 347 346 344 342 339 338 337 335 333 332 332 332
323 324 324 325 326 328 330 330 330 331 332 334 337 338 340 341 342 343 344 345 346 347 349 350 351 351 351 352 352 352 352 351 352 351 351 352 353 353 353 353 353 352 351 351 350 350 350 350 350 349 348 347 346 344 342 340 338 337 336 335 333 332 332
322 323 324 325 326 326 328 330 331 332 332 334 337 338 340 341 342 343 344 345 346 347 348 350 351 351 351 351 351 351 351 352 352 351 352 352 352 353 353 354 353 352 352 351 350 350 350 349 349 349 348 347 346 345 343 340 338 337 337 336 334 333 332
321 323 324 325 326 327 328 329 330 332 333 335 337 338 340 341 342 343 344 344 346 347 348 349 351 351 351 351 351 351 351 352 352 352 352 353 353 354 354 354 354 353 352 352 351 350 349 349 348 349 348 347 346 345 343 341 339 337 337 336 335 334 333
327 322 323 325 326 326 327 328 330 331 333 335 337 339 341 342 343 343 343 344 345 347 348 350 350 350 350 351 350 351 351 352 353 353 353 354 354 354 354 354 354 353 353 353 351 350 350 349 348 348 348 347 346 345 344 341 339 338 337 336 336 335 333
319 321 322 323 325 326 327 328 329 331 332 335 338 339 340 342 342 343 344 345 346 347 348 350 350 350 350 350 350 350 352 352 353 354 354 354 354 354 354 354 354 353 352 352 352 352 351 350 349 347 346 346 346 345 343 341 340 339 338 336 335 335 334
319 322 323 323 324 325 327 329 330 331 332 334 337 339 340 341 342 343 343 344 346 347 349 350 350 350 350 350 350 351 352 353 353 354 354 354 353 353 354 354 354 353 352 351 352 351 350 350 349 348 346 345 344 344 343 342 341 335 327 330 336 335 335
318 321 323 324 324 325 327 328 330 331 332 333 336 338 340 342 343 343 344 344 346 347 349 350 350 350 350 350 351 352 353 353 353 353 353 354 354 354 354 353 353 353 352 351 351 351 350 349 348 348 347 345 344 343 343 343 341 328 325 327 330 335 334
317 319 322 323 324 325 327 328 329 331 332 333 335 338 340 341 343 343 343 344 345 347 349 350 350 350 350 351 352 352 353 353 353 353 353 354 353 353 353 353 353 352 352 351 350 350 350 348 347 348 347 347 345 343 343 342 331 325 324 326 326 330 336
318 319 320 321 324 325 326 328 330 331 333 334 335 337 339 341 342 343 344 345 346 348 349 349 350 350 350 351 352 353 353 353 353 353 353 353 354 354 353 353 352 351 351 350 350 350 348 348 347 347 347 347 345 344 343 342 330 324 323 325 325 326 332
321 320 320 322 324 326 327 329 331 332 334 335 336 338 339 341 342 344 345 346 346 346 347 349 350 350 350 351 352 353 353 353 353 353 353 354 354 354 353 352 351 351 351 351 350 349 348 348 347 347 346 346 346 345 344 343 328 323 321 322 323 325 329
323 325 325 324 323 325 327 328 330 332 333 335 337 338 339 340 342 344 344 345 345 346 346 348 349 350 350 351 352 353 354 354 353 353 353 354 354 353 353 352 351 351 351 350 349 349 348 347 346 347 346 346 346 345 344 345 327 321 319 319 321 323 326
317 319 322 325 325 327 327 329 330 332 333 337 338 338 339 339 342 342 343 345 345 345 346 347 347 348 350 350 352 353 354 354 353 353 353 353 353 353 352 352 351 350 350 350 349 349 349 348 348 347 346 346 346 345 344 345 324 320 318 318 319 322 331
327 326 322 318 323 328 330 332 331 333 336 337 338 338 339 340 341 342 343 343 344 345 345 345 346 347 348 350 351 353 354 354 353 353 353 353 353 352 352 352 351 351 351 349 348 347 347 348 347 347 346 346 346 345 345 345 325 318 317 317 318 321 333
333 332 331 331 325 324 329 332 333 334 334 335 337 339 340 340 341 341 341 342 343 344 344 344 345 346 348 349 351 352 354 354 354 353 353 353 352 352 353 353 353 352 351 349 348 347 347 347 347 347 347 346 345 346 345 345 324 316 315 316 316 322 333
333 334 334 334 333 335 335 331 333 334 335 334 335 338 339 340 341 341 340 341 342 343 343 343 344 345 347 348 350 352 353 354 354 354 353 352 353 353 352 352 352 352 352 350 349 348 348 347 346 346 346 346 346 337 342 345 325 313 315 315 315 323 335
331 333 334 335 336 338 337 338 335 335 335 335 336 336 338 339 340 341 341 341 342 342 342 343 345 346 347 349 350 351 353 354 354 354 353 353 353 353 353 353 353 352 351 350 350 348 347 347 346 345 345 345 346 345 344 343 331 320 314 314 314 318 335
331 332 333 334 336 340 336 338 339 336 336 337 339 339 338 339 339 339 341 342 341 341 343 344 346 346 347 347 349 350 352 353 354 353 354 354 353 354 353 353 352 352 351 350 350 348 347 346 346 345 345 345 345 345 344 342 333 324 313 313 313 315 323
331 332 335 335 339 338 337 336 337 339 340 339 340 342 342 340 339 339 340 340 341 343 345 345 345 346 346 346 347 349 351 353 354 355 354 354 354 353 352 353 353 352 352 351 349 347 346 346 345 345 343 343 343 343 342 341 332 330 314 313 312 313 317
330 331 332 333 334 336 337 334 334 337 339 342 341 342 345 345 340 339 339 339 341 345 346 346 346 346 346 346 346 347 349 352 353 353 355 354 353 353 352 352 352 352 351 350 348 347 345 344 343 342 340 339 339 340 340 340 335 324 322 312 311 310 314
331 332 333 335 335 334 335 332 333 335 338 337 338 342 344 346 344 343 341 340 342 343 344 343 344 344 344 344 345 345 347 350 352 353 355 354 353 352 352 351 351 351 350 349 347 346 344 342 341 340 338 337 336 337 338 337 336 323 319 317 311 310 311
330 331 332 332 333 335 333 331 331 334 335 336 335 337 339 343 345 344 343 344 345 346 346 344 343 343 343 344 344 344 345 348 350 352 354 354 354 352 351 351 351 349 349 348 347 345 343 341 339 338 336 335 334 335 334 334 334 330 323 317 312 311 311
326 329 331 331 332 332 333 331 332 332 333 335 337 338 338 339 342 344 345 346 347 349 348 346 343 342 342 342 342 343 343 345 347 350 353 354 355 354 353 352 350 349 347 347 346 344 341 338 336 335 334 333 333 333 333 333 331 328 324 320 316 315 312
322 325 327 328 330 332 332 331 331 332 334 335 338 339 339 338 339 341 343 343 349 352 350 346 344 343 342 342 343 343 343 344 345 348 351 353 354 354 353 352 350 348 345 346 344 342 339 336 334 334 333 332 332 334 334 331 327 324 321 319 318 318 317
322 324 327 330 332 333 332 332 332 333 334 335 337 339 338 336 337 337 339 343 348 353 351 347 345 344 344 344 344 344 344 344 347 348 349 352 353 352 351 351 350 347 345 344 342 339 337 336 335 333 333 333 333 334 332 329 325 322 319 318 319 318 318
323 325 328 330 332 333 333 333 333 334 335 336 338 338 336 335 336 337 338 341 345 348 349 348 343 345 346 346 346 346 345 346 346 347 349 349 348 349 351 349 347 346 346 346 344 342 339 337 337 336 336 335 334 333 330 328 325 323 316 321 315 318 320
323 325 327 330 332 332 333 335 335 335 335 336 338 338 336 336 336 337 340 342 344 344 345 344 344 345 346 347 347 347 346 346 347 348 347 346 341 333 320 316 320 337 345 340 335 329 326 326 336 337 337 337 336 336 332 330 330 316 308 306 306 307 311
322 324 327 331 331 332 332 334 336 335 334 334 337 338 338 337 337 337 338 338 339 342 340 340 341 342 344 344 346 344 346 346 346 345 343 343 341 338 332 322 312 297 302 327 326 318 313 314 314 320 326 335 335 330 324 321 311 305 304 302 303 304 305
321 324 327 330 331 331 332 332 333 335 335 335 336 336 337 338 338 337 337 337 337 338 339 340 341 342 342 343 342 341 342 345 343 339 339 339 339 336 329 324 319 316 302 298 308 313 310 310 311 313 315 318 324 325 322 310 306 303 302 302 302 302 302

ECMWFFLT1_sfc_thetae_024.txt.gz
Theta_e
326 328 329 330 330 330 331 332 332 333 333 334 334 336 338 340 341 342 342 343 343 343 344 345 346 348 348 348 348 349 350 350 349 349 348 348 348 348 348 349 350 350 351 352 353 355 357 358 357 356 355 355 355 354 353 353 351 349 346 345 344 343 342
323 326 328 329 329 330 331 332 332 333 333 334 334 335 337 339 341 342 342 343 343 344 344 345 346 347 348 348 349 349 349 349 350 350 349 349 350 350 350 350 350 350 351 353 353 355 357 358 357 355 354 355 355 354 353 351 350 348 345 344 342 341 341
321 324 326 328 329 329 331 332 332 333 333 334 335 335 336 338 341 342 343 343 343 344 345 345 346 347 348 348 348 348 348 349 349 349 348 348 348 349 350 351 351 351 352 353 354 354 356 357 357 356 355 354 354 353 353 350 349 346 345 343 342 341 340
320 322 324 327 329 330 331 332 332 333 333 334 335 335 336 338 340 342 343 344 343 344 344 345 346 346 347 348 348 348 348 349 349 349 349 349 349 350 350 351 351 352 352 352 354 354 355 357 356 356 356 354 354 353 352 350 347 345 344 343 341 341 340
320 321 323 324 326 328 330 331 332 333 333 334 335 337 337 338 339 341 343 344 344 344 344 345 346 347 348 349 348 348 348 348 349 349 349 350 350 351 350 350 351 351 352 353 354 354 354 355 355 355 355 354 353 353 351 350 347 345 343 342 341 341 340
320 320 321 323 325 327 329 330 332 333 333 333 334 335 336 337 338 339 342 344 344 345 346 346 346 348 348 348 349 349 349 349 350 350 350 350 350 350 350 351 351 352 352 352 354 354 354 354 354 354 354 354 353 352 351 349 347 344 343 341 341 340 340
321 321 321 322 324 325 327 329 331 333 334 335 335 336 337 337 338 339 340 342 344 344 344 345 346 347 348 349 349 350 349 349 349 350 350 350 351 351 351 351 352 352 353 354 353 353 353 353 354 354 354 353 353 351 350 347 345 343 342 340 340 340 340
321 322 322 323 323 324 326 328 330 332 334 335 335 335 335 337 338 338 339 341 343 344 345 345 345 346 347 349 349 349 349 349 350 350 351 350 351 351 351 352 352 353 353 352 353 353 353 353 353 353 353 353 352 351 350 348 346 342 341 340 339 339 339
321 322 323 323 324 324 325 327 329 331 333 334 335 335 336 337 337 338 339 340 342 343 344 345 346 347 348 348 349 349 350 350 350 350 350 350 350 350 351 352 352 353 352 352 352 353 353 353 353 353 353 352 351 351 349 348 346 343 341 340 340 339 338
320 321 323 324 325 325 325 326 328 330 332 333 334 335 336 337 338 339 339 340 342 343 344 345 346 347 348 348 348 349 350 350 351 350 350 350 350 350 351 352 352 353 352 352 353 352 353 353 353 352 352 351 351 350 349 347 346 344 341 340 340 339 339
319 321 322 323 324 325 326 325 326 328 331 332 334 335 336 337 338 339 339 340 341 343 344 345 347 347 347 348 348 348 349 349 350 350 350 350 350 351 351 352 352 352 352 352 352 352 352 353 353 352 351 350 350 349 349 347 346 344 342 340 340 339 338
320 320 321 322 323 325 325 326 327 328 329 331 333 334 336 337 338 339 340 341 342 343 344 345 347 347 347 348 348 348 348 349 349 349 350 350 351 351 352 352 352 352 352 352 351 352 352 352 352 351 351 351 350 350 349 348 346 345 343 341 339 338 338
319 320 321 321 323 324 326 327 327 327 329 330 332 334 336 336 338 339 340 341 342 343 344 346 347 348 347 348 348 348 349 349 349 350 350 351 351 352 352 352 353 352 352 352 352 351 351 351 351 352 351 351 351 350 349 348 346 345 344 342 340 338 337
326 320 320 323 324 324 325 327 328 328 328 329 331 334 335 337 338 339 340 341 342 343 344 346 347 347 348 348 348 348 349 350 351 351 351 351 352 352 353 353 353 353 353 353 352 351 351 351 351 351 351 351 350 350 350 348 346 345 344 343 341 339 338
312 314 318 319 322 323 324 325 327 328 329 329 331 332 335 336 338 340 341 342 343 343 344 346 347 347 348 348 348 349 350 351 352 352 352 352 352 352 352 353 353 354 353 353 352 352 352 352 351 351 350 351 350 350 349 348 347 345 344 342 341 340 338
310 312 314 317 320 322 324 326 327 329 330 330 331 332 334 336 338 339 340 341 342 343 345 346 346 347 347 348 348 349 351 351 352 352 352 352 352 352 352 353 353 353 353 353 352 352 352 351 351 351 350 349 349 349 349 348 347 338 328 332 341 340 339
311 312 313 317 320 321 324 326 327 328 330 331 331 332 334 336 338 339 340 341 342 343 345 346 346 347 347 348 349 350 351 351 352 352 352 352 352 352 352 353 353 353 353 353 352 352 352 351 350 350 350 350 349 348 348 348 346 330 326 328 330 339 340
312 313 314 316 319 321 323 325 326 327 329 331 332 333 334 336 338 339 340 341 342 343 345 346 346 346 347 348 349 350 350 351 351 352 352 352 352 352 353 353 353 352 352 352 352 352 352 351 350 350 350 350 349 348 348 348 334 327 325 326 326 331 340
314 314 315 317 320 323 322 324 326 328 329 331 332 334 335 337 338 339 340 342 343 345 345 345 346 347 347 348 349 350 350 351 351 351 352 352 352 353 353 353 352 352 352 352 352 352 351 351 351 350 350 349 348 348 348 348 334 326 324 325 325 326 333
317 319 320 321 319 321 323 325 327 328 329 331 333 335 337 339 339 340 342 343 344 344 345 345 346 347 347 348 349 350 350 351 351 351 351 352 353 353 353 352 352 353 353 353 353 352 351 351 351 351 350 350 349 348 348 348 332 324 322 323 323 325 330
318 320 321 321 322 322 323 325 327 328 329 330 332 334 337 338 340 341 342 343 343 344 345 345 346 346 347 348 349 350 350 351 351 350 351 352 352 353 352 352 353 353 353 353 352 351 351 351 350 350 350 350 350 349 348 348 328 321 320 320 321 323 326
327 326 326 326 322 321 324 325 326 328 329 334 335 335 336 338 340 341 342 343 343 344 345 346 346 346 347 348 349 350 351 351 351 351 351 352 352 352 352 352 352 352 353 353 353 353 352 352 352 350 350 350 350 349 348 348 324 320 319 319 319 321 333
331 330 330 331 331 328 328 328 328 329 333 334 334 335 336 337 340 341 342 343 343 344 344 345 345 346 347 348 349 350 351 351 351 351 351 352 351 351 352 352 352 353 354 353 352 352 351 351 351 351 350 350 349 349 348 349 327 319 317 317 317 321 336
332 332 332 333 335 336 336 336 332 333 332 333 334 336 337 337 339 341 342 343 343 343 344 344 345 346 347 348 349 350 351 352 352 352 351 351 351 351 352 353 354 353 354 352 352 351 352 352 351 352 351 349 349 349 348 349 329 316 316 316 315 323 337
331 332 332 333 335 335 335 338 337 333 335 334 334 336 338 338 339 340 340 342 343 343 343 344 345 346 347 348 350 351 352 353 353 352 352 352 352 352 352 353 353 354 354 353 353 352 353 352 351 351 351 350 350 337 345 349 332 314 315 314 314 324 338
329 330 332 334 336 337 337 338 341 338 333 335 336 337 338 338 338 339 339 341 342 342 343 344 345 346 348 349 350 351 352 353 353 353 353 352 353 353 353 354 354 354 353 353 353 352 352 351 351 350 350 350 350 349 347 348 341 322 314 313 313 318 338
331 332 332 334 335 337 334 335 338 340 340 339 338 338 339 339 338 338 339 340 341 341 343 345 346 347 348 349 350 351 352 353 353 353 354 354 354 354 354 354 354 354 353 353 353 352 351 350 350 350 350 350 350 349 348 349 342 326 312 312 313 315 324
331 332 333 334 336 335 333 333 336 338 339 340 340 339 339 340 339 339 339 339 339 341 344 346 347 348 348 348 349 350 352 353 354 354 354 354 354 353 353 355 355 354 354 353 352 351 350 350 348 348 349 349 349 349 348 346 332 329 314 313 312 313 317
329 329 329 330 331 334 333 331 333 334 336 338 339 341 341 341 339 339 340 339 341 343 344 346 346 347 347 347 347 349 350 352 353 353 354 354 354 353 353 354 354 354 354 353 352 351 350 349 348 347 347 347 347 348 348 348 336 324 323 313 312 311 313
328 329 330 331 332 333 334 331 331 332 335 336 338 338 339 342 341 340 339 340 344 348 349 345 345 346 345 345 346 347 349 350 352 353 354 354 354 353 353 353 353 353 353 352 351 350 349 349 348 347 345 344 344 345 345 345 340 325 319 320 312 311 311
326 328 329 330 331 334 333 331 331 332 333 335 337 338 338 339 340 341 340 342 345 344 345 345 345 344 344 345 345 346 348 349 351 352 353 355 354 353 352 353 353 352 352 352 351 350 349 348 347 346 345 344 342 341 341 340 338 332 324 318 313 312 311
328 330 331 332 333 334 334 334 334 334 333 335 337 338 338 338 338 337 338 341 343 346 345 344 344 344 344 344 345 345 346 347 349 351 352 353 354 354 353 353 352 351 352 351 351 350 349 347 346 345 344 342 341 339 339 339 338 336 331 322 318 316 312
328 329 330 331 333 334 334 334 333 333 334 334 337 338 338 338 338 338 339 340 342 345 348 347 344 343 344 344 345 345 345 345 346 348 350 352 353 354 353 353 353 352 350 351 351 350 349 348 345 344 343 341 340 340 339 338 338 336 330 326 324 323 318
327 329 331 332 333 334 334 334 334 334 334 335 337 339 339 338 338 338 339 341 343 345 346 347 346 344 344 344 345 344 345 344 346 347 348 350 351 351 352 352 352 351 350 350 350 349 348 347 344 343 342 341 340 339 337 336 336 334 330 325 324 323 321
327 329 331 331 332 334 333 334 334 335 335 335 337 339 338 339 339 340 340 340 342 343 344 345 344 346 345 345 345 344 343 344 344 345 347 348 351 352 353 352 352 352 352 354 354 352 350 348 347 345 345 343 340 337 334 335 333 333 322 326 317 321 323
327 329 330 332 333 333 333 334 334 335 335 335 337 337 338 338 338 339 339 340 340 340 342 343 344 346 347 347 346 345 345 343 344 344 344 346 348 350 351 342 331 341 352 351 339 334 331 332 346 347 346 344 342 340 337 334 335 318 310 309 308 308 312
327 328 329 331 331 332 332 333 334 334 334 335 336 337 337 338 337 337 337 337 336 338 339 340 342 343 344 345 346 344 345 345 345 345 345 345 346 348 348 345 333 313 312 323 332 326 318 319 323 323 329 338 339 335 326 323 314 308 308 306 306 305 306
326 327 329 330 331 331 331 331 332 332 333 334 335 335 336 337 337 337 337 336 334 335 335 335 337 337 337 338 338 337 340 343 345 345 345 344 345 347 347 344 341 334 310 307 315 318 313 312 311 314 317 320 326 327 330 314 309 304 303 303 303 304 304

ECMWFFLT1_sfc_thetae_027.txt.gz
Theta_e
336 336 337 338 338 338 339 341 343 342 344 345 345 345 346 348 349 352 352 353 354 355 357 358 357 358 358 358 359 360 360 360 360 358 357 357 357 358 358 358 359 361 360 360 362 363 367 367 366 365 364 364 363 363 363 363 364 363 364 362 361 361 360
334 335 336 337 338 339 340 342 344 343 343 344 345 346 345 347 350 350 351 354 354 354 356 356 357 357 357 358 359 360 360 360 360 359 359 358 359 359 360 360 359 361 362 362 363 367 368 367 367 366 365 364 363 364 362 363 364 364 363 361 359 358 359
333 334 336 337 337 338 340 342 343 343 343 343 344 344 345 348 350 350 352 351 353 354 356 356 357 357 357 358 359 359 359 359 359 358 357 356 357 355 358 360 361 360 361 363 365 365 367 367 367 366 365 364 363 363 363 362 363 362 363 362 359 359 358
332 333 335 337 339 340 341 341 342 342 342 343 343 343 345 348 349 351 352 351 352 353 353 355 355 355 356 357 358 358 358 359 359 358 357 357 357 357 358 359 360 360 360 361 362 363 364 366 366 366 364 364 364 364 363 362 361 362 362 361 359 359 359
330 333 334 336 337 339 339 340 341 342 341 342 343 346 347 347 347 349 350 351 351 351 352 354 353 355 356 357 357 357 358 358 358 358 358 358 359 359 358 357 357 358 359 361 362 363 364 365 364 363 362 361 363 363 362 362 361 362 361 361 359 358 357
328 331 332 334 335 337 338 339 339 340 341 341 342 343 344 344 345 345 347 350 350 351 354 354 354 355 355 356 356 356 358 359 359 359 359 359 359 358 357 357 357 358 357 360 361 362 363 363 363 362 360 360 360 361 361 361 360 361 360 359 359 358 356
329 331 330 332 334 336 337 338 339 340 341 341 342 343 343 343 343 344 346 347 348 350 351 351 352 353 355 355 355 357 357 357 358 358 358 358 359 358 358 358 359 358 359 362 360 361 362 362 363 363 361 361 362 362 362 361 360 360 360 358 358 358 357
331 332 333 333 333 334 336 338 339 340 341 342 341 341 342 342 343 343 344 345 347 348 349 349 350 353 354 355 355 355 356 356 356 357 357 357 357 358 358 358 359 360 361 360 361 362 361 362 363 363 362 362 363 363 363 362 360 358 358 357 357 357 355
330 335 333 331 332 332 334 338 339 339 341 342 341 342 341 342 341 342 343 345 346 346 348 349 350 352 355 355 356 356 356 356 356 357 357 356 356 355 356 357 359 360 360 359 359 362 361 362 362 363 364 363 362 363 363 362 359 360 357 358 357 356 354
330 334 337 334 333 331 334 336 340 342 343 343 343 344 342 341 342 342 343 344 345 346 347 349 349 352 354 354 354 355 356 356 356 355 355 354 355 355 355 356 357 359 359 359 358 360 361 363 363 364 364 362 362 362 362 361 358 358 358 358 357 356 355
330 336 337 334 335 335 336 334 337 340 342 343 343 342 343 343 343 342 342 343 344 345 347 349 350 351 352 352 352 353 354 354 355 354 354 354 354 354 355 355 356 358 358 358 358 360 361 362 363 363 363 362 363 362 361 359 359 358 358 358 357 356 355
332 333 337 338 339 338 335 337 340 340 342 343 344 342 344 344 342 342 343 344 344 345 347 348 350 350 351 351 351 353 353 354 354 353 354 354 354 354 355 355 356 357 357 358 358 360 360 361 361 362 362 363 363 363 362 361 360 359 359 357 356 356 355
329 334 336 334 338 339 342 343 342 340 341 342 341 343 343 343 342 342 345 345 344 345 346 348 350 352 351 351 350 353 354 353 354 355 354 355 355 356 356 355 356 356 357 358 358 358 359 361 361 362 362 363 363 362 363 361 359 360 360 358 357 355 355
330 328 331 334 335 337 339 342 343 342 342 342 341 343 342 344 343 344 345 344 344 345 346 348 350 352 352 352 351 353 353 354 356 357 357 357 358 358 357 357 357 358 359 359 358 358 359 360 360 362 362 362 362 363 363 361 360 361 361 359 357 355 354
324 324 329 331 337 339 339 339 342 343 341 342 341 341 342 343 344 347 348 346 347 345 346 350 351 352 352 353 353 354 356 357 358 359 359 359 359 358 358 358 359 359 360 360 359 359 360 360 360 361 360 361 362 362 361 359 359 360 359 358 357 356 354
324 324 324 327 333 335 340 341 342 344 344 344 341 344 341 343 345 344 344 345 346 347 347 349 352 353 351 351 354 357 358 359 360 360 360 359 359 360 360 359 360 360 360 361 360 360 361 361 361 360 360 359 360 361 359 357 358 347 333 338 356 356 354
327 328 326 328 332 334 338 341 341 344 345 345 344 343 343 344 344 344 343 344 344 347 347 349 353 350 350 351 354 356 359 359 359 359 359 359 360 360 360 360 360 360 360 360 360 360 361 360 359 358 359 359 358 357 357 356 354 334 330 331 335 351 355
329 332 332 328 328 330 334 336 339 340 342 341 341 342 343 344 344 344 342 344 345 346 347 348 349 349 352 354 357 359 358 358 359 359 358 359 359 360 360 360 360 360 360 359 359 360 360 359 359 360 359 358 358 358 357 356 338 330 329 329 329 334 354
329 331 333 333 332 332 330 330 334 340 339 340 341 340 341 344 343 344 345 346 347 349 347 347 348 351 352 355 356 358 359 360 359 359 359 359 359 360 360 360 360 359 359 358 360 360 359 359 358 358 358 358 357 355 356 356 337 329 327 327 327 327 339
328 329 331 332 333 333 336 336 335 335 338 342 343 341 341 343 342 346 346 348 351 350 351 351 350 352 354 357 358 359 359 359 358 358 359 360 360 360 360 359 359 359 360 360 360 359 357 357 357 358 357 357 356 356 357 357 336 327 325 325 324 326 332
336 336 339 340 340 339 339 339 339 340 340 338 338 342 343 342 343 346 346 348 348 352 353 354 353 353 355 356 358 359 359 360 359 359 360 360 360 360 359 358 359 359 359 358 358 358 357 356 356 356 357 357 357 356 356 356 332 324 323 322 321 323 327
338 339 338 341 342 344 345 343 340 337 338 341 340 340 342 342 342 342 343 345 347 350 353 354 354 354 357 357 358 358 359 359 359 360 360 360 360 359 358 359 359 359 360 359 358 358 358 357 357 357 357 357 357 356 354 356 328 323 322 320 320 321 338
339 340 340 342 342 342 345 346 347 346 342 340 339 339 340 341 342 342 343 344 346 354 352 353 354 354 357 356 356 357 359 359 359 359 359 359 359 358 358 359 359 360 360 358 357 356 356 357 357 358 357 357 356 355 354 356 336 321 319 318 318 323 343
338 340 340 341 343 344 347 347 348 348 343 339 340 340 342 342 344 347 349 348 347 349 351 353 352 354 356 355 356 357 358 359 359 359 358 359 358 358 358 359 361 360 360 358 357 355 356 357 357 358 358 356 356 355 355 356 337 317 317 317 316 326 344
337 338 340 341 341 342 344 347 350 348 344 341 339 343 348 348 348 350 350 351 350 352 353 351 351 353 354 355 357 360 360 360 360 360 359 359 359 359 359 359 360 361 360 359 359 358 359 357 356 356 356 356 356 342 350 356 338 315 317 315 314 328 348
336 337 339 340 342 343 345 349 353 347 342 340 345 349 350 349 351 349 351 352 351 348 348 350 352 356 357 357 359 359 360 359 361 361 360 360 360 361 360 361 360 360 360 359 359 357 357 357 356 356 356 356 357 356 355 355 356 330 315 314 313 318 346
335 336 337 338 339 342 344 347 349 348 347 351 353 348 349 351 349 350 353 353 352 349 349 353 357 359 360 360 357 357 360 361 360 359 361 361 361 360 360 360 360 360 360 358 358 358 357 357 356 356 356 356 356 356 356 356 357 337 313 313 313 315 327
334 334 336 337 339 340 343 345 347 348 348 350 350 348 349 351 351 352 353 352 351 354 354 357 357 358 359 359 357 357 359 359 360 361 361 361 361 361 359 360 361 360 360 359 358 357 356 357 357 356 356 356 356 357 356 349 341 347 315 314 312 314 317
331 331 332 335 338 339 340 343 343 343 345 346 347 349 348 347 350 351 352 351 354 355 356 357 358 360 359 360 358 358 359 360 361 361 361 361 362 360 359 361 360 360 361 360 358 357 357 357 357 357 356 356 356 357 357 358 352 329 327 313 312 312 314
331 333 334 336 337 337 338 340 341 341 342 343 345 346 350 355 351 351 352 355 355 356 354 356 359 360 358 359 359 360 359 360 360 362 362 362 361 360 360 360 360 360 361 361 358 356 355 355 357 356 354 353 354 356 356 358 357 329 321 321 312 312 312
331 333 334 334 335 337 337 338 338 340 341 342 343 343 345 349 352 351 349 350 354 358 358 355 356 357 357 357 357 359 360 361 362 362 362 362 362 361 360 361 361 359 360 360 358 357 355 355 355 354 353 353 352 355 358 358 358 344 325 318 313 313 312
332 334 334 336 337 337 337 338 338 339 339 340 342 342 342 343 344 342 343 348 351 356 359 359 356 355 355 356 358 359 359 359 359 361 362 362 362 362 362 361 359 358 358 358 357 356 355 354 354 353 354 352 352 354 356 357 357 349 337 324 319 317 314
331 333 333 334 336 338 337 337 337 337 338 338 341 342 342 342 342 343 345 346 348 352 354 359 358 355 355 356 356 358 358 357 355 356 358 361 361 361 361 360 360 358 357 357 356 356 354 354 355 354 353 353 353 354 355 355 353 349 343 336 332 330 327
331 332 333 334 336 337 338 337 337 337 338 338 341 342 342 342 342 343 344 345 347 350 352 354 356 356 357 355 356 356 357 357 356 354 354 356 358 357 358 360 360 359 358 357 356 355 355 355 354 353 353 353 354 354 356 351 349 347 343 339 338 336 334
331 332 333 333 334 336 335 337 337 338 338 339 342 342 342 341 342 343 343 344 345 347 348 348 350 354 356 357 357 357 355 354 354 353 354 356 359 360 361 360 360 359 360 363 362 360 357 357 356 355 357 355 355 354 351 347 345 346 331 340 329 334 335
332 333 333 335 336 336 336 337 338 338 338 339 341 341 340 341 341 341 342 344 344 345 344 345 347 348 349 350 352 352 354 356 353 353 352 352 354 357 360 346 332 347 362 360 341 334 331 332 355 359 359 357 357 358 353 349 348 330 319 319 317 317 318
330 331 332 334 334 334 336 337 338 337 337 339 340 339 340 340 341 341 340 342 344 344 343 344 343 343 343 343 344 342 346 348 349 352 354 354 353 353 352 354 357 320 316 324 332 328 319 314 317 321 328 352 360 352 333 334 327 313 313 314 311 310 309
331 331 331 332 333 333 334 335 336 337 337 339 340 340 341 340 341 341 341 342 342 343 343 343 342 341 341 343 345 344 346 346 345 346 347 347 349 351 351 351 352 356 328 316 317 316 309 310 311 313 314 319 333 344 354 327 313 309 310 310 308 306 306

ECMWFFLT1_sfc_thetae_030.txt.gz
Theta_e
339 341 343 345 346 346 347 349 352 351 352 354 355 356 356 357 358 360 360 362 363 365 365 366 365 364 364 363 364 366 367 366 367 366 365 365 364 364 364 363 364 364 363 362 364 364 367 369 368 369 370 372 370 369 370 371 370 368 368 368 367 365 365
336 338 340 343 345 346 348 350 352 352 352 354 355 357 356 357 358 359 360 362 363 364 365 365 366 365 364 364 364 365 365 367 368 368 367 366 366 365 365 366 365 365 366 365 365 368 368 369 369 369 369 371 370 370 368 369 368 368 367 368 365 364 364
336 337 340 342 344 346 348 349 351 352 353 352 354 355 356 358 360 360 360 361 363 364 366 365 366 365 365 364 365 365 366 366 366 365 364 364 366 363 366 367 366 364 366 366 367 367 369 370 371 371 370 369 368 369 370 370 369 367 369 369 366 363 364
336 337 340 343 346 348 349 349 350 351 351 353 353 354 356 359 360 361 360 361 362 363 364 364 365 364 365 365 365 366 365 366 366 365 364 366 367 366 365 366 367 366 365 365 365 366 368 370 371 371 371 369 369 368 369 367 367 368 368 369 366 364 364
336 338 340 342 344 346 347 348 349 351 350 351 353 357 358 358 358 359 360 360 360 362 362 363 363 364 365 366 364 364 366 367 366 366 366 368 368 368 365 364 365 365 364 366 367 367 368 370 370 370 371 370 370 369 368 368 366 368 368 368 364 364 361
333 337 339 341 343 344 346 347 348 349 350 350 352 354 355 355 356 356 358 359 360 361 363 364 364 365 364 364 364 364 367 367 366 367 366 367 367 365 365 365 365 365 363 365 366 366 368 369 369 369 368 368 367 365 367 366 364 366 367 367 365 363 360
330 337 339 341 342 344 346 347 347 348 350 350 351 353 354 353 354 354 356 357 359 359 360 360 360 362 364 364 364 365 365 365 366 366 365 367 367 366 366 366 366 365 365 367 366 367 367 368 368 369 369 367 367 366 367 367 365 366 367 366 364 364 364
329 334 341 342 341 343 344 347 348 348 350 351 349 350 351 351 352 353 354 355 356 356 358 358 358 361 363 364 363 364 365 365 366 366 367 366 366 365 365 365 365 366 367 365 366 368 366 368 368 368 368 367 367 368 367 367 367 365 365 365 363 363 363
330 338 341 340 341 341 343 347 349 348 349 350 349 350 350 351 350 352 353 353 355 354 355 356 357 359 363 363 363 364 365 365 365 366 366 364 363 362 363 364 366 366 365 364 363 368 367 367 368 368 369 368 367 368 367 368 366 366 365 365 364 363 363
332 340 344 341 341 339 343 344 348 350 349 349 350 351 350 350 351 351 351 352 352 353 353 355 356 358 361 362 362 363 364 364 364 363 363 362 362 362 362 363 364 365 364 364 363 364 367 368 368 369 370 369 368 368 369 369 366 365 365 365 365 365 365
338 342 344 341 340 341 342 341 345 349 350 354 352 349 351 350 350 350 350 351 351 351 353 354 357 357 359 360 359 360 361 361 362 361 362 361 361 361 362 362 362 364 364 363 363 363 367 367 368 369 369 368 368 368 369 369 367 364 363 364 366 367 366
342 340 344 345 344 342 340 343 346 351 353 353 351 349 351 352 350 349 350 351 351 351 353 353 355 356 357 359 358 359 360 361 360 359 361 360 361 360 361 361 361 362 363 364 363 364 364 367 367 367 369 370 369 369 369 370 368 365 364 362 364 366 367
337 341 342 340 345 345 346 346 346 350 354 351 349 350 350 349 350 349 351 351 351 351 352 354 355 357 356 357 358 359 359 359 360 360 359 361 360 361 360 360 359 360 361 363 363 363 363 366 368 368 369 370 370 369 370 369 368 366 365 364 365 366 367
343 334 339 341 345 348 348 348 349 350 354 351 349 350 350 350 349 350 350 350 351 350 351 352 355 355 356 357 358 359 358 359 362 363 362 362 364 362 361 362 361 362 363 364 363 362 363 364 367 368 368 369 370 370 370 370 367 367 365 364 364 365 367
325 326 337 343 348 350 351 350 352 352 350 350 347 348 349 348 349 350 351 352 352 350 350 353 354 355 355 357 358 360 361 362 363 363 363 363 364 363 363 362 363 364 363 365 365 364 364 365 366 367 367 368 369 369 369 368 367 365 364 363 363 364 364
324 322 323 328 347 350 353 352 353 354 353 352 347 348 347 348 351 349 349 350 350 351 350 352 354 356 356 356 358 361 363 363 364 364 364 364 364 364 364 364 364 363 364 364 364 366 365 366 366 366 366 366 367 368 368 367 368 352 336 342 362 364 363
322 323 327 332 342 345 350 354 352 355 355 353 351 348 348 349 350 349 348 348 349 351 351 351 355 355 356 357 359 362 364 364 364 366 365 365 364 366 365 364 364 364 364 364 365 366 367 365 365 365 366 366 366 366 366 367 364 338 332 333 337 358 365
325 326 327 327 336 339 345 347 352 353 353 352 352 350 349 351 350 349 347 348 349 350 351 350 352 354 358 357 362 363 364 365 366 366 366 366 365 366 366 365 365 364 364 364 364 366 366 364 365 366 365 365 366 365 366 367 343 332 331 331 332 339 363
324 324 324 330 342 347 339 336 340 352 349 348 350 349 349 351 349 349 350 351 351 353 351 349 350 355 359 360 362 364 365 367 367 367 367 366 366 367 367 366 365 365 364 363 365 366 366 366 365 365 366 365 366 364 365 366 339 331 328 330 330 332 346
324 325 325 327 337 340 343 345 344 343 346 350 349 347 350 352 349 350 352 351 352 352 353 352 352 356 360 362 363 365 368 368 367 366 367 368 367 367 367 366 365 365 365 365 366 365 365 364 364 364 365 364 364 365 365 366 339 328 325 326 327 330 337
326 330 335 337 340 340 347 351 351 352 350 346 344 348 350 349 349 350 350 351 349 352 358 356 356 357 360 362 362 365 367 367 366 366 367 368 368 367 366 365 366 365 365 364 364 364 363 362 361 361 364 362 361 361 363 364 336 325 323 323 324 327 331
326 327 331 339 349 356 358 353 354 350 350 350 348 345 346 348 348 347 347 349 349 351 355 357 357 355 359 362 361 363 366 366 366 365 365 365 366 365 365 365 366 365 365 364 363 364 364 363 364 362 360 360 361 360 360 362 333 324 322 321 322 324 344
333 346 348 351 349 350 356 358 357 355 357 356 350 347 345 345 347 347 346 348 349 354 354 355 357 357 359 362 362 363 365 366 364 364 364 365 365 364 363 364 365 366 366 364 363 362 363 363 361 362 359 360 361 360 360 361 342 322 319 319 320 326 351
344 346 346 348 352 352 356 358 358 358 358 356 356 351 348 347 348 350 350 349 349 351 354 355 356 359 361 362 362 363 365 366 365 364 364 365 364 364 364 364 365 365 366 364 362 360 362 363 363 363 361 360 360 359 359 360 345 320 318 318 318 330 353
344 345 347 348 349 349 352 356 357 358 358 360 354 353 351 351 351 350 349 350 350 352 354 355 356 358 359 361 362 365 366 365 365 365 365 364 364 364 365 364 365 365 366 364 364 362 363 363 362 361 362 360 360 341 353 360 347 318 318 315 316 332 356
345 344 346 346 348 350 352 357 359 361 356 352 355 354 353 351 350 351 350 350 349 348 352 355 357 359 360 361 362 364 365 365 366 366 366 365 366 367 366 366 365 365 364 364 364 363 362 360 361 361 360 360 360 359 359 358 362 342 316 316 314 320 354
343 343 344 344 346 348 351 354 357 356 355 359 358 357 355 353 350 350 353 354 352 350 352 357 360 361 362 363 362 362 366 367 367 366 367 367 367 366 365 365 365 365 365 363 363 363 362 360 359 359 359 360 360 360 360 360 360 357 313 315 313 316 330
341 342 343 345 347 347 348 352 355 356 355 357 358 354 354 355 353 354 355 355 354 355 355 358 361 362 364 365 362 362 365 366 367 368 367 368 368 367 365 366 367 366 365 363 364 363 361 362 360 358 358 360 359 362 361 353 341 362 318 315 312 315 318
340 340 341 344 346 346 345 351 351 352 354 353 356 357 354 352 354 354 355 356 358 358 358 358 361 365 365 366 362 364 366 368 367 367 367 367 368 367 365 365 365 366 366 366 365 364 362 362 360 358 358 359 360 361 362 364 359 334 337 314 312 311 315
340 342 342 342 343 344 345 348 350 351 354 353 355 359 363 355 355 357 356 357 366 363 362 363 364 366 365 365 364 364 364 366 366 368 368 368 367 366 366 365 366 366 366 366 363 361 359 359 361 359 356 356 357 358 359 364 363 339 328 326 311 312 313
337 339 340 341 341 343 344 346 348 350 351 352 354 356 359 363 362 362 361 362 366 365 361 363 364 364 363 363 362 363 363 364 367 367 367 367 366 366 364 365 366 364 366 366 362 360 359 358 359 359 358 355 357 358 359 361 362 365 342 320 313 313 312
337 338 339 340 342 342 344 345 346 347 347 349 352 352 353 356 357 357 357 359 361 365 365 363 361 362 362 363 364 364 364 364 365 367 367 366 366 366 366 366 363 362 364 362 358 360 359 357 356 356 358 356 357 357 358 362 362 363 361 327 319 317 314
337 337 337 338 340 342 343 344 343 344 345 346 349 350 350 351 352 353 355 357 359 361 364 365 362 360 361 362 363 364 364 363 361 361 364 366 364 364 365 365 364 363 362 361 359 359 358 357 357 356 356 355 356 358 359 359 359 361 361 343 339 335 330
337 337 338 339 340 341 342 341 342 342 344 344 346 347 348 349 349 350 352 354 357 359 361 362 362 361 361 361 361 361 364 363 361 360 359 362 362 361 361 363 364 362 362 361 360 359 357 358 356 354 356 355 356 357 358 358 359 360 360 349 343 342 341
337 338 339 339 340 341 341 341 341 343 344 344 346 347 345 346 347 350 352 352 355 358 358 359 360 364 362 362 362 361 363 363 362 358 359 361 363 362 363 361 360 361 362 364 364 362 359 359 357 358 359 358 357 357 357 358 357 360 340 359 329 340 343
335 336 337 340 341 341 341 342 342 342 343 345 345 345 344 345 345 348 350 352 354 355 356 356 357 357 359 360 359 359 360 359 357 358 357 358 357 360 360 352 334 351 366 362 346 334 329 329 356 359 359 357 359 361 357 358 360 335 324 322 316 317 320
335 336 337 339 340 341 341 341 342 342 343 343 344 344 344 344 345 346 347 349 351 352 353 353 351 352 355 354 355 352 357 356 359 360 360 360 358 358 356 356 363 324 321 328 335 330 321 312 315 319 323 351 361 355 333 329 327 322 318 315 312 313 314
336 337 338 338 338 338 338 340 341 342 342 344 344 344 344 344 345 346 346 347 348 350 350 351 350 350 350 351 350 349 352 354 353 354 356 357 358 357 355 355 356 360 337 318 316 314 309 308 308 308 309 311 317 326 351 335 320 313 310 310 310 310 311

ECMWFFLT1_sfc_thetae_033.txt.gz
Theta_e
334 335 339 346 347 347 350 352 354 354 354 356 357 355 356 356 358 362 362 365 366 367 368 368 367 368 367 365 366 366 366 367 365 363 362 361 361 361 363 365 366 366 362 360 363 363 364 366 364 364 366 367 368 367 369 370 370 369 369 369 368 366 365
330 331 335 340 346 348 350 354 356 355 355 357 358 357 356 357 359 360 362 366 367 368 368 369 368 368 367 367 366 367 368 367 366 366 364 363 364 363 363 366 366 366 366 362 363 366 366 365 365 364 364 367 368 369 367 369 371 371 367 369 366 365 365
331 330 334 339 344 347 351 353 356 355 356 357 358 357 356 359 359 362 363 365 366 369 369 368 369 368 368 368 367 367 367 367 367 366 364 361 363 361 363 366 366 365 366 365 364 364 367 367 368 367 366 367 367 369 368 368 370 370 368 368 367 364 366
332 330 334 337 340 350 351 352 355 355 356 357 358 359 358 360 361 362 363 365 366 368 368 368 368 367 368 367 367 368 368 368 367 366 365 363 364 364 364 364 366 366 365 365 362 362 364 367 367 368 369 368 368 368 368 367 367 369 368 368 366 365 366
330 330 332 333 338 345 350 351 353 356 355 357 359 361 361 360 360 361 363 365 365 366 367 367 366 367 367 367 366 366 367 368 368 366 367 366 367 368 365 362 364 365 365 365 366 365 366 368 368 369 368 370 369 368 367 367 366 368 369 369 367 364 363
327 331 331 333 337 342 349 351 352 354 355 355 357 360 360 360 360 360 361 363 364 365 367 368 367 368 366 366 366 365 367 369 370 369 368 369 368 366 365 364 364 365 363 364 365 365 365 366 368 369 369 368 366 365 365 367 367 366 369 368 367 364 362
329 332 332 332 334 337 346 351 351 353 355 355 357 360 360 359 359 359 360 361 362 364 364 364 364 366 367 366 366 366 366 366 368 367 368 368 369 366 366 368 367 365 366 365 365 365 365 366 368 369 370 370 369 365 365 368 366 367 368 368 367 366 365
330 332 335 337 335 338 346 351 351 352 355 355 355 356 358 359 359 359 359 360 361 361 362 361 363 365 367 367 366 365 366 366 367 368 367 367 367 367 368 368 367 367 368 364 366 367 367 368 367 369 369 370 370 368 365 368 369 365 365 365 365 365 364
330 334 333 335 339 338 341 349 352 351 354 355 354 356 357 358 358 358 359 360 360 360 361 361 361 363 367 367 366 366 366 366 368 367 367 366 364 365 366 368 368 369 367 364 364 368 367 367 368 370 370 370 370 370 367 369 368 367 365 365 365 364 363
331 334 336 336 337 336 340 342 351 354 354 355 355 356 356 356 358 358 358 358 359 358 360 360 361 362 366 367 365 366 366 367 366 365 365 363 363 363 363 363 366 369 367 366 363 364 368 368 369 371 371 369 369 370 369 368 368 368 366 365 365 365 365
331 339 341 339 341 342 340 338 348 356 355 360 359 353 356 356 357 357 357 357 357 358 359 360 361 360 364 365 363 363 365 364 364 364 363 362 361 360 360 361 364 367 367 366 363 362 366 369 370 371 371 368 368 368 369 368 369 369 366 365 366 366 364
339 342 344 341 340 339 340 351 356 361 361 362 355 353 358 359 356 355 356 357 358 357 357 359 359 360 362 364 362 363 364 365 363 362 363 361 360 359 360 360 363 364 366 365 363 361 362 367 368 370 371 371 370 370 370 370 370 370 368 364 364 365 365
335 340 344 341 344 343 350 355 356 358 361 355 353 353 353 354 355 355 357 357 356 357 358 360 359 360 361 363 362 363 363 363 362 363 362 363 360 360 360 361 361 360 361 365 364 363 360 364 369 369 371 372 371 370 371 371 370 370 370 367 365 365 364
339 336 342 344 346 347 348 350 353 357 358 355 352 353 353 353 353 355 356 355 356 356 356 357 359 360 361 364 363 364 362 364 366 366 366 366 368 365 362 362 361 361 362 366 365 364 363 362 367 369 370 372 372 371 372 372 371 371 372 368 365 364 364
325 326 338 337 345 351 351 349 353 354 355 355 352 352 353 352 353 356 357 357 357 355 355 358 359 360 360 362 364 366 367 369 368 369 368 368 369 367 366 367 367 367 366 369 368 366 365 364 366 369 370 370 372 372 371 371 370 371 370 369 367 364 363
322 324 329 334 343 347 353 353 354 355 356 359 354 354 352 353 356 353 353 354 354 356 355 357 359 361 360 360 364 366 369 371 371 370 370 368 370 371 369 367 368 366 369 368 367 368 368 368 366 367 369 368 370 372 370 370 371 357 341 347 366 365 363
323 323 325 332 350 345 351 353 355 357 358 359 358 355 353 354 354 354 352 352 353 355 354 354 361 358 359 362 364 367 370 370 370 371 370 370 370 371 371 370 367 369 370 369 368 369 372 368 365 365 368 368 368 370 370 370 368 340 335 337 342 361 365
323 326 326 327 330 338 351 352 354 358 356 355 356 356 354 357 354 353 351 352 352 352 353 353 355 356 362 360 366 371 370 369 370 371 370 371 370 370 371 370 368 368 369 366 365 370 368 366 366 368 367 368 368 367 369 370 346 334 333 334 335 343 365
324 324 326 330 330 331 333 337 346 358 354 353 355 353 352 353 351 354 354 355 354 355 353 351 351 356 364 362 365 369 370 371 370 370 371 371 371 371 371 370 368 367 366 365 367 366 368 369 367 367 367 367 368 367 368 369 342 332 331 333 332 334 348
327 328 328 328 329 330 334 335 342 343 336 347 349 347 355 355 350 353 354 354 355 354 357 356 354 357 361 365 367 369 370 371 370 370 371 372 371 370 370 369 368 367 366 366 367 366 367 367 368 368 368 367 368 369 368 369 340 329 328 329 329 331 340
328 329 330 331 334 345 361 356 356 353 352 346 339 344 350 353 352 353 352 353 352 355 364 363 361 363 364 365 366 368 369 371 371 370 371 372 371 370 369 369 369 367 366 365 365 365 366 366 367 367 368 367 366 367 367 367 335 326 326 326 326 328 333
325 326 327 336 350 350 357 353 354 348 351 358 352 344 344 345 351 351 351 352 352 353 358 363 364 360 364 364 364 365 368 370 371 370 372 372 371 369 368 369 369 368 367 366 365 366 366 367 367 367 367 367 367 366 365 366 332 324 325 324 324 326 347
324 333 342 345 346 349 356 357 355 356 359 357 354 347 343 343 344 348 350 351 351 358 355 357 360 359 364 363 363 364 368 370 370 371 371 372 370 369 368 368 369 369 369 365 364 364 364 366 366 368 368 368 367 364 363 365 341 321 322 322 322 328 354
344 346 348 351 352 351 354 358 362 361 361 360 360 357 356 351 347 351 356 353 352 351 353 354 355 357 361 360 363 365 368 371 371 371 371 371 370 368 369 369 370 369 369 366 363 362 364 366 366 367 367 364 364 363 363 364 345 318 319 320 319 331 356
347 348 348 349 348 349 354 357 359 358 358 359 354 359 365 362 358 352 354 356 354 354 353 353 355 357 357 359 365 368 369 370 371 371 371 371 371 370 369 368 369 370 370 367 366 364 365 366 366 366 366 364 364 347 358 363 348 317 319 317 318 332 359
346 346 347 346 348 353 354 358 359 363 361 358 365 366 365 361 358 357 354 354 352 350 351 354 357 360 360 361 364 369 370 370 373 372 371 371 372 372 370 370 369 369 368 368 367 365 364 363 364 364 365 366 365 364 362 362 365 341 315 316 316 321 357
345 345 346 346 348 353 353 354 358 359 360 363 364 362 362 361 355 355 357 357 356 353 353 357 360 362 366 365 362 365 369 370 371 371 372 372 371 369 368 368 368 367 368 366 366 365 365 364 362 362 364 365 366 365 364 363 362 359 314 315 314 317 331
343 344 345 349 351 352 351 352 359 360 359 362 361 363 359 360 359 357 358 356 355 356 356 360 363 364 366 366 365 364 367 370 372 372 372 372 372 370 368 369 369 368 367 365 366 367 366 367 364 362 362 365 365 367 366 357 343 366 319 314 312 315 318
344 343 345 346 349 351 348 353 355 357 359 358 359 363 366 357 357 358 357 356 359 358 360 360 362 365 366 367 366 368 367 370 371 371 372 371 370 370 368 368 369 369 369 368 367 367 366 367 366 364 362 363 364 364 367 369 365 335 340 314 313 311 315
344 345 344 346 347 349 347 353 356 357 359 357 359 362 366 366 358 359 359 360 365 364 363 363 364 368 365 366 367 366 366 368 370 372 372 371 371 370 370 369 368 369 369 369 367 364 365 364 365 363 360 360 359 361 363 368 367 341 329 328 311 313 312
340 342 343 345 345 349 348 350 351 355 355 356 359 361 364 367 361 360 363 368 370 371 368 364 363 365 365 366 367 368 367 368 371 371 372 371 370 370 368 369 369 367 369 369 366 364 363 363 362 361 360 359 357 358 361 364 371 368 346 322 314 313 312
340 343 343 344 346 347 348 350 352 352 352 354 355 356 359 360 362 362 362 364 365 369 370 368 367 367 367 368 369 368 367 366 367 370 370 371 370 370 370 369 367 365 367 365 362 362 361 361 359 358 359 359 360 358 359 361 363 365 365 330 320 316 313
340 341 341 341 344 346 348 349 349 349 351 350 352 354 354 356 356 357 358 361 362 364 368 367 365 364 366 367 367 368 368 366 364 364 368 370 368 367 367 366 365 364 363 363 360 361 360 360 359 358 356 356 357 359 362 360 361 362 364 362 344 337 331
339 340 342 343 343 345 347 346 347 347 348 348 349 351 352 352 353 356 357 357 360 363 366 365 365 364 365 366 366 366 368 367 364 364 362 365 365 363 363 365 364 362 362 361 361 360 360 360 358 356 356 355 357 358 361 359 360 360 360 361 356 349 344
340 340 341 343 343 344 344 345 345 346 346 347 348 349 350 351 353 354 355 358 360 362 360 360 363 367 366 365 365 364 366 365 364 361 363 365 369 368 369 364 362 364 365 365 365 364 361 361 359 359 359 359 359 358 358 359 359 362 341 362 340 349 351
339 339 341 342 343 344 344 345 345 345 346 346 349 348 348 349 350 352 353 355 357 359 359 361 362 363 361 363 362 359 361 361 360 362 359 362 361 365 365 357 336 359 368 364 346 326 313 321 355 356 357 358 360 363 358 357 360 318 308 308 309 314 320
339 340 341 343 343 344 344 345 345 345 346 347 348 347 347 347 348 350 352 354 355 356 356 357 356 355 356 357 356 351 361 359 360 362 363 361 359 359 357 358 368 318 314 328 330 320 314 309 308 310 316 343 355 353 334 326 317 313 311 311 313 312 307
340 340 341 341 341 342 343 344 344 345 346 347 348 346 347 346 348 349 350 352 353 353 355 355 354 353 352 352 354 354 355 356 356 357 357 360 361 360 358 359 361 370 329 313 319 315 311 315 315 311 310 310 314 327 352 335 319 307 304 303 302 304 303

ECMWFFLT1_sfc_thetae_036.txt.gz
Theta_e
333 339 338 340 341 339 340 344 346 347 349 350 353 354 354 356 358 360 361 362 362 362 363 364 364 363 362 362 363 364 364 365 365 363 362 360 359 359 362 364 364 364 363 363 363 363 365 366 364 364 367 368 367 368 371 371 372 371 371 371 370 368 366
330 332 339 341 340 340 341 346 347 347 347 351 355 356 355 357 359 360 361 363 363 363 363 364 365 364 363 363 363 364 364 364 366 364 363 361 361 361 362 365 366 366 367 365 366 367 368 366 366 365 365 368 367 368 369 371 371 370 368 370 368 370 368
329 328 339 338 338 339 344 346 346 347 352 349 354 355 354 357 359 361 363 363 363 364 363 363 364 364 365 365 364 364 364 364 364 364 361 359 360 357 361 364 367 368 368 368 368 368 368 366 366 367 365 366 365 368 368 369 371 370 370 370 368 367 367
331 329 333 340 343 344 343 344 346 348 349 353 355 355 356 359 361 362 364 364 363 364 363 363 363 363 365 364 364 364 364 364 364 362 361 360 359 359 359 361 365 366 367 365 364 365 364 365 366 366 368 366 366 367 368 367 368 370 370 370 368 367 367
332 330 330 338 340 341 342 344 345 348 348 350 355 359 357 360 359 362 363 365 365 365 365 364 363 365 365 365 363 363 364 364 364 362 361 361 361 360 358 357 360 362 364 366 366 364 367 367 365 365 366 367 367 368 368 368 367 370 370 369 367 366 366
331 331 332 338 338 341 343 346 347 348 346 348 353 357 356 356 356 358 362 365 365 366 366 365 364 365 365 365 364 365 365 364 364 364 362 362 362 361 359 359 358 360 359 365 366 364 365 368 365 366 365 365 365 364 367 367 366 368 369 368 367 365 363
330 330 333 339 341 343 342 339 342 347 345 351 356 358 356 355 355 356 359 364 365 365 364 363 364 364 365 365 364 365 365 364 365 363 364 363 362 362 361 361 360 361 362 365 365 365 363 364 365 367 367 364 363 364 365 367 365 366 367 367 366 366 364
331 331 332 335 335 337 340 345 348 351 354 353 351 356 356 356 355 355 358 361 364 364 364 363 363 364 366 366 364 363 363 363 364 364 363 362 361 361 361 362 362 363 365 364 365 366 363 363 363 367 368 366 365 366 367 368 367 366 367 366 366 365 364
332 333 331 331 334 333 339 347 348 348 352 355 351 354 357 356 354 355 357 359 362 362 363 363 363 364 366 365 364 363 364 364 364 363 361 359 358 356 357 361 364 364 364 363 362 365 364 364 362 364 369 368 368 368 367 367 367 365 365 366 366 364 362
334 333 333 333 334 334 340 342 346 349 348 350 354 358 358 357 357 356 356 358 360 361 362 363 362 363 364 364 363 362 363 364 365 361 358 358 360 358 356 359 361 364 363 363 362 363 364 366 365 366 368 369 369 369 367 367 366 365 365 367 366 365 364
335 335 334 334 339 339 344 346 348 349 348 353 357 357 359 359 358 356 356 357 358 359 362 362 362 362 362 362 360 360 361 360 362 362 361 360 358 359 358 359 361 362 360 360 360 362 364 365 367 368 368 367 368 370 369 367 367 365 364 366 366 365 364
335 335 334 336 340 340 340 344 346 348 350 355 356 356 360 361 358 357 357 357 358 359 360 361 361 361 362 362 361 360 360 361 359 359 361 359 358 358 358 360 359 361 364 363 361 361 362 365 366 367 368 367 368 369 370 368 367 367 365 364 364 364 364
341 338 336 337 341 341 347 348 348 347 349 356 355 354 357 358 358 357 360 359 358 359 359 361 361 361 361 362 360 360 360 360 359 359 360 361 360 358 360 359 358 359 363 362 361 361 360 364 366 367 369 369 368 368 369 369 367 367 367 365 363 364 364
342 335 339 343 347 350 344 350 352 353 355 355 355 355 355 357 357 359 361 359 359 358 358 359 361 361 361 363 362 361 359 361 361 360 361 362 361 361 360 358 359 360 363 366 364 362 361 362 366 366 367 369 369 369 369 369 368 368 368 367 365 364 364
329 330 335 336 344 345 355 349 358 362 361 358 355 354 355 355 357 359 361 360 360 358 358 360 361 361 360 363 363 362 362 362 363 362 362 363 363 362 361 360 361 361 362 366 366 364 364 362 364 366 366 368 369 368 368 368 367 367 367 367 366 365 363
327 330 332 337 343 343 353 361 367 365 364 361 356 357 353 355 358 359 358 358 358 360 359 361 361 361 359 361 364 365 365 365 365 364 363 363 363 362 362 361 361 360 361 364 367 366 365 363 361 364 366 366 368 369 368 367 367 355 342 348 365 364 362
325 327 330 335 347 345 356 359 363 367 367 365 363 361 357 356 358 357 355 355 355 359 359 360 362 361 360 360 365 367 367 367 366 366 364 363 364 364 363 362 362 362 362 363 365 366 366 365 362 359 363 365 366 367 368 367 365 341 335 338 343 360 362
324 334 332 336 339 348 352 353 357 360 361 359 359 362 359 361 358 354 353 355 355 355 356 357 361 361 361 361 367 369 368 367 367 367 366 365 364 365 364 363 363 363 363 362 363 366 367 365 365 363 361 365 366 366 368 368 347 336 334 335 336 344 362
324 324 330 340 340 346 343 346 348 359 353 353 355 354 354 360 354 355 356 356 357 358 355 354 354 362 363 362 366 369 369 369 368 368 368 367 365 366 367 365 363 363 363 361 363 365 366 366 365 364 363 364 366 366 368 369 344 333 331 333 334 336 349
323 324 326 329 334 341 350 354 353 353 349 358 356 350 351 355 354 358 357 356 361 358 357 357 356 359 364 364 366 369 370 370 369 368 369 370 368 367 367 366 364 363 363 363 364 365 365 365 365 365 364 363 366 367 367 367 345 330 329 330 331 333 341
329 330 331 336 339 351 358 359 359 359 354 341 341 357 359 353 351 357 356 357 356 358 363 361 359 359 367 364 366 370 371 371 369 369 370 371 370 368 367 367 366 365 364 363 363 363 364 365 365 365 365 364 364 366 367 366 341 328 326 327 328 330 334
323 324 329 345 354 355 356 349 350 342 354 359 349 342 340 349 351 349 350 352 354 356 360 365 362 359 368 366 366 369 371 371 370 370 370 371 371 368 367 367 367 366 366 364 362 363 364 366 365 365 365 366 365 364 364 366 337 326 324 324 326 328 343
345 345 346 347 346 351 359 360 360 361 361 358 356 348 344 341 344 349 348 349 350 358 358 361 363 360 363 368 365 366 370 371 370 370 371 372 371 369 367 367 368 369 368 365 363 363 363 362 363 365 365 366 365 364 363 364 344 324 322 322 323 328 348
345 346 344 346 352 354 358 357 354 353 351 351 350 351 354 352 353 365 367 353 355 355 356 357 360 362 363 367 366 366 370 371 371 371 371 372 371 369 368 369 370 369 368 365 362 360 361 362 362 363 364 364 365 364 363 364 348 321 319 319 320 330 351
344 344 343 346 350 349 349 353 354 356 360 359 359 364 362 363 366 366 366 368 355 355 355 355 358 361 362 366 368 369 370 371 372 372 371 371 372 372 370 369 369 370 370 366 364 362 364 364 363 363 364 363 365 349 359 363 351 320 318 317 318 329 353
342 343 341 345 348 347 352 355 357 360 356 359 362 365 367 364 367 366 367 369 360 351 354 356 358 363 364 366 369 369 369 370 372 373 372 371 372 373 372 371 369 370 369 367 364 363 362 363 363 364 363 364 365 365 363 364 365 344 315 316 316 320 351
343 344 342 342 342 354 351 350 357 356 357 362 364 360 362 362 360 365 368 368 367 358 354 359 363 366 366 366 365 368 370 370 372 373 374 374 374 372 371 369 368 368 368 365 365 364 363 361 361 362 363 364 366 365 366 366 365 358 316 314 315 316 328
343 344 345 344 351 352 349 350 356 357 358 360 361 362 366 368 364 366 367 366 363 367 364 379 366 368 368 368 365 365 369 369 373 375 374 375 376 374 371 372 371 369 369 366 366 366 365 364 361 361 362 364 366 367 367 361 346 366 320 315 313 314 317
340 341 342 345 346 349 346 349 353 352 358 358 358 358 363 365 367 362 362 363 364 367 371 377 374 370 370 371 366 366 370 372 373 373 374 374 375 374 371 372 371 371 371 369 369 368 366 366 365 363 362 363 365 366 369 371 362 336 340 314 312 312 314
340 341 342 344 346 348 346 347 353 353 357 356 358 360 363 364 365 359 361 366 373 369 371 376 370 375 371 370 370 369 369 373 372 375 375 375 375 374 373 371 371 371 371 371 369 368 368 367 367 365 362 360 361 363 365 372 372 344 330 326 312 313 312
338 340 341 342 342 346 345 346 351 353 355 355 356 358 361 360 365 363 364 368 372 370 372 373 374 377 373 370 371 372 370 373 375 374 374 375 374 373 372 372 371 369 372 371 369 368 367 368 367 366 364 362 361 362 366 369 373 373 342 322 313 313 312
339 340 341 341 342 343 344 347 351 350 351 351 353 354 357 357 357 358 359 362 366 368 372 372 372 374 375 372 373 374 372 372 372 375 372 373 372 373 374 371 368 367 371 369 367 367 366 366 364 364 364 364 364 364 364 368 369 368 365 330 320 315 313
340 340 340 340 341 344 343 345 347 348 349 348 350 352 353 355 355 357 361 362 362 364 367 369 371 371 372 373 375 376 375 370 364 364 367 370 368 368 371 370 369 367 367 367 364 364 365 364 364 363 361 361 362 363 364 363 364 367 370 360 341 333 328
340 340 341 343 344 343 344 344 345 346 347 347 349 351 352 353 354 356 358 359 360 363 364 365 366 367 369 368 372 374 374 374 370 366 361 363 364 362 364 367 368 368 368 365 365 364 363 362 360 360 359 359 360 360 362 362 363 367 349 349 353 352 344
339 339 341 343 343 344 344 345 345 346 346 346 348 350 352 352 354 355 357 358 361 365 364 367 363 367 365 366 369 371 373 369 366 363 369 367 366 371 375 366 366 367 369 369 369 367 361 361 363 362 362 360 362 361 360 363 357 334 317 329 315 330 348
339 340 341 344 346 345 344 344 346 346 346 347 348 348 349 349 350 353 353 357 360 361 363 365 367 363 363 362 361 358 362 361 359 362 361 364 368 368 365 335 322 358 366 350 329 322 323 330 352 353 357 359 358 356 353 347 332 306 301 300 302 302 304
339 341 341 342 344 345 345 347 347 346 345 347 347 347 347 348 349 352 353 357 360 358 360 360 363 363 356 356 354 351 360 356 359 365 369 371 362 366 364 356 344 310 317 327 326 314 306 307 307 311 320 345 350 333 310 308 301 298 299 299 299 299 300
340 340 341 342 342 343 343 344 345 346 346 347 347 347 348 347 349 351 350 354 355 358 360 359 359 355 354 356 355 357 358 359 358 360 363 363 363 364 364 364 359 350 317 307 311 307 303 303 303 304 306 311 322 335 338 315 303 300 300 299 299 299 299

ECMWFFLT1_sfc_thetae_039.txt.gz
Theta_e
334 336 337 338 339 340 341 341 341 341 344 345 346 347 350 351 351 352 352 352 352 351 352 353 354 354 352 352 354 354 355 355 355 355 354 353 354 355 354 355 353 354 354 356 356 357 358 359 358 358 360 362 361 363 363 363 363 364 362 361 360 359 358
333 336 337 338 339 340 341 342 341 342 344 346 347 348 349 351 352 352 352 352 352 352 353 353 354 354 354 353 354 355 355 355 355 356 355 354 354 355 357 356 355 354 356 356 358 359 359 359 358 357 360 361 361 362 363 363 364 363 362 362 361 359 358
332 335 336 337 338 339 340 341 342 342 345 346 347 347 348 349 351 352 353 353 352 352 353 353 354 354 355 354 353 355 355 356 355 355 354 353 353 354 357 357 356 355 356 358 358 359 361 359 357 357 360 360 361 361 362 363 363 364 362 362 361 360 358
331 333 335 337 338 339 341 342 342 342 345 347 347 347 347 348 351 353 355 354 353 353 353 354 354 354 355 354 353 354 355 356 356 356 356 355 354 353 353 357 358 357 357 358 360 360 361 360 358 357 362 360 360 360 361 363 363 363 362 362 360 360 360
330 332 333 335 337 338 340 341 343 343 344 347 348 348 348 349 352 354 356 356 355 354 354 355 355 355 356 356 355 355 355 356 356 357 357 356 355 353 352 353 357 358 359 359 360 360 359 359 358 358 358 359 360 360 360 361 363 363 362 362 360 360 360
330 331 332 335 336 337 338 341 343 343 344 345 347 348 348 349 352 354 356 357 356 356 356 356 356 356 355 356 356 355 356 356 357 357 357 356 355 353 352 352 354 358 360 360 361 361 360 359 359 358 358 359 359 359 360 359 361 363 362 362 360 360 359
331 331 333 335 336 337 338 339 342 343 344 346 347 349 349 350 352 354 356 357 358 356 356 355 356 357 356 356 356 356 354 355 356 356 357 356 355 354 353 352 352 355 359 361 360 359 359 359 358 358 358 359 359 359 360 359 359 362 362 361 360 360 359
331 331 333 335 336 337 337 339 341 342 343 345 346 348 348 349 352 354 355 357 358 358 357 356 356 357 357 357 357 356 355 355 355 356 356 356 355 354 353 352 352 353 356 358 361 359 358 359 359 359 358 358 358 359 360 360 360 361 362 361 360 359 360
328 333 332 334 336 337 338 339 341 342 342 343 345 349 350 350 352 353 355 357 358 358 358 358 358 358 358 358 357 356 356 356 355 356 355 355 354 354 353 352 352 353 353 355 359 360 359 357 359 359 358 357 358 358 359 360 360 360 361 361 360 359 359
326 331 332 334 336 337 338 339 341 342 342 342 344 348 351 352 352 353 355 357 358 358 359 359 359 358 358 358 358 358 357 356 356 356 355 354 354 353 354 353 352 353 353 354 356 359 360 358 357 359 359 358 357 357 358 360 360 360 360 361 360 359 358
327 332 334 334 335 336 337 338 339 341 342 343 344 346 350 352 352 352 353 356 359 359 361 360 360 359 358 358 357 357 356 356 356 355 355 355 354 353 354 354 353 353 353 354 354 356 358 358 357 356 359 360 358 357 357 359 361 360 359 360 361 360 359
326 332 333 334 335 335 336 337 339 341 342 344 345 346 348 351 352 352 352 354 359 360 361 361 362 360 358 357 357 357 356 356 356 355 355 354 354 354 353 353 354 354 354 355 355 356 357 358 357 356 355 359 360 359 358 359 360 360 359 359 360 360 360
326 329 333 334 335 335 336 337 338 341 343 346 347 347 349 351 351 352 352 352 356 360 362 362 361 360 358 357 357 356 356 356 355 355 355 355 354 353 353 352 352 354 354 355 356 356 356 357 357 357 356 356 360 361 361 360 360 361 360 359 360 360 359
335 327 330 331 333 334 336 339 339 341 344 347 348 348 350 352 353 353 352 352 354 358 361 362 362 360 359 358 356 356 356 355 355 355 355 355 354 353 352 352 351 352 354 356 355 355 355 356 357 357 358 357 357 360 362 362 360 360 360 359 359 359 359
326 325 331 332 334 336 338 338 340 342 345 347 348 348 350 352 353 353 353 353 354 356 358 361 361 359 359 358 356 355 355 355 355 355 355 355 353 352 352 352 351 352 353 355 355 355 355 356 357 357 357 358 358 358 361 363 362 361 360 359 358 359 359
326 330 332 333 335 337 338 339 340 341 342 345 347 348 351 353 353 354 354 353 354 354 357 359 359 358 358 357 357 356 355 355 355 354 355 355 354 352 352 352 352 352 353 355 355 354 354 354 356 357 357 357 359 359 360 361 363 353 340 344 358 358 359
329 330 330 333 336 340 339 339 341 341 342 345 346 347 350 353 354 355 355 355 355 354 355 357 357 358 357 357 358 357 356 354 354 354 353 354 355 354 352 352 353 353 352 354 356 356 355 355 354 356 357 357 358 359 360 360 360 341 334 336 340 355 358
328 330 331 335 343 347 346 346 346 345 344 346 349 349 349 351 354 354 354 355 356 356 356 355 356 357 356 357 358 358 357 355 354 354 353 353 353 354 353 352 352 352 352 353 356 357 357 356 354 355 357 358 358 359 360 360 344 336 333 333 334 340 358
329 332 335 340 343 345 348 352 352 352 351 350 351 351 351 351 352 353 354 354 356 357 356 355 355 356 356 356 357 358 358 356 355 355 354 352 353 354 354 353 352 352 352 352 354 357 357 357 356 355 356 358 357 357 359 360 343 334 331 331 332 333 344
324 331 339 343 345 346 343 344 350 352 352 352 352 354 353 355 352 352 354 354 355 354 355 355 354 355 355 356 356 358 359 357 356 355 355 354 353 354 354 353 352 352 352 353 353 355 357 358 357 356 355 356 357 358 358 359 343 332 329 328 329 331 337
334 341 344 343 343 342 341 344 349 352 350 346 346 352 349 350 351 353 352 352 353 353 352 352 353 353 355 355 356 358 359 358 357 356 356 356 355 354 354 354 353 352 352 353 352 353 355 357 357 357 356 356 355 357 358 360 340 330 327 325 325 329 332
340 345 348 350 350 351 351 352 351 351 352 354 351 345 341 347 348 349 351 351 351 352 351 351 351 351 356 355 355 358 360 359 358 357 357 357 356 354 354 354 354 353 353 353 353 353 354 356 357 357 357 357 356 355 355 360 336 328 325 324 323 326 341
342 345 346 346 347 347 348 349 348 349 349 345 346 345 346 346 347 347 348 349 349 349 352 353 351 350 355 357 356 358 360 360 359 358 358 358 357 356 355 355 355 355 355 353 353 353 353 353 355 357 357 357 357 356 355 356 341 326 323 322 322 326 346
339 342 342 341 342 344 346 347 348 352 352 348 350 353 354 352 354 356 363 349 347 347 349 351 352 352 352 358 357 358 361 362 361 359 359 359 358 358 357 357 357 357 357 354 353 353 353 354 355 356 357 357 357 357 356 356 344 321 320 319 320 329 349
339 338 339 340 342 344 345 345 349 354 357 357 355 356 357 358 360 359 358 361 356 346 346 348 350 353 353 358 359 359 362 363 362 361 360 360 360 361 360 359 359 359 360 358 357 355 355 355 355 355 357 358 358 348 354 357 348 321 318 317 318 329 350
338 338 337 337 341 345 345 352 353 352 353 353 354 358 356 359 356 357 361 362 360 355 346 347 348 353 355 359 361 361 363 364 363 362 361 361 361 362 362 362 361 361 361 361 359 357 357 356 356 355 356 357 357 359 358 358 359 344 315 315 315 320 347
338 338 337 342 347 351 345 350 350 351 352 354 356 356 358 361 361 357 356 360 358 356 357 349 350 354 356 358 362 361 362 364 364 363 363 363 363 364 364 364 362 362 362 361 361 359 358 357 356 357 356 357 357 358 358 360 359 353 314 312 313 316 327
338 339 340 345 351 347 343 350 348 348 352 353 354 354 357 358 358 361 356 356 358 359 360 357 353 354 356 358 361 361 362 363 364 365 365 365 365 364 364 365 364 363 363 362 361 359 357 357 355 356 356 357 358 358 358 358 347 360 319 313 311 314 315
335 337 338 339 340 343 344 341 349 348 352 352 353 355 357 356 356 359 357 359 361 366 367 367 358 355 356 357 360 360 361 362 364 365 367 366 366 365 364 365 364 363 363 361 360 359 357 357 356 355 354 354 356 358 360 361 356 336 339 313 312 311 313
335 336 337 339 340 340 342 340 343 349 353 353 354 354 355 353 356 362 358 355 360 362 365 365 367 359 356 355 357 360 361 362 365 366 367 367 366 366 365 364 364 363 362 361 360 359 358 357 357 356 354 354 354 357 359 362 362 342 331 325 312 313 312
336 337 336 336 339 341 341 340 340 348 349 347 349 351 351 352 352 353 351 353 359 359 360 363 365 364 358 356 356 360 361 362 365 366 367 368 368 365 365 364 364 362 362 362 360 359 358 358 358 357 356 354 354 354 356 359 361 363 339 323 315 313 312
336 337 338 338 338 339 340 341 341 347 346 345 346 347 350 352 351 349 350 356 356 359 360 361 363 366 362 360 359 360 364 363 364 366 367 368 368 367 367 365 364 362 362 362 361 360 359 359 359 357 357 355 356 355 356 359 359 361 354 330 321 315 312
334 335 337 336 338 341 339 342 343 344 345 344 345 347 349 349 351 352 352 355 355 357 361 362 364 364 362 363 363 362 364 364 363 365 366 367 368 368 368 366 366 363 361 362 362 361 360 360 358 357 357 357 358 358 358 357 358 353 346 340 332 329 327
335 336 337 340 342 343 341 341 343 344 343 342 344 346 347 347 346 349 352 353 355 357 359 361 362 361 361 364 365 363 362 361 373 368 364 366 367 367 367 366 366 364 361 361 362 360 360 359 357 357 357 356 358 357 357 356 341 337 341 342 343 337 333
335 337 338 339 341 345 341 340 342 343 342 341 343 344 345 345 345 346 349 352 354 355 357 361 367 361 359 362 366 364 363 363 364 363 362 363 362 358 356 361 366 363 361 357 359 364 363 360 359 358 357 354 352 354 348 337 334 332 309 318 310 332 340
336 337 338 339 342 342 342 345 343 341 341 340 342 342 341 345 347 348 349 350 350 353 354 357 359 357 353 352 351 354 360 360 359 359 361 361 357 348 340 324 308 324 351 339 325 314 314 328 348 352 340 328 324 332 343 334 329 308 301 303 300 298 301
335 335 337 339 339 339 340 341 345 345 344 342 343 342 342 342 344 346 348 350 351 353 353 351 350 350 349 349 350 349 352 354 358 359 359 360 353 347 341 337 328 305 303 315 315 308 303 303 307 314 321 328 322 316 309 307 300 299 300 299 299 300 301
335 336 336 337 339 339 339 341 341 342 343 344 345 345 345 344 344 346 348 348 349 350 351 350 348 348 349 350 349 349 349 350 351 353 354 355 352 347 341 337 332 327 308 301 305 306 304 304 304 305 307 312 316 319 314 302 298 297 297 298 298 300 298

ECMWFFLT1_sfc_thetae_042.txt.gz
Theta_e
334 334 336 338 338 338 338 338 338 339 340 341 342 343 344 344 345 345 346 347 347 347 349 349 349 350 349 349 349 350 350 349 350 349 348 350 349 348 348 349 348 347 350 351 352 354 355 356 357 357 359 360 360 361 362 361 360 360 360 359 358 357 356
332 334 336 338 338 338 338 339 339 340 340 341 342 343 344 344 345 345 346 347 347 347 348 349 350 349 349 349 349 349 349 349 350 351 350 349 351 350 349 349 350 349 350 352 353 354 355 355 357 356 358 360 360 360 361 361 361 360 359 358 358 356 355
332 333 335 337 338 338 338 339 339 340 341 341 343 344 344 344 346 345 346 347 347 347 348 349 350 349 349 349 348 349 349 350 349 350 350 349 349 351 351 350 350 351 351 353 354 355 356 355 356 356 357 358 359 359 360 361 361 360 359 359 358 357 355
332 333 335 337 338 339 339 339 339 340 342 342 342 344 345 345 346 347 347 348 347 347 347 348 350 350 349 348 348 348 349 350 350 350 351 351 350 351 352 351 351 351 352 352 355 356 357 356 355 355 360 357 358 359 360 360 361 361 360 359 358 357 356
332 334 335 336 337 338 338 339 339 340 341 343 344 345 346 347 348 348 348 349 349 348 348 349 350 351 351 350 349 350 350 350 350 351 351 352 352 351 351 352 352 351 352 354 355 356 356 356 356 355 356 356 357 358 358 360 360 360 360 359 358 357 356
332 332 334 335 336 338 338 339 340 340 341 342 343 344 346 348 349 349 349 349 349 350 350 350 349 351 351 351 350 350 351 351 351 352 352 352 352 351 351 353 353 352 351 353 356 356 357 356 356 355 354 356 357 357 357 358 360 360 360 359 358 357 356
332 332 333 335 336 337 338 339 340 341 342 343 344 345 346 348 349 349 350 350 350 349 349 349 350 350 351 352 351 351 350 351 351 351 352 352 352 351 351 352 354 354 353 353 354 356 356 356 356 355 355 355 356 356 356 356 357 359 359 359 357 357 357
332 332 333 335 336 338 339 339 340 341 342 344 344 344 345 348 349 350 350 351 351 351 350 350 350 350 351 352 352 351 351 351 352 352 353 352 352 351 351 351 352 355 355 353 354 356 356 357 357 356 355 354 355 356 357 357 356 358 359 358 357 357 357
332 333 334 335 336 338 339 340 340 341 341 342 343 344 345 346 348 350 350 351 352 351 351 351 351 352 352 351 352 352 352 352 352 353 353 352 352 352 352 351 350 353 355 355 355 356 357 356 356 356 356 355 355 355 356 356 356 357 358 358 357 357 357
330 332 333 335 337 338 339 340 340 340 340 342 343 344 345 346 347 349 351 352 352 351 351 352 352 352 352 351 351 352 352 351 352 352 353 352 353 352 352 352 351 351 352 356 357 356 357 357 356 356 355 355 355 355 355 356 356 356 357 358 358 357 357
330 331 333 334 335 336 338 339 339 339 340 341 343 344 345 345 346 347 349 352 353 353 353 353 353 353 352 352 351 352 352 352 352 351 352 352 353 353 353 353 352 351 350 352 355 357 357 357 357 356 355 355 354 355 355 355 356 356 356 357 358 358 357
329 330 331 333 334 335 335 337 339 340 340 341 342 344 344 345 345 347 348 351 353 354 354 354 354 354 353 353 352 351 351 352 352 351 351 352 353 353 353 353 352 351 351 350 351 354 357 356 356 356 356 355 355 355 355 356 356 356 356 356 357 358 358
329 329 331 332 333 334 335 336 337 339 340 341 342 344 344 345 345 346 348 350 353 355 355 355 355 354 353 353 353 352 352 352 352 352 352 352 352 353 353 353 353 352 350 351 350 350 353 356 356 355 356 356 356 355 355 355 356 356 356 356 357 357 357
336 329 331 332 333 332 333 334 336 337 339 340 341 343 345 345 346 346 348 350 352 354 355 356 355 355 354 354 353 352 353 353 353 353 353 353 353 353 353 353 352 352 351 351 349 349 350 353 356 356 355 355 356 356 356 355 355 356 357 357 357 357 357
328 328 329 330 331 332 333 333 335 337 338 339 341 342 345 346 346 347 348 351 353 355 355 357 356 355 355 354 353 353 354 354 354 354 354 354 353 352 352 352 352 352 351 350 350 350 350 351 354 355 355 354 355 356 357 356 355 355 356 357 356 357 356
327 328 328 329 330 332 333 334 335 337 338 338 339 341 344 347 347 348 348 350 353 354 356 357 356 356 355 354 354 354 354 355 355 354 354 353 353 352 352 352 351 351 350 350 350 350 350 350 351 353 354 354 353 354 356 357 357 348 336 341 356 356 357
326 327 328 329 330 331 332 333 335 337 338 339 340 341 343 346 348 350 350 350 352 354 357 358 357 356 356 355 355 355 355 354 354 354 353 353 353 353 352 352 351 350 350 350 350 350 350 350 350 351 352 353 353 353 353 355 356 339 333 333 337 352 356
325 327 328 329 330 331 332 334 334 336 338 340 341 341 343 344 347 349 350 351 351 353 357 358 358 357 357 357 356 356 355 355 354 354 353 353 352 352 352 352 351 350 349 348 349 350 350 350 350 351 352 353 353 353 353 353 340 334 332 332 331 337 356
325 327 328 329 331 332 333 335 336 338 340 341 342 343 344 346 346 348 350 351 352 353 354 357 358 358 357 358 357 356 356 355 354 354 353 353 353 353 352 351 350 349 348 347 348 349 349 349 350 350 351 352 352 352 354 354 339 332 330 331 330 330 341
336 337 338 337 336 336 338 339 338 339 341 343 345 346 347 349 348 349 351 352 352 352 352 353 356 357 357 358 357 357 356 356 354 353 353 353 353 352 351 350 349 349 349 349 348 348 349 349 349 350 349 350 351 352 353 354 340 330 327 328 328 329 333
341 342 342 342 342 343 343 343 343 343 343 344 345 346 347 349 352 352 352 352 352 352 352 352 353 355 356 357 357 357 357 356 355 353 353 353 352 352 351 351 350 349 349 349 348 347 348 349 349 349 350 350 351 351 352 354 337 329 326 325 325 327 329
336 338 338 340 341 341 341 342 343 344 344 345 342 341 346 349 351 352 353 354 353 353 352 352 352 352 355 356 356 356 357 356 355 354 353 352 351 351 351 351 351 349 349 349 349 349 349 350 351 350 350 350 350 350 350 353 333 327 324 323 323 325 338
337 338 339 340 342 342 344 348 350 350 351 352 353 354 353 349 345 351 352 352 353 353 353 352 351 351 352 354 355 356 356 357 355 354 353 352 351 350 350 350 351 351 351 349 349 348 348 349 350 352 352 352 352 350 350 352 338 325 322 321 321 324 343
338 340 343 344 347 349 350 350 351 353 351 351 352 353 355 356 355 355 354 348 349 351 351 351 351 352 352 353 354 355 356 357 356 355 354 353 351 351 350 351 351 351 352 350 349 348 349 349 350 352 353 353 353 353 352 352 342 322 319 319 319 327 345
340 341 341 342 344 345 346 349 352 352 351 350 350 353 357 358 355 355 354 357 351 345 347 349 350 351 351 352 354 355 356 357 357 356 355 354 353 353 351 351 351 351 352 351 350 350 350 350 349 350 351 353 354 348 351 354 344 317 319 317 318 328 347
337 339 340 341 342 344 346 347 349 349 348 348 349 353 355 355 356 359 357 354 356 351 344 345 348 350 351 352 354 355 356 357 357 357 356 355 354 354 354 353 352 351 351 351 351 350 350 350 349 349 350 351 352 354 354 354 354 332 317 316 316 320 345
336 338 338 339 340 345 340 343 345 347 348 349 350 352 352 353 355 354 355 353 351 353 356 356 347 348 351 352 354 355 355 357 357 357 357 356 356 356 355 355 353 353 352 352 352 351 350 350 350 349 350 350 351 352 353 354 354 341 314 315 315 316 327
334 335 337 340 344 342 337 339 340 346 348 349 350 350 350 352 356 356 353 351 353 355 361 362 359 349 350 352 354 355 355 357 358 359 358 358 357 356 355 356 356 355 354 353 353 351 350 350 349 350 350 351 352 352 353 354 346 353 316 315 313 315 316
332 332 333 335 336 340 339 337 338 343 347 348 349 349 349 349 350 353 351 348 350 355 357 359 361 352 349 351 354 355 356 357 358 358 360 358 358 357 356 357 357 356 356 354 354 353 352 352 351 350 350 350 351 352 354 355 352 336 331 314 313 312 313
333 334 334 336 337 338 339 338 339 342 344 344 345 347 348 348 348 351 351 345 352 353 356 357 357 353 349 350 353 355 356 358 359 360 360 360 359 358 357 357 358 358 357 356 355 354 353 353 353 352 351 351 350 352 353 355 355 337 327 326 313 313 312
332 333 335 336 337 339 339 340 341 341 342 342 343 344 345 346 346 347 346 347 351 352 353 356 357 355 349 349 352 354 356 358 360 360 361 360 360 358 358 358 359 357 357 357 356 355 354 354 353 353 352 351 351 350 351 355 356 355 336 323 316 313 312
333 334 337 339 339 339 340 342 342 341 341 341 342 344 345 343 343 342 343 349 350 351 352 355 357 358 351 349 352 354 357 358 359 361 361 361 361 361 360 360 359 358 357 358 357 356 355 354 353 352 352 351 352 350 352 353 355 358 351 333 322 317 313
332 333 334 337 340 341 339 341 340 340 340 339 340 341 344 343 342 342 344 348 348 350 351 354 358 359 355 351 353 356 357 358 359 360 362 362 362 362 362 362 361 359 357 358 358 356 355 355 353 352 352 352 352 353 352 353 351 342 338 334 333 332 328
332 333 334 336 339 340 340 339 338 338 338 337 338 339 340 341 342 342 343 345 347 348 351 355 361 357 353 354 356 357 357 358 369 364 361 362 363 362 363 362 362 360 358 358 358 356 356 355 354 353 354 354 354 354 353 348 340 340 340 336 333 331 330
331 332 333 335 337 339 339 339 339 337 337 336 337 338 338 339 341 343 344 345 347 348 350 355 357 352 347 351 356 358 360 359 364 360 361 354 331 319 315 318 334 351 356 340 340 358 360 358 357 356 357 357 356 356 347 340 338 335 312 318 315 331 332
330 332 333 335 336 336 338 341 340 339 339 339 339 339 339 340 341 342 343 345 347 348 348 348 348 347 347 348 349 353 356 359 361 360 359 348 335 330 323 316 303 308 328 328 322 309 315 337 353 354 341 331 320 328 347 344 335 307 301 300 297 296 297
330 332 333 335 335 336 336 338 341 340 339 339 340 339 339 339 340 341 342 344 345 347 346 345 345 345 345 346 347 347 352 354 357 357 355 347 341 335 329 325 319 303 301 310 312 307 301 302 308 314 320 329 322 314 307 307 301 299 298 297 297 297 297
330 330 333 334 334 334 335 336 338 338 338 338 338 337 337 337 338 340 342 344 346 346 345 345 344 343 343 345 344 345 348 351 353 352 347 344 340 336 331 328 324 321 307 301 304 304 302 301 302 303 306 310 316 319 318 306 299 298 298 298 297 297 296

ECMWFFLT1_sfc_thetae_045.txt.gz
Theta_e
330 332 334 336 336 336 336 337 337 338 339 339 340 342 343 345 346 346 346 346 346 346 348 349 349 350 349 349 349 349 350 349 349 348 348 348 348 347 346 346 345 346 349 350 351 352 353 354 355 355 356 357 358 358 358 359 358 359 358 357 356 355 354
328 330 333 335 335 336 337 337 337 338 339 339 340 341 343 344 345 346 346 346 346 347 347 348 349 349 349 349 349 349 349 349 349 350 348 348 349 348 347 346 346 345 347 350 351 352 353 353 355 355 355 357 357 358 359 359 358 358 357 356 356 355 354
328 330 332 334 335 336 336 337 337 338 338 339 340 341 342 344 345 345 346 346 346 347 347 348 349 349 349 349 349 349 349 349 349 349 347 347 347 348 348 347 347 345 346 349 350 352 354 353 354 355 355 355 357 357 358 359 359 358 357 356 356 355 354
328 329 332 334 335 337 337 337 337 338 339 340 340 341 342 343 345 346 347 346 346 347 346 347 348 349 349 349 348 348 348 348 349 349 348 348 347 348 348 347 347 347 346 347 350 352 354 353 353 354 358 355 356 356 357 358 359 358 358 356 356 356 355
328 330 332 333 334 335 336 337 337 337 338 340 340 342 342 344 345 346 346 347 347 346 347 348 349 349 349 349 349 349 349 348 348 349 349 349 348 348 348 347 347 348 348 348 349 352 352 352 352 353 354 354 355 356 356 357 358 358 358 357 355 355 355
327 329 331 333 334 335 336 337 338 338 338 339 340 341 342 343 345 345 345 346 347 347 348 348 348 349 348 349 349 349 349 349 349 349 348 349 348 347 348 348 348 348 348 349 350 351 352 352 352 353 353 354 354 355 356 356 357 358 358 357 356 355 354
327 329 331 333 334 335 336 337 338 338 339 340 341 342 342 343 343 344 345 345 346 346 346 347 348 348 348 349 348 349 347 348 348 348 349 348 349 348 348 349 349 349 349 350 350 351 352 352 352 352 353 353 354 354 355 355 356 357 357 356 356 356 355
327 329 331 333 335 336 337 337 338 339 339 340 340 341 341 342 343 344 344 345 346 346 346 346 347 348 348 348 348 348 347 348 348 348 349 348 348 348 348 348 350 350 350 348 350 352 352 352 353 353 353 352 352 353 354 355 355 356 356 356 355 355 356
327 329 331 333 334 336 337 338 338 338 338 339 339 340 342 342 343 343 344 344 345 346 346 347 347 348 349 348 348 347 348 348 348 348 348 348 348 348 349 349 349 351 350 350 349 352 353 353 353 353 353 352 352 352 353 354 354 355 355 355 355 355 355
326 328 330 333 335 336 337 338 338 338 338 338 339 339 341 342 343 344 344 345 345 345 346 346 347 348 348 348 348 348 348 347 348 348 348 348 348 348 349 349 349 351 351 351 351 350 353 354 353 353 352 352 352 352 352 353 354 354 354 355 355 355 355
327 329 330 331 333 335 336 337 337 337 338 338 339 340 341 342 343 344 344 345 345 346 347 347 348 347 348 348 348 348 347 347 348 347 348 348 348 349 349 350 350 350 351 352 351 351 351 353 354 353 353 352 352 351 352 353 353 353 353 354 355 355 355
327 329 330 331 332 334 335 336 337 338 338 338 339 340 341 342 343 344 345 346 347 346 347 347 348 348 347 348 348 348 348 348 348 348 348 348 349 349 350 350 350 350 350 351 352 352 352 351 353 354 353 353 353 352 352 352 353 353 353 354 354 355 355
327 329 330 330 332 334 335 336 336 337 338 339 339 340 341 342 343 345 345 346 347 348 348 348 348 348 348 348 348 348 348 348 348 348 349 349 349 350 350 350 350 350 349 350 351 352 352 352 352 353 353 353 353 353 353 352 353 353 353 353 354 354 354
333 328 330 331 332 333 334 335 336 337 337 338 339 341 341 342 343 344 346 346 348 349 349 349 349 348 348 348 347 347 348 349 349 349 349 350 350 350 350 351 350 350 350 350 349 349 351 353 353 353 353 353 353 353 353 353 352 352 353 353 353 353 353
326 327 328 330 331 333 334 335 336 336 337 338 339 340 341 342 343 344 346 347 349 350 350 350 349 349 349 348 348 348 349 349 350 350 350 351 350 350 350 351 351 351 351 350 349 349 349 351 353 353 353 353 353 353 353 353 352 353 353 352 353 353 353
325 326 328 329 331 333 334 335 336 337 337 338 339 340 341 342 342 343 344 346 348 350 351 351 350 349 349 349 349 349 349 350 350 350 350 350 349 350 350 350 351 351 350 350 349 349 349 348 349 351 353 352 353 353 354 353 354 346 335 339 353 353 353
325 326 328 329 331 332 334 335 336 337 337 337 338 339 341 342 343 344 344 345 347 349 351 352 350 350 349 349 350 350 350 350 350 350 349 350 350 350 350 350 350 350 350 350 349 349 348 348 347 347 350 351 352 352 353 354 353 337 331 331 334 349 353
324 325 327 329 331 332 333 334 335 336 337 338 339 340 341 342 343 343 343 345 346 349 352 352 351 351 350 351 351 351 351 351 351 350 350 350 350 350 350 350 350 349 349 349 349 349 349 348 347 347 347 348 350 351 352 352 339 333 330 330 329 334 353
324 325 327 329 331 332 332 333 335 336 338 339 339 340 341 343 343 343 344 345 346 349 350 351 352 351 351 352 352 351 352 351 351 351 351 350 350 351 350 350 349 349 349 348 349 349 348 347 347 347 347 347 347 348 350 351 337 331 329 329 328 328 337
324 325 327 328 330 331 332 333 335 337 338 339 340 341 343 344 344 344 345 346 347 348 350 351 352 352 352 352 352 352 352 352 352 351 351 352 351 351 351 350 349 349 350 349 349 348 348 348 347 347 346 347 346 347 348 349 337 329 326 326 326 327 330
326 326 326 327 328 329 330 332 333 335 336 338 340 340 342 343 345 345 346 346 347 348 349 351 352 352 352 353 353 353 353 353 352 352 352 352 352 351 351 350 350 350 350 350 349 348 347 347 347 347 347 347 347 347 347 348 334 328 324 323 323 324 326
334 334 333 333 332 333 334 334 335 336 336 340 341 341 341 343 346 346 347 348 347 348 349 351 352 352 353 353 354 354 354 353 353 352 353 352 352 351 351 351 350 350 350 350 350 349 349 348 348 347 347 347 347 347 346 348 332 326 324 322 321 323 335
340 340 341 340 340 339 339 340 341 343 345 342 342 342 341 343 345 346 347 347 348 348 349 350 351 352 353 354 354 355 355 355 354 353 353 353 352 351 351 351 351 351 351 350 349 348 348 347 347 348 347 347 347 346 346 347 336 325 322 320 320 322 338
343 345 346 346 347 348 348 349 351 353 352 352 352 352 348 345 346 345 345 346 347 348 348 348 349 352 354 355 356 356 356 356 355 354 353 353 352 351 351 352 352 351 352 350 349 348 348 348 347 347 347 346 346 347 346 347 339 324 319 318 318 325 340
337 340 343 346 347 346 347 348 349 351 351 351 351 352 354 349 347 347 346 348 347 347 347 348 348 350 352 355 357 357 357 357 356 355 354 353 353 353 352 352 352 352 352 351 350 349 349 348 347 347 347 347 347 342 345 347 341 323 319 317 316 326 342
334 336 338 342 345 347 348 349 348 347 347 348 348 351 355 357 355 353 351 350 348 347 347 349 350 350 351 353 355 357 358 358 357 356 355 354 354 354 353 353 352 352 351 351 350 349 349 348 347 346 347 347 347 348 347 347 348 339 318 316 315 318 342
333 335 337 340 343 349 345 346 346 345 345 346 348 352 356 356 355 354 355 352 352 352 357 358 352 349 350 351 352 354 356 357 357 356 356 356 355 355 354 353 352 351 351 350 350 350 348 348 347 347 347 347 348 348 349 350 350 345 317 314 314 315 325
334 335 337 342 346 345 344 344 344 344 345 346 347 349 350 351 350 349 348 347 347 348 353 355 357 357 351 349 351 352 354 355 356 357 357 357 356 354 353 353 353 352 351 350 350 348 348 348 347 347 346 347 347 347 348 351 344 352 320 315 313 314 315
333 334 335 336 339 343 342 340 340 341 342 344 345 346 347 349 348 347 345 343 344 348 349 352 353 353 351 348 349 351 352 353 354 355 357 356 356 354 353 353 352 351 351 349 348 348 347 347 347 346 346 346 346 347 348 349 348 335 337 315 313 312 312
335 336 337 339 340 340 341 339 339 339 340 341 342 342 343 344 345 346 344 340 343 346 348 349 350 351 347 347 347 349 351 353 354 355 356 356 356 355 353 352 352 352 351 350 348 347 347 346 347 346 345 345 345 346 347 349 350 336 329 329 313 313 312
333 335 336 337 338 340 339 337 337 337 338 339 340 340 339 340 340 342 339 339 344 344 345 346 349 351 351 345 347 349 351 352 353 354 355 356 355 354 353 352 352 351 351 350 349 348 347 346 347 346 346 345 345 346 347 350 350 351 335 324 318 313 312
332 334 336 338 338 338 338 338 337 337 336 336 337 339 340 339 339 338 336 340 343 343 344 346 350 352 353 347 345 348 352 352 352 354 355 355 356 355 354 353 353 352 351 351 350 349 348 348 347 347 347 346 347 346 348 350 351 352 350 334 326 319 313
330 331 332 334 337 338 336 336 336 336 336 335 335 337 338 338 338 337 338 341 343 344 345 349 353 353 350 346 345 346 351 353 353 354 355 355 355 355 355 355 354 353 351 352 352 350 350 349 349 348 348 348 348 349 349 350 350 352 345 340 337 334 329
329 331 332 333 337 338 336 335 334 335 335 334 334 335 337 337 337 337 338 340 343 344 344 350 353 347 344 346 346 347 350 352 361 358 355 356 356 355 355 355 356 354 352 353 353 352 351 352 351 349 349 350 350 350 350 349 348 344 342 338 339 339 336
329 330 331 332 335 338 336 335 335 334 334 333 333 335 335 335 337 338 338 340 342 343 343 348 350 345 343 344 347 348 352 352 356 356 347 331 320 313 311 314 321 337 347 333 329 351 357 355 353 353 353 354 353 351 349 345 345 343 316 330 326 334 336
327 330 331 332 334 334 336 337 335 334 333 333 333 334 335 335 336 338 339 340 342 343 343 344 344 342 343 343 343 350 352 355 356 349 341 336 328 323 319 312 303 305 321 325 321 310 307 328 353 357 355 341 321 326 348 351 346 304 299 299 299 300 304
327 328 330 332 332 332 333 334 336 335 333 332 334 333 334 334 335 336 339 340 342 342 342 340 340 340 341 343 343 342 350 354 353 346 341 336 332 330 328 325 318 301 300 306 307 302 298 301 313 328 332 340 325 312 304 305 300 298 297 298 299 299 299
329 327 329 331 330 331 332 332 332 332 331 330 332 332 333 333 334 335 338 340 343 343 342 341 340 339 339 340 342 344 345 351 350 344 339 335 333 332 330 328 325 321 306 300 303 302 300 299 299 301 305 310 315 316 314 302 297 297 297 297 298 298 297

ECMWFFLT1_sfc_thetae_048.txt.gz
Theta_e
331 332 333 334 334 335 336 336 337 338 338 339 340 341 342 343 345 346 346 346 346 346 348 349 349 349 349 349 349 350 350 350 350 349 349 349 349 349 348 347 348 349 351 351 352 353 355 357 357 357 358 358 359 359 359 361 361 361 361 360 359 359 358
329 331 332 334 334 335 336 337 338 338 338 339 339 341 342 343 344 345 345 346 346 346 347 348 350 349 349 349 350 350 350 350 350 351 350 349 350 350 349 348 348 348 350 352 353 354 355 356 357 356 357 358 358 359 359 360 361 361 361 360 359 358 358
327 330 331 333 334 335 336 337 337 338 339 339 340 340 341 343 344 345 345 346 346 347 347 348 350 349 350 350 349 349 350 350 350 350 349 348 349 349 349 350 349 348 349 351 353 353 355 355 356 357 357 356 358 359 360 360 360 361 361 360 359 358 358
326 328 330 333 335 336 336 337 338 338 339 340 340 340 341 343 345 346 346 346 346 346 346 347 349 349 350 350 349 349 349 350 350 350 349 349 349 350 349 349 349 349 348 349 352 353 355 355 355 356 358 356 357 358 359 360 360 360 360 360 359 359 359
326 328 330 331 333 334 335 336 337 338 338 340 340 342 342 344 345 346 346 347 347 346 347 348 349 350 350 351 350 350 350 350 350 350 350 350 350 350 349 348 348 348 348 348 351 353 354 354 354 355 356 356 356 357 358 359 360 361 360 359 358 358 358
325 327 328 330 332 334 335 337 337 338 338 339 340 340 342 343 345 345 346 347 346 347 348 348 349 350 349 350 350 350 350 350 351 351 350 350 350 349 349 349 348 349 348 348 350 351 353 354 354 354 354 355 356 356 357 358 359 360 360 359 358 358 358
325 327 328 329 331 333 335 337 337 338 339 340 340 341 342 343 344 345 346 346 347 346 346 347 348 349 349 350 350 351 349 349 350 350 350 350 350 349 349 350 350 349 350 350 349 350 351 353 353 354 354 354 355 355 356 357 357 359 360 359 358 358 358
325 326 328 329 331 333 335 337 338 338 339 340 340 340 341 342 343 344 345 346 346 346 346 347 347 349 349 350 350 349 349 350 350 350 350 349 349 349 349 349 350 350 350 349 349 350 351 352 353 354 354 354 354 355 356 356 357 358 358 358 357 357 358
325 327 328 329 330 332 334 336 337 338 338 338 339 340 341 341 342 343 345 345 346 346 346 347 348 349 350 350 349 349 350 350 349 350 349 349 349 348 349 349 350 351 349 349 350 351 351 351 352 353 354 353 354 354 355 355 356 357 358 358 358 357 357
324 325 327 329 331 332 334 336 337 338 337 338 338 339 340 341 342 343 344 345 346 346 346 347 348 349 349 349 349 349 349 349 349 349 349 348 349 348 349 349 349 351 350 350 350 350 352 352 352 353 353 353 353 353 354 354 355 356 357 357 357 357 357
323 325 326 328 329 331 333 335 335 336 337 338 338 339 340 341 341 343 344 345 345 346 347 347 349 348 348 348 348 348 349 348 349 348 348 348 348 348 349 349 349 350 350 350 350 350 351 352 353 353 353 352 352 353 353 354 354 355 356 357 358 358 357
322 323 325 327 329 330 332 334 336 337 337 338 338 338 339 340 341 342 343 344 346 346 347 347 348 348 348 348 348 348 348 348 348 348 348 348 348 349 349 349 349 349 351 351 351 351 351 352 353 353 352 353 353 353 353 354 354 354 355 355 356 357 357
321 323 324 326 329 331 333 334 335 336 337 337 338 338 340 340 341 342 343 344 345 346 347 347 347 348 348 348 348 347 347 348 348 348 348 349 349 349 349 349 350 350 349 351 351 351 351 351 352 354 353 353 354 353 353 353 354 354 355 355 356 356 356
328 322 324 326 328 330 332 334 335 336 337 337 338 339 340 341 341 342 343 343 344 345 346 347 347 347 347 348 347 347 347 348 348 349 349 349 350 350 349 350 350 350 351 351 350 351 351 351 351 352 354 354 354 354 355 354 354 354 354 355 355 355 355
317 321 323 325 327 330 332 333 335 336 336 337 338 338 339 340 341 342 343 344 344 345 346 347 347 346 346 347 347 347 348 349 349 349 349 350 349 349 349 350 350 351 351 351 351 351 351 352 352 352 352 353 354 354 355 354 353 354 354 354 355 355 355
312 320 322 324 327 330 332 334 335 336 337 337 338 338 339 340 341 342 342 343 344 345 346 347 346 346 346 346 347 348 349 349 349 349 349 349 349 349 349 349 350 350 350 350 351 351 351 352 353 352 352 352 353 353 354 354 354 346 335 339 353 355 355
314 320 323 326 328 330 332 334 335 336 337 337 338 338 339 340 341 342 343 343 344 345 346 347 346 346 346 346 347 348 349 349 349 349 348 349 349 349 350 350 350 350 350 350 350 350 351 351 350 351 352 352 352 352 353 353 352 336 330 331 334 350 354
318 322 324 326 328 330 332 333 335 336 336 337 338 339 339 340 341 342 342 344 344 345 347 347 346 346 346 346 347 348 348 349 349 349 349 349 349 350 350 350 350 350 350 350 350 350 351 350 349 350 351 352 353 352 353 354 339 332 329 329 328 334 353
320 323 325 327 329 331 332 333 335 336 337 338 338 339 340 341 341 341 343 344 346 347 347 347 347 347 347 347 348 348 349 349 349 349 349 349 350 350 350 350 350 350 350 349 351 351 350 350 349 349 349 349 350 350 352 353 337 331 328 328 327 327 337
320 323 326 328 329 331 333 335 336 337 338 339 340 340 341 343 342 343 345 346 348 347 348 348 348 348 348 348 349 349 349 349 349 349 349 350 350 350 350 350 349 350 351 351 351 350 350 350 350 350 349 349 348 349 350 351 337 329 326 326 325 326 330
320 323 324 327 329 331 333 335 336 337 338 338 340 341 342 342 343 344 344 346 346 348 349 349 349 349 349 349 349 350 350 350 350 349 350 350 350 350 350 350 350 350 350 351 350 350 350 350 349 349 350 349 349 349 348 349 333 327 324 323 322 324 327
322 323 324 327 330 331 333 334 336 337 338 341 341 341 342 342 344 343 344 345 346 347 349 349 349 349 350 350 350 350 351 350 350 350 350 350 350 350 350 350 350 350 351 351 351 351 351 351 351 350 350 350 350 349 348 349 330 325 323 321 321 323 336
337 326 326 328 330 331 334 336 337 338 341 340 340 341 341 343 344 344 344 344 345 347 348 349 349 349 350 351 351 351 352 352 351 351 351 351 350 350 350 350 350 351 352 351 350 350 350 350 350 351 350 350 350 349 348 349 336 324 321 320 319 322 340
341 339 333 333 334 334 335 336 338 341 339 339 340 341 342 343 344 344 344 344 344 345 346 348 348 350 351 351 352 352 353 353 352 352 352 352 351 351 351 352 352 352 353 351 350 350 350 351 351 351 351 350 349 349 349 349 340 323 319 318 318 325 342
339 343 342 337 336 336 337 338 340 341 340 339 338 340 343 344 344 344 344 345 344 345 346 347 348 350 351 352 353 354 354 354 354 353 352 352 352 352 352 352 352 353 353 352 352 352 352 352 351 351 351 350 350 343 347 349 342 323 319 317 316 325 343
337 340 343 345 345 343 344 346 345 341 340 339 340 341 343 344 345 346 344 345 345 344 345 347 349 351 352 353 354 355 355 355 355 354 354 353 353 354 354 354 354 354 353 353 353 353 353 352 352 351 351 351 351 350 349 349 350 343 319 316 314 317 342
339 340 342 344 346 350 346 346 345 344 345 346 348 344 343 344 344 346 347 346 345 345 346 348 350 352 353 354 355 355 356 356 356 355 355 355 355 355 355 355 354 354 354 353 353 353 352 352 352 351 351 351 351 351 350 350 350 347 320 315 314 314 323
338 340 341 344 348 347 345 346 346 347 348 351 353 349 345 345 346 347 348 346 345 348 355 356 353 351 352 354 355 355 356 357 357 357 356 357 356 355 355 356 356 355 354 354 353 352 352 352 351 351 350 351 351 351 351 350 341 351 324 315 313 312 314
336 336 337 338 339 342 342 341 341 341 343 346 350 351 350 349 349 349 349 347 348 351 354 356 358 357 352 352 353 355 356 357 358 357 358 357 357 356 355 356 355 355 355 354 353 352 351 351 351 350 350 350 351 351 351 352 349 332 342 317 312 311 311
336 337 337 338 338 339 340 338 338 338 339 340 343 346 349 349 347 348 347 345 347 349 353 355 356 356 356 353 351 353 355 356 358 359 359 359 358 357 356 355 355 355 354 354 352 351 351 351 351 350 349 348 348 349 351 352 352 336 328 331 313 312 311
335 336 337 336 336 338 337 336 336 337 338 339 340 341 343 346 346 346 343 343 346 347 349 351 354 355 352 353 352 351 353 354 356 358 358 359 358 357 356 356 356 354 354 353 352 351 350 350 350 349 349 348 348 349 350 351 351 351 336 324 318 312 311
334 336 337 338 337 337 337 337 337 337 337 337 339 340 341 341 344 343 342 344 348 346 347 350 353 355 354 350 350 351 351 352 353 355 357 358 358 358 357 356 355 354 353 352 351 351 350 350 349 348 349 348 349 348 349 351 351 352 351 334 327 320 313
333 334 334 335 337 337 336 336 336 336 336 336 336 338 339 339 340 341 344 345 345 347 347 353 357 356 353 352 349 349 350 350 350 352 354 355 356 357 358 357 356 354 352 352 351 351 350 350 349 348 348 347 349 349 349 350 352 352 353 350 344 340 333
331 333 334 336 337 337 335 334 334 334 334 334 334 336 338 339 339 339 341 343 344 346 352 358 355 348 347 348 348 349 349 351 355 354 352 354 355 355 356 357 356 354 352 351 352 351 350 350 349 348 348 348 349 350 351 351 352 353 354 352 348 346 343
330 332 333 334 335 337 334 334 334 333 333 333 334 335 336 337 338 340 341 342 344 345 351 353 353 348 345 346 350 351 354 352 357 355 347 330 319 313 312 316 325 348 346 334 338 354 353 352 352 352 353 352 352 351 350 352 351 352 337 351 333 344 345
329 331 332 333 334 334 335 335 334 333 333 332 333 334 335 336 337 339 341 343 344 345 348 349 346 344 344 345 347 353 355 355 353 344 336 331 325 320 317 310 301 306 335 333 322 312 316 333 353 356 355 354 337 335 352 354 354 310 312 313 314 316 320
329 330 331 332 333 333 333 333 335 334 333 332 333 334 335 335 336 338 341 342 343 344 343 343 343 343 342 344 347 349 354 352 346 342 338 334 335 335 332 328 320 301 298 304 307 302 298 304 313 322 330 347 334 312 301 303 300 299 298 298 298 299 300
331 332 331 332 332 332 333 332 331 331 331 331 332 332 333 334 335 336 339 342 343 344 344 343 342 341 341 342 347 351 352 348 343 339 337 336 336 335 335 335 331 323 304 298 301 300 297 296 296 302 310 316 318 316 315 302 297 297 298 298 299 299 298

ECMWFFLT1_sfc_thetae_051.txt.gz
Theta_e
339 339 340 340 340 340 341 342 344 343 345 346 347 347 348 349 351 352 352 353 353 354 355 356 356 356 356 356 357 358 358 358 358 356 356 357 357 358 358 358 359 360 359 359 361 362 366 367 367 367 368 368 368 368 369 370 369 369 369 368 366 366 367
337 338 339 340 340 340 342 343 344 344 345 346 347 348 348 349 351 352 352 354 354 355 355 355 356 356 356 356 357 358 358 358 358 358 358 358 360 360 359 360 360 361 362 362 363 365 367 366 366 367 367 368 367 369 368 369 369 369 368 367 365 364 364
335 337 339 340 340 340 342 343 344 344 345 345 346 347 347 350 352 352 353 353 354 355 355 355 356 356 356 357 357 357 358 358 357 357 357 356 357 355 359 361 360 360 361 363 365 364 365 365 367 367 367 366 365 368 368 368 369 368 369 369 366 363 364
334 336 338 340 341 343 343 343 344 343 344 345 346 347 348 352 353 353 354 353 353 354 355 355 356 355 356 357 357 357 357 358 358 356 356 356 357 357 359 360 360 360 360 361 362 362 363 364 365 366 367 367 367 367 368 367 368 369 369 369 365 364 364
333 336 338 339 340 342 342 342 343 344 344 345 346 348 349 351 351 352 353 353 353 353 354 354 354 356 357 357 356 357 357 357 358 357 357 357 359 359 359 357 358 358 358 360 362 364 364 364 363 365 365 367 366 367 367 368 368 369 369 368 364 363 362
331 334 336 338 339 340 341 342 343 343 343 344 345 347 348 349 349 350 351 353 353 354 355 356 355 356 356 356 356 356 358 359 359 359 358 358 359 358 357 357 357 358 357 359 360 361 363 363 362 363 363 363 363 363 365 366 366 367 368 367 364 363 362
331 334 335 338 339 340 341 342 343 344 344 345 346 347 348 347 348 349 350 351 352 352 353 353 354 355 357 357 357 358 358 357 358 358 358 358 359 358 358 358 359 358 358 360 359 360 360 361 362 363 363 362 363 362 364 366 366 367 368 367 364 362 363
333 334 336 337 338 340 341 342 343 344 345 345 345 345 345 346 347 348 349 350 351 352 352 352 353 356 357 357 357 357 357 357 358 358 358 357 357 358 357 358 358 359 360 359 359 360 359 361 361 363 362 362 363 364 364 366 368 366 367 366 364 362 361
333 336 335 336 338 339 341 343 343 343 345 345 345 345 345 346 347 347 349 350 351 351 352 352 353 355 357 357 358 358 358 357 357 358 358 356 356 356 356 357 358 359 359 357 357 359 359 359 360 362 363 362 362 364 364 366 366 366 366 366 365 364 363
332 336 337 337 337 338 341 343 344 345 345 345 346 346 346 346 347 348 348 349 350 350 351 352 353 354 357 357 356 357 357 357 357 356 356 355 355 355 356 356 357 359 358 357 357 357 359 360 360 362 364 362 362 363 364 364 364 364 365 366 366 365 364
332 338 339 336 337 338 341 342 343 345 346 347 347 346 346 346 347 347 348 349 349 350 351 352 354 354 355 355 355 355 356 356 356 356 356 355 355 356 356 356 356 358 357 357 356 357 358 359 361 362 362 360 361 362 363 363 364 364 363 364 365 365 364
332 336 339 338 338 339 339 343 345 347 348 348 346 345 347 348 347 347 349 349 350 350 351 352 353 354 354 354 353 354 355 356 355 355 355 355 355 356 356 356 356 357 357 357 356 357 357 359 359 360 361 361 361 362 363 364 364 364 364 362 363 364 364
326 333 336 336 339 339 343 346 347 347 349 346 345 346 347 347 347 347 350 350 350 351 352 353 353 354 354 354 353 354 355 355 355 356 355 356 356 356 357 356 356 356 356 357 357 357 356 358 359 360 360 361 361 361 362 363 363 364 364 363 364 364 364
331 328 332 337 338 340 342 345 347 348 348 346 345 346 346 347 347 348 350 349 350 351 352 352 353 354 354 354 354 355 354 355 357 358 358 358 359 358 357 357 357 357 357 358 357 356 357 357 358 360 360 360 361 361 362 363 362 364 364 364 363 363 363
317 321 329 331 338 341 342 342 345 347 346 346 345 346 346 346 347 349 351 351 351 351 352 354 354 354 354 354 354 356 357 357 358 359 359 358 359 358 358 358 358 358 359 359 358 358 358 358 358 358 359 359 360 360 361 360 360 361 362 362 363 363 362
324 319 318 327 334 337 342 343 344 348 348 349 346 346 346 347 348 348 349 349 350 351 352 354 354 354 353 353 354 357 358 359 359 359 360 359 359 359 359 358 359 359 359 359 358 359 359 359 359 358 357 358 359 360 360 360 360 352 338 344 361 363 361
330 325 323 323 334 336 340 342 344 347 348 348 347 347 346 347 348 348 348 349 350 351 352 354 354 354 353 354 356 357 359 360 359 360 359 359 359 360 359 359 359 359 359 358 359 358 360 359 358 357 357 357 357 358 358 359 358 338 332 333 336 356 362
337 334 327 322 323 332 338 340 344 345 346 345 346 347 347 349 347 347 346 349 349 350 352 353 354 353 354 354 357 358 359 358 359 358 358 359 359 359 359 359 358 358 359 358 357 359 359 358 358 358 357 357 357 357 358 359 343 332 330 331 330 337 359
338 339 336 329 324 327 333 337 342 345 344 345 345 345 347 349 347 347 348 349 350 352 352 351 352 353 354 355 357 359 358 359 358 358 358 358 359 359 359 359 358 357 357 356 358 358 358 358 357 358 358 357 358 357 357 358 339 330 329 329 328 328 341
338 340 339 333 328 324 329 340 342 345 345 346 347 346 347 349 347 348 349 350 352 351 352 352 352 353 355 355 357 358 359 359 358 357 358 359 359 359 358 357 357 357 357 357 358 358 357 357 357 358 359 358 358 359 358 358 340 328 326 326 326 327 332
338 341 342 336 331 328 333 343 345 346 346 346 346 348 348 348 349 350 349 351 350 351 354 353 353 354 355 356 358 358 358 358 358 357 358 358 358 358 357 357 357 357 357 356 356 357 357 356 357 357 358 358 357 357 357 357 336 326 324 323 322 324 328
338 341 343 341 334 335 341 339 343 344 346 347 346 346 347 347 348 348 348 350 350 350 353 355 354 355 355 355 355 356 357 357 358 358 358 358 358 357 357 357 358 357 357 357 356 357 357 357 357 357 357 358 357 356 356 357 332 325 323 321 321 323 342
341 343 345 344 339 339 346 345 347 345 349 346 346 346 346 347 348 348 348 348 349 351 351 352 353 353 355 355 354 355 356 356 356 357 357 358 357 357 356 357 358 358 359 357 356 355 355 357 356 358 357 358 358 357 357 357 340 323 321 320 319 325 350
344 346 347 341 340 344 347 347 347 349 346 347 346 347 347 348 348 349 349 348 350 351 350 351 352 353 355 353 354 355 356 357 357 357 357 358 357 357 357 357 358 358 359 356 355 354 356 357 357 358 358 357 357 357 357 357 344 321 319 318 317 329 352
344 346 348 343 340 341 342 347 347 347 348 348 345 347 350 349 349 350 350 350 351 350 350 351 352 353 354 354 356 357 358 358 358 358 357 358 357 357 357 357 358 358 359 357 357 356 358 358 357 357 359 358 357 349 353 357 347 321 319 317 316 329 353
343 345 348 348 344 345 349 352 351 346 346 345 348 350 351 349 350 351 350 351 351 350 351 352 353 355 356 356 357 359 359 359 359 359 358 358 358 358 358 359 358 358 358 358 357 357 357 357 357 357 357 359 358 357 356 356 358 349 318 316 314 318 350
343 345 346 348 350 351 348 349 347 345 344 348 353 349 350 351 349 350 354 353 352 351 351 354 357 358 359 359 358 358 359 358 359 359 359 360 359 358 358 359 358 358 359 357 357 357 358 357 358 357 358 358 359 358 358 358 357 357 317 315 313 314 324
343 344 346 348 350 352 349 345 348 347 346 354 351 351 352 353 352 355 355 352 350 352 354 357 360 361 362 362 360 358 359 360 361 361 360 361 361 361 359 360 361 360 359 357 358 358 358 359 358 358 358 359 359 360 360 357 346 359 325 315 313 312 313
340 341 343 345 347 348 350 351 350 348 348 348 349 350 350 350 353 353 354 351 354 355 357 359 359 361 361 361 359 360 360 361 362 361 362 362 362 361 360 361 361 361 362 360 360 359 359 359 359 358 358 359 360 360 361 362 358 334 350 317 313 311 311
340 342 343 345 345 346 349 350 351 352 354 349 350 351 351 352 355 355 354 354 359 357 359 360 361 362 360 361 361 362 361 362 362 363 363 363 363 362 362 361 362 362 362 362 360 359 358 358 358 357 356 356 356 359 360 362 362 341 330 337 313 313 311
338 339 340 341 343 346 347 348 349 350 351 353 357 359 357 356 356 357 355 362 365 364 362 361 362 362 361 360 360 362 362 363 363 363 364 364 363 362 361 362 363 361 362 362 360 359 358 358 358 357 356 356 357 358 360 362 361 363 343 325 321 313 312
337 339 339 339 341 343 346 347 348 348 348 350 353 356 361 361 360 359 361 361 364 367 365 365 363 362 360 360 361 362 363 363 363 364 364 364 364 364 364 362 361 360 362 361 359 359 358 358 357 356 357 357 358 358 360 361 362 361 362 339 331 323 314
335 337 337 338 340 342 342 344 345 345 347 347 351 353 355 358 359 359 359 360 362 365 368 367 366 364 364 362 362 363 362 362 360 361 362 364 364 363 364 363 363 362 361 362 359 359 358 358 358 357 355 356 357 360 360 361 361 361 360 361 355 349 342
333 336 338 339 340 341 341 341 342 343 345 345 348 351 352 354 355 357 359 359 360 362 364 364 365 364 364 365 365 364 364 363 362 362 361 363 363 362 362 363 364 363 362 361 361 359 358 358 356 356 357 357 358 359 360 359 360 361 359 359 359 357 355
333 335 336 337 339 340 339 340 341 342 343 344 347 350 351 352 354 356 359 361 364 367 366 364 363 363 365 367 366 365 365 363 361 360 361 363 357 339 333 346 367 365 365 367 366 364 363 361 359 360 361 360 359 359 359 360 359 361 341 362 340 353 357
331 334 335 338 341 341 340 340 341 342 342 343 346 348 350 351 353 355 356 358 361 365 367 365 363 363 363 363 363 362 361 361 359 360 358 352 343 334 323 310 299 307 343 360 325 313 307 314 355 360 362 360 362 356 358 359 361 314 323 325 322 321 324
329 333 334 336 338 339 340 340 341 342 341 342 344 346 348 348 349 352 354 356 358 362 365 363 362 362 362 363 362 359 359 358 360 358 352 348 345 342 337 332 320 300 296 304 306 301 294 294 296 305 314 348 361 325 304 303 297 296 298 303 305 306 306
329 333 334 336 336 336 336 337 339 340 340 342 343 344 346 345 346 347 349 352 356 359 362 364 363 362 363 365 364 359 361 357 351 348 348 348 348 348 345 341 334 323 302 297 300 300 297 296 295 295 297 299 314 332 334 307 296 296 297 297 297 298 298

ECMWFFLT1_sfc_thetae_054.txt.gz
Theta_e
341 343 345 347 348 348 349 350 352 351 352 353 354 354 354 355 356 357 357 359 360 361 363 363 363 363 362 361 362 364 364 364 364 362 362 362 361 361 361 359 359 360 358 356 359 360 365 367 365 366 367 368 367 367 369 370 370 367 367 369 367 365 364
336 339 342 345 347 348 350 352 353 352 352 353 354 356 355 356 357 357 358 360 361 362 362 363 363 363 362 361 361 362 363 362 364 364 363 363 363 362 362 363 361 363 363 359 359 365 366 367 367 367 366 368 367 368 368 370 370 369 365 367 365 364 365
334 337 340 343 345 347 350 350 352 352 353 353 354 354 354 356 357 358 359 359 361 362 363 363 364 362 363 363 362 362 362 362 362 361 362 361 363 360 363 365 364 362 363 362 362 364 368 368 370 368 367 365 363 366 368 368 370 368 367 367 366 363 365
332 334 338 343 346 349 350 350 351 352 352 353 354 354 355 357 359 359 359 360 360 361 362 363 363 362 362 363 362 362 362 362 363 361 362 363 363 362 363 364 365 363 362 362 361 363 363 367 367 369 369 367 366 364 366 365 365 368 368 368 364 364 366
330 333 336 341 345 347 348 349 350 352 352 353 354 356 356 357 357 358 359 360 360 360 361 361 361 362 363 363 362 363 362 363 362 362 363 363 365 365 363 362 363 362 360 362 364 365 366 367 366 368 369 369 367 366 366 367 365 367 368 368 365 363 362
326 329 331 336 343 345 347 348 349 350 351 351 353 354 355 356 356 356 358 359 359 360 362 362 361 362 361 362 362 362 364 364 364 364 364 364 364 363 363 363 362 363 359 362 363 364 366 366 364 365 366 366 363 361 363 364 364 364 366 367 366 362 360
328 330 330 332 339 344 347 348 348 350 351 351 353 355 355 355 355 356 356 358 359 359 358 359 359 360 362 362 362 363 363 363 364 364 364 363 363 364 364 364 364 364 363 364 364 365 365 366 365 365 366 364 364 361 363 365 364 364 365 367 366 365 365
328 329 334 336 338 343 346 348 349 350 351 351 352 352 353 353 354 355 356 356 357 357 357 358 358 360 362 362 362 362 363 364 364 364 364 362 362 363 363 364 364 365 365 363 365 366 365 367 366 365 366 365 365 366 364 367 369 364 364 365 365 365 362
328 332 335 336 338 340 344 349 350 349 351 351 351 352 352 353 353 353 355 356 356 356 356 357 358 360 362 362 362 362 362 363 363 364 363 362 361 360 361 363 365 365 364 362 363 366 365 365 365 367 368 366 365 367 367 368 368 367 364 364 366 366 363
328 332 339 338 339 340 345 348 351 351 351 350 351 352 352 352 353 354 354 354 355 354 355 356 358 358 361 361 361 362 363 363 363 362 361 360 360 360 361 361 362 364 363 363 362 363 366 365 365 367 369 368 367 367 369 368 367 367 367 366 366 366 366
327 335 340 339 339 342 345 346 349 350 350 353 351 350 352 352 353 353 354 354 354 354 355 357 358 358 360 361 360 360 361 362 361 361 361 360 359 360 361 360 360 363 363 363 361 362 364 365 366 367 368 367 367 368 368 368 369 368 366 366 367 367 365
338 339 344 346 345 343 343 347 350 352 353 353 351 350 352 353 353 353 353 354 355 355 356 356 357 358 359 360 360 360 360 362 361 361 361 361 360 359 360 359 359 361 363 363 362 362 362 365 365 365 367 369 369 369 369 369 369 369 368 364 364 366 366
329 334 339 342 345 345 348 351 351 352 354 351 350 351 352 352 352 352 354 354 354 355 356 357 358 359 359 360 359 360 360 360 360 362 361 361 360 360 360 360 359 359 361 363 362 361 360 363 366 366 367 369 369 367 369 369 368 369 370 367 365 365 366
336 326 333 338 342 344 345 348 352 353 353 352 350 351 352 352 352 352 354 353 354 355 356 357 358 359 359 361 360 361 360 361 363 363 363 363 364 363 361 361 360 361 362 364 363 361 361 361 364 366 366 367 368 368 368 369 369 370 371 370 366 364 365
334 326 329 334 341 345 346 346 352 354 353 352 352 351 352 352 352 354 355 355 355 355 356 358 358 358 358 360 360 362 363 364 364 365 365 364 365 364 363 363 363 363 364 365 364 363 362 362 363 365 365 366 367 367 367 366 366 367 369 369 368 366 363
332 333 331 327 338 342 347 348 353 355 355 355 352 352 350 352 353 352 353 353 354 355 356 357 358 358 358 359 360 362 364 365 366 365 366 365 365 366 365 364 365 364 365 365 365 365 365 365 364 363 364 364 366 366 365 365 365 360 344 351 367 367 363
338 341 343 345 341 335 345 348 349 355 356 355 353 352 351 352 353 353 352 353 354 355 356 357 358 358 359 360 361 363 365 365 365 366 366 366 367 367 366 366 365 366 366 366 366 366 367 365 363 362 363 364 364 364 364 363 362 343 334 336 342 362 367
340 343 344 345 348 350 342 342 347 350 354 353 352 351 351 353 353 353 352 353 354 354 355 357 358 358 360 360 363 364 365 365 366 366 366 367 367 367 368 366 366 366 367 365 365 367 366 364 364 365 363 363 363 363 363 363 348 333 332 334 334 343 365
340 342 344 347 347 349 349 345 340 348 350 351 350 350 351 353 353 353 353 355 355 356 355 355 356 359 361 361 363 365 366 366 366 366 367 367 367 368 367 367 367 366 365 364 366 366 366 367 365 365 364 363 363 362 362 363 342 330 330 331 331 332 346
341 342 344 346 348 349 351 352 348 341 349 352 353 351 352 354 353 354 355 355 357 356 357 357 358 360 361 362 363 366 367 367 367 366 367 368 368 368 367 366 366 366 365 365 366 366 366 365 365 366 366 365 364 364 364 364 341 328 327 328 328 329 337
340 342 344 346 348 349 352 355 353 346 342 349 351 352 352 353 354 355 355 356 355 356 358 358 359 361 361 362 364 367 367 367 367 367 367 368 367 367 367 366 367 366 365 363 363 365 365 365 365 366 366 365 364 363 362 362 333 326 324 324 324 326 332
339 341 343 346 348 350 352 353 353 346 339 346 351 350 351 352 353 353 353 355 355 355 357 359 360 360 362 362 364 366 366 366 366 367 367 367 367 366 366 366 366 366 365 364 363 365 365 365 365 365 365 365 365 362 362 362 331 323 323 322 322 325 348
329 338 344 348 349 350 354 356 356 351 343 342 349 349 350 352 353 353 352 352 354 357 356 358 359 360 362 362 363 364 365 366 365 366 366 366 366 365 365 365 366 366 366 363 362 361 362 364 363 366 364 364 365 364 363 363 341 321 320 320 320 328 356
328 335 346 348 351 353 355 355 350 348 342 344 349 349 350 352 353 353 353 352 354 355 355 357 358 360 362 361 363 364 366 366 366 365 365 366 365 364 365 365 366 365 366 363 361 359 361 363 363 364 365 363 364 363 363 363 346 320 318 318 318 334 358
325 331 346 350 350 351 353 350 349 346 345 348 348 348 351 353 354 352 353 354 354 355 356 356 358 360 361 362 363 365 366 365 366 365 365 365 365 364 364 364 365 366 366 363 363 361 363 363 362 363 364 362 363 355 359 363 349 319 319 316 316 335 360
324 335 347 349 350 353 356 355 351 347 344 347 350 349 354 353 353 354 353 354 354 354 355 357 359 361 363 363 364 366 366 366 366 366 365 366 366 366 365 365 365 365 364 363 363 362 360 361 362 362 362 363 363 362 362 362 366 344 316 316 315 321 358
326 343 347 348 349 353 352 351 349 346 346 350 352 351 353 353 352 353 356 355 355 354 356 359 361 363 365 365 363 363 365 365 365 365 366 366 366 365 364 364 364 364 364 362 362 362 362 361 361 360 362 362 363 363 363 363 363 361 315 315 314 316 330
331 347 348 350 351 352 353 350 351 350 347 351 351 352 353 355 354 355 357 355 354 356 357 360 362 363 364 364 363 362 363 364 365 366 366 367 367 366 364 365 366 365 364 362 362 363 363 363 362 360 361 362 363 365 365 363 352 366 321 315 313 314 316
326 343 345 348 350 351 352 351 348 347 348 350 352 351 353 353 355 356 356 354 357 358 360 360 361 363 364 364 362 363 364 365 365 365 366 366 366 366 364 365 365 365 366 365 364 363 363 364 364 363 361 363 364 365 367 368 366 338 346 316 313 311 313
323 343 344 348 348 350 352 358 359 351 350 351 353 353 354 354 357 358 357 358 362 360 360 362 363 365 364 363 362 362 364 364 365 367 366 366 366 365 365 364 364 364 365 365 363 362 361 360 362 361 359 359 359 362 363 367 367 345 333 334 312 313 311
323 340 342 345 347 350 352 354 357 358 352 354 355 356 358 358 360 361 360 362 363 362 362 363 364 364 363 363 362 364 365 366 366 366 366 366 365 364 363 364 365 363 365 366 363 362 361 361 361 360 359 359 359 362 363 364 367 369 348 328 317 313 311
321 341 341 343 345 348 351 351 354 356 357 359 356 356 359 359 361 362 362 364 364 364 364 365 365 366 365 364 364 364 366 365 365 366 366 366 365 366 366 365 363 362 365 363 361 362 360 360 359 359 361 360 362 361 363 364 367 368 367 339 328 320 313
319 338 340 340 342 346 349 351 349 352 355 357 360 361 359 360 362 364 365 367 364 363 368 368 368 365 366 366 365 367 366 365 364 364 365 366 364 365 366 365 365 365 363 363 362 363 362 362 361 360 358 359 360 363 363 365 365 365 367 364 357 352 338
319 337 341 342 343 344 345 346 347 351 352 354 358 361 364 366 367 367 368 367 364 363 368 367 367 365 366 366 365 365 366 365 364 363 363 364 364 363 364 366 366 365 366 365 364 363 362 362 359 359 361 360 361 363 364 364 365 366 366 365 365 362 358
323 338 339 341 342 342 342 343 345 348 349 352 355 358 361 363 365 367 370 368 367 367 367 365 365 366 366 366 365 365 367 366 364 363 364 365 368 352 338 348 371 367 367 370 369 366 365 363 362 362 364 363 363 362 363 363 365 367 334 366 332 369 365
323 335 337 340 341 342 341 342 344 345 347 351 354 356 356 358 361 363 364 369 370 371 368 368 366 365 364 364 362 362 365 364 361 362 362 364 363 345 330 310 299 309 337 360 321 307 304 321 365 361 366 363 359 344 363 363 358 309 309 311 307 303 308
322 330 333 336 338 339 339 340 342 343 345 348 351 353 355 356 359 361 364 364 367 368 367 369 364 363 363 363 361 358 362 360 360 363 364 364 364 354 349 343 328 300 296 304 308 300 296 296 298 301 311 359 353 322 304 306 301 300 300 301 304 303 303
321 327 329 332 334 336 338 339 339 340 341 344 347 349 351 352 354 357 359 363 366 369 369 369 365 361 359 361 361 361 366 366 364 364 363 365 365 360 356 352 346 333 304 297 299 299 296 295 295 297 302 310 332 340 333 306 298 300 301 301 301 304 303

ECMWFFLT1_sfc_thetae_057.txt.gz
Theta_e
333 337 337 342 345 343 345 347 352 354 354 355 355 354 353 355 356 357 358 361 363 364 366 367 365 365 363 363 363 364 365 365 365 362 360 359 357 358 360 359 358 356 354 354 358 355 361 362 361 361 363 366 366 366 368 370 369 366 366 368 367 364 364
335 336 340 340 343 346 347 352 353 355 355 356 356 356 355 355 357 357 359 362 364 365 366 366 366 365 365 364 364 367 366 365 366 365 363 362 362 361 361 362 360 359 359 356 357 360 361 362 361 362 362 365 366 368 366 368 370 368 365 367 366 365 365
334 336 337 343 341 340 344 346 349 354 356 355 356 356 355 358 358 359 360 361 363 366 366 366 366 366 366 366 366 366 366 365 365 364 363 361 362 359 361 363 362 359 358 357 359 358 360 362 364 364 363 365 363 365 367 367 369 367 366 367 365 363 366
333 335 338 344 342 342 345 348 348 354 355 357 357 357 357 359 359 360 360 362 363 364 365 366 366 365 366 365 364 366 366 367 366 365 363 362 362 362 360 362 363 361 360 358 355 357 357 361 364 365 366 365 364 362 365 365 365 367 366 367 364 364 366
333 335 338 338 343 346 344 347 350 355 354 355 358 359 359 359 358 359 361 362 363 364 365 365 365 365 366 366 365 365 366 366 365 365 365 363 365 365 361 360 362 360 360 361 360 359 361 362 362 364 364 365 363 363 364 365 363 366 366 367 365 363 362
328 332 336 339 339 342 346 347 346 350 354 354 356 358 358 358 358 358 360 362 363 365 366 366 365 366 365 365 363 363 364 365 366 367 364 364 365 363 363 362 361 362 358 361 361 358 360 361 360 363 362 362 361 358 361 363 362 363 365 366 365 362 359
326 330 333 339 339 343 346 347 348 351 354 355 356 358 358 357 358 358 359 360 362 363 363 364 364 364 365 364 362 364 364 362 365 364 363 363 365 365 365 364 363 362 359 363 360 360 359 361 363 364 363 362 361 358 360 364 363 363 364 365 365 365 363
325 328 333 337 339 340 341 344 348 348 349 353 355 356 357 357 357 358 359 359 361 362 362 362 363 364 365 365 362 362 363 363 364 365 364 362 364 364 365 363 362 364 364 359 361 361 360 363 362 362 362 361 360 361 359 364 365 361 362 363 364 364 362
325 328 331 333 337 341 342 344 344 345 350 350 353 356 356 357 357 357 358 359 360 361 361 362 362 363 366 364 363 363 363 363 364 365 363 361 362 362 363 363 364 364 363 359 359 362 362 363 362 363 364 363 362 363 360 364 363 362 362 363 364 364 361
326 328 331 332 336 337 336 340 347 350 351 349 354 356 356 357 357 358 358 359 360 359 361 361 361 362 365 363 362 363 364 364 364 362 361 360 360 361 361 360 362 363 363 361 357 359 363 363 364 363 366 363 363 364 363 362 363 363 362 362 363 364 364
326 332 333 332 334 335 343 341 347 351 351 357 356 354 357 356 357 357 357 358 358 359 360 361 361 360 363 362 362 362 363 362 362 361 360 360 360 360 360 358 359 362 362 361 357 357 361 364 365 366 366 363 363 364 365 364 366 366 363 362 362 364 364
327 329 334 335 335 335 337 343 350 355 357 357 354 354 357 358 357 356 357 359 359 358 359 359 359 360 362 362 360 361 362 361 360 360 361 360 359 358 359 357 356 358 362 362 359 357 358 363 363 364 367 368 366 366 367 368 368 368 366 361 361 362 363
330 336 334 333 337 336 346 356 350 356 361 354 353 353 355 356 357 356 358 358 358 359 359 359 358 360 361 361 359 360 360 360 360 361 360 360 359 358 358 357 356 356 359 361 360 357 355 359 364 365 367 369 368 367 368 369 368 369 368 365 363 362 363
338 328 340 343 345 347 343 354 353 355 356 354 353 353 354 356 356 356 358 358 359 359 358 358 358 359 361 361 360 361 360 360 361 362 362 362 364 361 358 358 356 356 358 362 360 358 356 356 362 364 366 369 369 369 370 370 368 370 371 368 363 362 363
330 327 330 331 338 344 347 346 354 357 354 355 354 353 353 354 356 357 358 359 359 358 358 360 358 358 360 361 361 362 363 364 363 362 364 364 365 362 360 360 360 360 360 363 362 359 358 357 359 364 365 367 369 369 368 367 367 367 368 368 366 363 361
331 332 332 331 338 339 345 347 352 357 358 359 355 354 352 354 356 355 356 357 358 359 358 359 359 360 360 360 361 363 365 368 367 366 365 365 367 367 364 362 362 360 362 361 362 364 362 362 360 361 364 364 367 367 366 367 367 361 349 356 367 365 359
331 332 333 337 345 344 349 346 348 355 359 359 357 355 353 354 356 356 356 357 357 358 358 359 360 359 360 361 363 364 367 368 367 368 368 369 368 368 367 366 362 363 366 365 364 366 368 363 358 357 361 363 363 365 364 363 362 346 338 341 348 365 365
332 333 334 335 341 344 348 347 348 349 353 355 356 355 354 356 355 355 354 356 356 356 357 358 359 359 362 362 365 368 367 367 369 368 368 369 369 369 369 366 365 366 365 362 363 367 364 361 360 362 359 361 362 362 363 362 350 334 335 337 338 349 367
333 334 334 335 337 344 347 346 349 352 349 354 355 354 353 355 354 355 356 357 357 358 357 357 358 360 363 363 365 368 368 369 368 368 368 369 369 370 369 368 367 364 362 361 365 366 367 367 363 363 361 360 362 361 362 362 341 331 333 335 335 336 352
337 338 339 339 341 344 349 352 355 357 358 358 355 355 355 356 354 356 357 356 358 357 359 359 360 361 362 365 367 369 369 369 369 368 370 370 370 371 369 367 367 365 364 364 366 367 366 365 365 365 366 363 363 365 363 363 338 330 329 332 331 334 341
334 335 336 339 341 342 344 350 356 357 358 355 354 354 356 355 354 357 357 357 356 358 363 360 362 363 363 365 367 369 369 370 370 370 370 371 371 371 369 368 368 367 366 364 365 367 367 365 365 365 365 362 361 363 362 359 332 327 326 327 328 330 337
329 331 333 337 340 342 345 346 351 354 356 359 359 356 352 354 354 353 354 356 355 357 358 361 364 361 363 364 366 368 369 369 369 370 371 371 370 370 370 369 370 369 368 366 363 366 368 368 365 365 365 365 363 361 361 360 325 326 325 325 326 328 352
328 330 332 335 338 341 346 349 351 356 358 359 359 357 353 350 353 353 354 354 355 358 357 358 361 361 364 364 365 366 369 369 369 370 370 370 370 371 369 369 370 370 370 366 363 362 364 367 365 367 367 367 366 363 362 362 334 323 322 323 323 331 359
327 329 331 333 338 341 345 348 351 355 356 358 358 357 355 351 354 354 355 354 355 356 356 356 357 360 364 363 365 367 369 370 370 370 370 371 370 370 370 370 370 369 370 366 362 359 362 365 365 365 367 366 366 365 363 362 344 318 320 320 319 337 360
324 326 329 332 335 338 343 348 352 354 357 356 355 354 352 351 354 353 355 356 354 356 356 356 358 360 363 364 366 369 370 370 370 370 371 370 370 369 369 369 370 370 370 366 365 362 362 363 363 363 365 364 365 360 361 362 348 317 320 318 317 339 364
322 324 327 331 336 340 344 351 354 354 353 353 354 354 351 348 353 356 354 354 353 354 356 357 359 362 366 366 367 370 370 371 371 371 371 371 371 370 370 370 369 369 368 368 365 362 360 358 360 361 362 362 364 365 364 364 362 336 317 316 316 324 362
322 324 326 330 334 338 343 350 352 351 353 356 357 352 349 347 352 355 358 357 356 355 356 359 362 364 368 368 367 368 371 370 371 370 371 372 371 370 370 369 368 368 368 365 363 362 361 358 358 358 360 360 361 361 364 364 365 345 314 315 315 319 334
320 322 327 331 333 337 344 351 352 353 353 357 354 351 349 353 357 360 362 357 355 358 359 362 364 366 368 368 367 367 369 369 371 371 371 372 372 371 368 369 369 368 367 365 364 365 364 364 360 357 358 359 359 361 362 363 355 360 317 316 313 316 321
316 319 323 327 332 336 346 351 350 351 355 353 351 350 350 351 358 362 361 357 360 358 362 363 364 366 368 368 366 368 369 370 371 370 371 371 371 369 368 368 367 368 369 368 367 365 363 365 363 360 358 359 359 361 364 368 368 342 335 315 313 313 316
317 319 322 326 330 334 349 351 353 353 358 354 352 352 353 354 360 361 359 360 365 362 363 365 366 369 368 368 367 367 369 370 370 371 371 371 370 369 369 368 367 368 368 368 365 363 363 363 364 362 358 357 357 359 360 367 367 343 331 327 313 313 314
315 317 321 324 327 336 350 353 354 354 356 355 355 355 358 356 361 363 361 364 368 370 366 365 367 366 367 366 366 368 370 370 371 370 370 371 370 369 367 368 368 366 368 368 365 363 363 364 364 363 360 358 358 359 361 364 372 369 339 322 315 313 313
315 318 321 325 330 346 352 354 353 352 354 358 354 354 360 357 358 363 363 364 368 369 370 367 367 367 368 367 367 368 368 368 369 369 370 370 370 370 369 368 365 365 366 365 363 364 363 362 361 360 361 360 361 360 361 364 365 368 359 332 323 319 314
314 317 321 324 335 346 351 353 351 352 355 357 360 355 355 357 358 363 366 368 365 365 370 369 368 367 367 367 366 368 368 366 366 366 367 369 368 368 368 367 366 365 364 364 362 363 363 362 361 360 359 359 360 361 362 363 364 364 366 354 344 340 333
314 317 322 325 338 345 348 352 354 354 357 357 362 365 365 358 361 363 365 364 364 363 368 368 368 366 367 366 366 365 367 367 366 365 364 365 365 364 364 366 366 364 364 363 363 360 360 361 359 359 359 358 360 361 362 361 363 364 365 361 355 353 347
315 318 322 326 331 342 343 349 352 353 355 357 360 363 366 369 365 364 365 366 365 369 367 366 366 368 368 366 365 365 367 367 365 364 364 364 368 357 346 369 366 364 365 367 366 365 363 362 360 361 362 362 361 360 360 364 363 367 346 371 341 355 357
316 318 320 324 327 340 343 344 348 351 353 355 360 359 360 363 367 369 365 367 366 369 368 369 367 367 366 365 365 364 364 364 361 363 362 362 360 346 331 308 298 310 359 361 321 312 306 327 368 375 363 362 364 356 361 365 368 319 315 324 326 327 330
315 315 317 321 325 336 341 343 345 349 350 353 356 357 358 358 359 364 367 369 367 366 367 368 364 363 364 364 363 360 362 360 360 362 365 364 361 355 350 346 333 301 295 306 309 302 298 297 299 310 330 368 360 335 309 317 312 306 308 309 310 310 317
316 316 318 320 323 330 340 341 343 344 346 349 350 351 354 356 358 361 363 366 367 367 369 368 366 362 362 364 362 367 368 363 363 364 364 365 365 361 358 356 350 339 306 296 301 300 297 296 297 302 318 326 337 346 348 318 306 304 305 306 306 307 309

ECMWFFLT1_sfc_thetae_060.txt.gz
Theta_e
337 341 343 344 344 344 347 348 349 348 349 351 352 350 350 350 353 355 355 358 359 359 360 360 362 362 359 358 360 360 359 358 357 355 354 353 351 355 358 356 356 357 354 356 356 358 362 365 364 364 366 369 368 370 372 372 372 369 374 375 372 371 370
338 339 341 343 345 345 346 349 350 348 351 353 353 353 351 351 354 354 356 360 360 361 360 361 363 362 361 358 360 361 360 359 359 358 356 356 356 357 360 361 359 360 360 357 361 360 364 362 366 363 365 367 366 370 369 371 371 371 369 372 371 370 373
336 336 339 342 343 343 346 346 347 348 351 349 352 351 352 354 355 355 357 359 361 362 361 362 363 362 362 360 360 361 361 360 361 359 355 354 355 350 357 363 362 361 358 359 364 360 361 360 366 364 364 364 363 369 369 370 371 370 371 372 369 367 371
337 336 339 340 342 346 349 350 351 350 353 353 354 354 353 353 357 357 358 359 360 361 361 361 361 362 363 361 360 360 361 361 360 358 355 354 355 353 355 361 363 360 359 356 357 359 356 360 362 365 366 365 366 366 366 367 367 369 369 370 369 368 370
335 336 337 336 339 347 348 348 349 352 351 351 353 354 354 354 355 356 358 359 361 361 362 361 361 362 363 362 359 360 361 361 361 360 358 358 359 356 355 354 359 358 359 357 357 361 363 362 361 363 363 366 366 366 367 367 366 369 369 369 368 366 366
333 334 337 341 343 344 345 347 349 349 349 349 351 353 353 356 356 359 354 358 361 363 364 363 361 363 361 361 359 360 363 363 362 364 361 360 361 359 356 357 358 358 356 359 357 357 364 361 361 361 361 362 362 361 362 364 363 366 367 367 366 364 361
329 340 340 340 340 340 343 345 347 351 351 351 352 353 355 351 351 355 354 357 360 362 362 362 362 361 362 362 361 363 363 361 363 361 362 358 361 360 359 358 359 358 358 361 358 357 357 361 361 362 362 361 362 360 360 364 363 364 366 366 367 368 367
332 345 341 341 342 343 342 344 347 347 349 349 351 354 353 353 351 351 354 352 359 362 362 361 362 362 363 364 360 360 361 360 360 361 361 357 357 359 361 359 359 362 361 358 361 360 355 360 360 364 363 362 362 361 362 365 365 362 364 365 365 365 362
328 335 341 340 342 343 345 345 345 347 349 351 351 353 352 352 349 351 353 355 356 360 361 362 363 363 365 363 361 362 362 363 361 360 360 356 357 357 358 359 359 363 361 357 357 361 358 358 358 362 363 362 362 363 362 366 364 363 363 364 365 364 361
327 331 342 340 342 339 342 340 346 348 351 350 348 350 353 352 353 352 352 353 354 358 361 362 362 362 364 363 361 361 363 362 363 360 358 358 355 356 358 359 358 362 361 358 357 358 360 359 359 362 364 363 364 363 361 364 363 362 363 364 364 364 364
326 329 333 338 342 341 343 344 345 348 349 350 348 347 351 353 352 350 352 353 356 358 361 363 363 362 363 362 360 360 361 360 360 359 357 356 355 357 358 359 359 360 359 358 356 358 358 360 362 363 365 362 363 362 361 364 362 361 360 362 363 364 363
334 331 332 332 341 346 347 348 348 349 349 350 349 346 350 351 353 353 352 354 355 354 360 362 363 362 363 363 361 360 359 358 357 357 357 356 356 357 358 358 360 359 359 359 357 358 357 360 361 362 364 363 363 364 362 363 363 362 361 359 361 363 363
330 341 333 334 338 343 343 346 348 351 351 349 347 349 350 352 352 352 353 354 354 357 359 362 363 363 363 362 360 358 358 357 358 359 359 357 356 357 358 358 358 359 358 359 358 355 356 358 361 363 364 364 364 363 363 363 363 364 364 362 361 362 362
339 328 334 340 341 344 345 348 349 350 351 350 349 346 347 352 351 352 353 352 357 358 359 361 362 363 363 362 360 359 358 359 359 360 360 359 359 359 359 359 359 360 360 360 359 355 355 357 359 364 364 364 364 364 365 365 363 365 366 364 362 361 362
330 332 335 338 342 346 351 347 350 353 351 351 347 347 348 351 352 354 356 357 359 357 359 362 362 361 361 362 361 360 359 360 361 362 363 361 360 360 360 359 359 360 361 361 360 358 355 356 358 360 361 363 364 363 364 364 363 364 366 365 363 362 360
330 331 333 335 338 340 348 348 348 359 357 354 350 350 349 352 355 355 355 356 358 359 359 363 361 361 361 361 361 361 362 363 362 362 363 362 361 362 361 360 361 360 360 362 361 361 359 357 359 360 360 361 365 365 363 363 363 358 348 353 362 361 358
332 332 334 334 339 338 342 345 347 353 344 344 353 355 354 356 357 356 355 356 356 359 360 361 362 361 361 361 361 363 364 364 363 363 363 363 363 362 362 362 361 361 361 362 361 361 363 359 358 359 360 360 362 364 363 362 361 347 338 341 348 360 360
333 334 335 337 338 340 339 342 349 348 350 347 347 344 353 358 359 356 353 355 355 357 358 359 360 359 360 362 364 365 365 364 364 363 363 363 363 363 363 363 362 361 361 361 361 362 362 360 358 358 360 361 362 363 364 364 352 336 335 337 338 349 361
330 331 332 335 336 337 338 342 344 349 352 353 345 345 351 351 353 358 354 356 357 358 356 357 357 359 361 362 364 366 365 365 364 364 363 364 364 364 363 363 362 361 360 360 362 362 361 360 359 358 359 361 362 362 364 364 345 332 332 335 335 337 353
329 330 332 334 335 337 340 342 344 344 348 353 355 353 353 354 350 352 355 355 358 357 358 358 359 360 361 363 365 367 367 366 365 364 364 365 365 364 363 362 362 361 360 359 361 362 361 361 360 360 360 360 363 363 363 363 341 329 329 332 333 335 342
326 328 329 331 332 334 337 340 342 346 346 347 352 356 357 355 348 350 353 360 353 358 360 360 361 362 362 363 366 368 367 367 366 365 365 365 366 365 363 362 362 361 359 356 358 361 362 360 359 360 360 359 362 363 360 361 333 326 326 328 329 333 339
324 325 326 328 330 333 336 337 340 342 344 350 350 351 352 353 353 347 345 349 351 351 356 361 364 363 362 364 366 368 368 367 366 366 366 366 366 365 364 362 363 362 360 357 356 360 363 364 361 360 360 360 359 359 359 358 327 325 325 326 328 331 350
324 324 325 327 329 331 335 338 340 342 347 347 349 351 345 346 350 350 346 346 344 347 353 356 362 364 363 364 366 367 367 366 366 367 367 366 365 365 364 363 363 363 363 359 357 356 359 361 360 362 360 360 360 359 360 361 331 323 323 324 326 333 356
323 324 325 326 329 331 334 336 339 342 344 347 350 353 356 355 351 350 350 347 346 348 352 354 356 364 364 363 365 367 368 367 367 367 367 366 365 365 365 364 364 363 364 360 357 355 358 362 363 363 361 360 360 359 360 361 339 318 321 323 322 336 358
322 322 323 325 326 328 331 334 337 340 344 348 350 353 355 355 356 353 350 350 347 350 350 352 356 362 364 363 364 367 369 369 368 369 369 367 367 366 365 364 364 364 365 361 360 360 363 364 363 361 362 360 360 356 359 359 345 315 321 319 320 336 358
320 320 321 324 326 328 330 334 336 339 343 347 351 354 355 354 356 356 355 351 351 349 350 351 354 360 365 365 365 368 370 369 370 370 369 370 369 370 369 367 364 364 362 362 360 360 360 362 362 362 361 360 362 363 361 358 360 328 318 317 317 325 359
320 320 320 322 323 327 328 331 334 337 341 346 354 355 354 356 355 355 355 357 351 349 349 354 359 361 365 366 364 366 370 370 371 370 371 372 370 369 368 366 366 365 364 361 360 359 358 359 361 361 362 361 362 362 363 362 362 339 314 315 316 319 336
318 318 320 322 324 325 326 328 332 337 342 348 352 354 356 358 359 358 357 356 354 354 353 357 361 363 366 367 365 365 368 369 370 371 370 371 372 370 369 369 369 368 365 362 362 361 358 357 358 358 359 360 362 362 363 362 352 349 316 315 314 317 324
315 316 316 318 320 322 324 326 330 335 342 349 352 354 355 357 358 357 355 356 359 357 358 362 363 364 366 368 366 366 368 369 370 369 370 370 370 370 368 369 368 368 368 366 364 362 359 359 359 358 358 360 360 361 363 365 361 337 331 315 313 315 319
316 316 316 318 319 321 323 325 329 333 342 350 354 356 357 359 360 357 354 356 365 360 360 366 366 367 367 367 366 368 368 369 369 371 371 370 370 370 369 368 368 368 368 367 365 362 361 360 360 358 356 356 357 358 360 364 367 337 327 324 312 314 316
315 314 315 315 317 320 322 323 325 332 341 350 355 357 360 363 361 361 359 364 368 364 363 367 366 366 366 367 367 368 369 370 369 370 370 371 370 368 368 368 368 367 369 368 365 363 361 361 360 358 355 354 355 356 359 362 370 354 332 321 315 314 314
314 315 315 316 317 318 320 322 325 331 341 351 357 356 366 367 364 361 366 373 370 367 368 369 367 366 367 367 367 368 369 369 369 370 369 370 370 370 370 368 366 366 368 366 363 363 361 360 359 358 357 356 357 357 358 363 363 361 345 328 322 318 316
314 314 314 315 316 318 318 322 324 328 336 347 356 360 363 366 368 364 371 374 372 367 372 370 369 365 367 367 367 368 368 366 365 366 367 368 368 368 369 368 366 365 365 364 361 361 361 360 359 359 358 357 357 357 357 359 361 366 354 341 335 332 329
314 314 315 317 317 317 318 320 323 326 333 344 355 359 362 366 369 374 374 370 366 365 373 370 368 366 367 368 367 366 367 367 364 363 365 365 365 365 364 366 366 365 364 363 362 361 360 361 360 359 359 358 357 356 357 358 359 363 361 349 343 340 339
315 315 317 316 315 317 315 319 322 326 333 345 354 358 362 365 368 371 374 374 368 367 372 369 365 367 369 368 367 366 366 367 366 365 365 364 365 367 369 369 366 366 367 367 367 363 361 361 360 361 362 361 359 357 357 358 358 360 347 356 334 343 347
315 316 317 316 315 315 316 320 323 327 336 347 355 358 360 362 365 367 369 371 377 373 370 371 368 367 366 366 364 363 364 365 363 364 363 364 364 343 329 308 299 311 366 364 333 321 324 338 361 363 361 360 361 362 360 360 360 340 328 324 321 321 326
315 316 316 315 314 314 316 319 323 330 339 348 354 356 358 360 361 365 366 368 371 370 372 372 367 364 364 363 362 358 361 362 362 364 364 364 355 349 343 340 332 302 296 306 312 305 300 304 314 329 339 359 364 340 316 331 327 319 314 316 317 317 317
317 317 317 316 315 316 317 319 323 332 336 344 352 353 355 355 357 360 361 365 366 368 371 375 368 364 363 363 362 359 358 363 362 362 363 364 357 354 352 350 345 337 307 298 302 301 298 297 299 306 323 334 340 349 349 319 310 308 309 312 313 314 312

ECMWFFLT1_sfc_thetae_063.txt.gz
Theta_e
337 337 339 339 339 339 340 340 340 339 340 342 344 345 345 346 348 349 350 350 348 349 351 352 354 353 350 349 349 349 348 347 348 344 345 346 347 342 342 344 347 346 349 351 353 354 355 356 357 361 361 361 361 364 360 364 361 362 362 362 363 361 359
335 337 338 339 339 339 339 341 341 341 341 344 345 346 346 346 347 348 350 351 350 350 351 351 354 353 351 349 350 350 348 347 348 348 345 345 349 346 344 345 346 348 347 349 351 354 355 356 356 359 360 361 360 363 362 362 362 361 361 360 358 360 363
335 336 337 338 340 340 340 341 341 341 341 344 346 346 346 346 347 349 350 352 351 351 352 351 353 353 352 350 349 350 349 347 347 347 344 343 345 349 347 347 345 348 349 350 350 353 356 356 356 357 359 359 360 361 363 361 363 362 361 361 360 358 358
334 335 336 339 341 342 343 342 342 342 343 345 347 347 347 347 348 349 351 352 352 352 351 351 352 353 352 350 349 350 349 348 347 347 345 344 344 349 349 349 347 348 350 349 352 352 356 354 358 356 364 359 359 361 362 362 362 362 362 361 359 360 359
334 335 336 338 341 342 343 344 344 343 343 346 348 349 348 348 349 349 351 353 354 352 353 352 352 354 354 352 351 351 350 349 348 347 346 345 345 345 350 351 350 350 350 351 353 353 351 353 356 355 359 358 358 360 361 361 362 362 361 362 359 360 359
333 334 336 338 341 342 343 344 345 345 344 345 348 348 349 348 349 349 351 353 354 355 354 353 352 354 353 352 351 351 351 350 349 348 347 345 345 344 346 352 353 352 352 351 353 354 351 352 353 356 357 358 358 359 360 360 361 362 361 361 359 359 360
333 335 337 339 340 342 343 344 345 346 346 346 348 350 350 349 348 349 351 353 354 353 354 353 353 353 354 354 351 350 350 350 350 349 348 346 346 345 344 348 354 354 354 353 350 353 352 352 352 356 356 357 358 359 359 359 360 361 361 360 359 358 358
334 336 337 339 341 342 343 344 345 346 346 347 348 349 349 349 349 349 350 353 355 355 354 354 353 353 354 354 353 350 350 350 351 351 349 347 347 346 345 345 350 354 354 353 351 350 354 353 353 355 355 356 357 358 359 359 359 360 360 359 358 358 360
335 336 338 339 340 342 343 344 344 345 345 347 348 349 349 349 349 349 351 353 355 355 355 356 355 355 355 355 354 351 351 351 351 351 350 348 348 348 347 347 348 353 353 353 353 351 351 355 354 354 355 355 356 356 357 357 358 359 359 359 358 357 359
335 335 337 339 340 340 342 344 346 345 346 347 347 348 349 349 349 349 351 352 355 356 357 357 357 356 356 356 355 354 352 351 351 351 351 350 349 350 349 349 349 353 353 353 354 352 350 355 355 355 355 354 355 356 356 356 357 357 358 358 358 358 357
333 334 336 337 337 339 342 343 344 345 346 346 347 348 348 349 348 349 350 351 352 356 358 359 359 358 357 356 356 355 353 352 352 351 352 351 351 351 352 351 351 352 353 353 353 354 351 352 354 355 355 355 355 356 355 356 357 357 357 358 359 358 358
331 333 334 335 337 339 340 342 343 344 345 346 346 347 348 349 349 349 349 350 351 353 357 358 360 360 358 357 356 355 354 353 353 352 352 352 351 351 352 353 352 352 354 354 353 354 353 351 353 356 356 355 356 356 356 357 357 357 356 357 358 358 358
333 334 336 336 337 338 339 340 341 343 345 346 347 348 349 349 349 349 348 349 351 352 354 357 359 359 359 358 357 355 354 354 354 353 352 352 352 351 352 352 353 353 353 355 354 353 353 352 351 355 356 356 357 357 356 356 358 357 356 356 357 358 358
340 334 335 337 340 340 338 341 341 342 344 345 346 348 349 350 349 349 349 349 350 352 353 356 358 358 359 359 357 356 355 355 355 354 353 352 352 351 351 352 353 353 354 355 354 353 353 353 352 353 356 356 356 357 357 356 357 356 356 355 356 356 357
329 330 332 334 336 339 341 341 341 346 345 345 347 347 348 349 349 350 350 350 351 352 353 355 357 358 358 358 357 357 356 356 356 356 354 353 352 351 351 352 353 354 354 355 355 354 353 354 354 353 355 356 356 357 358 356 356 357 356 355 354 355 356
326 328 330 332 334 339 339 339 339 343 344 344 345 345 346 349 349 350 350 350 351 351 353 354 355 356 358 358 358 358 357 357 357 356 355 353 352 351 351 352 353 354 354 354 354 354 353 353 354 354 354 356 356 356 357 357 356 354 344 348 355 354 356
324 325 327 329 332 333 335 338 339 339 343 345 346 345 343 343 345 348 349 351 352 349 353 354 354 356 357 358 359 359 358 357 356 355 354 354 352 351 351 352 353 354 354 354 354 354 353 352 353 354 355 355 356 356 356 358 356 343 336 338 344 354 355
321 322 323 326 328 330 332 333 336 338 340 343 342 343 342 346 352 350 349 349 349 350 349 352 353 354 356 358 360 359 358 356 356 354 354 354 353 351 352 353 353 353 354 354 354 354 353 351 352 354 355 355 356 356 356 357 348 335 334 336 336 345 356
319 320 321 323 324 327 329 331 333 336 341 342 345 345 347 347 349 351 353 352 351 351 351 352 349 350 355 359 360 359 358 356 355 354 354 354 354 353 352 353 353 353 353 354 354 354 353 351 352 353 355 355 355 355 356 356 343 332 332 334 334 336 350
318 319 320 321 322 324 327 330 331 333 337 342 347 347 350 346 346 345 352 353 353 354 354 352 351 348 346 350 356 359 358 357 356 355 355 355 354 353 352 352 353 353 354 355 355 354 353 353 351 353 354 355 355 356 357 357 344 330 329 330 331 333 341
317 318 318 319 320 322 324 326 328 330 333 336 341 344 347 348 344 345 347 350 351 351 350 351 350 349 348 348 351 358 358 357 356 355 355 355 355 354 353 353 353 353 353 354 354 353 353 353 351 352 354 355 355 356 358 360 339 328 326 326 327 331 337
316 317 317 318 319 320 322 325 326 327 330 337 337 342 344 344 348 351 349 350 350 350 349 349 349 348 348 348 352 358 358 358 356 356 356 356 355 354 353 353 353 353 353 353 354 355 354 354 354 352 353 355 356 355 356 360 334 327 325 325 325 329 344
316 317 317 318 319 320 322 324 325 326 330 331 334 337 341 345 348 350 349 351 349 348 349 348 347 348 348 350 354 359 359 358 357 357 356 356 355 355 354 353 353 354 354 352 353 354 353 353 353 353 353 353 356 356 356 358 337 326 323 323 324 329 349
316 317 317 318 319 320 321 322 324 326 328 330 333 336 341 345 348 350 351 350 348 347 347 348 348 348 349 350 356 359 359 359 358 357 357 356 355 355 355 355 354 354 356 353 351 352 354 354 354 354 354 352 353 356 356 357 340 322 322 321 322 332 351
314 315 316 317 317 318 319 321 323 326 327 328 330 333 337 341 343 346 349 351 350 346 346 347 348 349 350 353 357 360 360 360 359 358 357 356 356 357 356 355 355 355 356 355 353 352 354 355 354 353 354 354 353 351 354 357 342 318 322 320 320 331 352
313 313 315 316 317 318 319 322 322 323 324 325 328 332 335 339 343 346 348 351 351 349 344 345 347 349 351 354 358 360 361 360 360 359 358 357 357 358 357 358 356 355 355 355 353 351 352 354 354 353 354 354 354 354 353 353 353 330 318 318 318 323 351
314 314 314 315 316 320 318 319 320 321 322 324 327 329 332 336 340 346 348 350 351 350 350 346 345 346 347 355 359 360 361 361 360 359 359 359 359 358 359 358 357 356 355 354 354 352 351 353 354 354 354 355 355 355 354 354 353 336 315 315 316 318 333
313 314 315 316 318 318 317 318 319 320 321 323 325 327 330 333 337 342 348 350 351 352 354 353 348 346 348 358 359 360 362 362 361 361 361 361 360 359 358 359 359 357 356 355 354 352 351 352 354 354 354 355 356 355 355 354 347 348 317 315 314 316 320
312 314 314 313 313 316 317 317 317 318 319 321 324 326 329 331 335 340 347 349 351 355 356 354 351 348 349 356 359 360 361 362 362 361 362 362 361 360 358 359 358 357 357 355 354 352 351 352 354 355 355 355 356 356 356 357 354 338 332 314 313 313 315
314 314 315 315 315 315 317 316 317 317 319 321 323 325 328 330 332 338 344 349 354 355 356 355 352 350 348 351 358 359 361 363 363 363 363 363 362 361 359 359 359 358 357 356 354 352 351 351 354 355 354 354 355 355 356 357 358 337 327 324 312 313 314
312 313 314 314 314 316 317 316 315 316 317 320 322 324 327 330 332 336 343 355 361 361 359 356 353 350 350 350 355 358 360 363 363 363 363 364 364 361 361 360 360 358 358 356 354 353 351 351 352 353 354 354 354 354 355 357 358 353 332 321 315 313 313
313 314 315 315 315 316 317 316 315 316 317 319 322 324 327 328 331 335 343 355 362 365 364 359 354 352 351 353 354 357 360 362 363 364 364 364 365 364 363 362 361 359 359 358 355 354 353 351 350 350 351 352 353 354 355 355 357 356 345 328 322 317 314
312 313 313 313 315 317 315 315 314 316 318 319 322 324 325 327 331 337 345 355 363 365 364 361 355 353 353 354 356 358 359 361 362 363 364 364 365 365 365 364 363 361 359 359 357 355 354 353 351 350 349 349 351 353 353 354 355 356 350 341 335 330 326
311 312 313 315 316 317 315 314 314 316 318 321 323 325 326 328 332 340 348 357 363 364 364 361 356 354 354 355 357 358 359 360 359 360 362 363 364 364 364 364 364 362 359 359 359 357 355 354 352 350 349 349 350 350 351 352 353 356 352 346 342 338 335
311 312 314 314 315 317 314 314 316 318 320 322 324 326 328 334 339 345 353 359 362 364 363 360 356 355 356 357 358 358 358 360 360 361 362 362 362 364 364 364 364 362 362 364 365 362 359 357 355 354 353 351 350 349 349 350 351 356 338 346 331 337 339
311 312 313 315 316 315 314 316 316 319 322 324 326 330 335 337 341 348 354 358 360 362 361 360 358 356 356 358 358 359 358 360 361 361 361 362 361 361 351 323 309 323 358 363 351 341 336 336 355 357 355 353 352 352 349 350 353 335 324 320 317 317 321
311 312 313 314 314 313 314 315 319 321 323 326 330 333 335 336 340 349 354 354 357 359 359 363 359 356 357 358 358 356 358 359 360 361 361 362 362 361 353 342 328 304 298 306 321 331 323 318 323 329 334 350 353 347 333 333 330 318 317 315 313 312 313
313 313 313 313 312 313 314 315 318 320 323 325 328 330 331 333 337 341 346 351 355 354 352 355 362 358 356 359 357 355 354 359 359 360 361 361 361 359 350 345 341 334 307 299 301 309 318 320 320 320 319 326 336 347 346 330 322 311 311 313 312 311 310

ECMWFFLT1_sfc_thetae_066.txt.gz
Theta_e
336 336 336 337 337 338 337 337 337 338 339 338 339 339 338 339 340 339 342 342 342 343 344 346 347 346 346 347 346 345 343 343 342 344 342 339 340 341 340 339 344 347 348 349 350 350 354 358 359 359 359 359 358 358 357 359 357 357 357 355 357 358 358
335 336 336 337 337 338 338 337 337 339 339 339 340 340 339 340 341 341 341 343 342 343 345 345 348 347 346 346 347 346 343 342 343 346 344 341 341 340 342 341 342 346 348 349 350 350 352 356 358 358 359 359 358 359 358 358 357 354 357 357 356 356 356
335 336 336 336 337 338 338 337 337 339 340 340 340 341 340 341 342 342 342 343 343 343 345 346 347 347 346 345 345 346 344 342 343 343 343 341 340 340 341 342 343 346 348 349 350 350 353 354 356 357 358 358 358 359 359 358 358 356 356 356 356 356 355
334 335 336 337 338 339 339 338 338 338 340 341 341 341 342 342 343 344 344 343 344 344 344 346 348 348 347 345 344 345 345 343 343 342 343 343 341 341 340 340 342 345 346 348 351 352 354 353 354 355 362 357 357 357 359 358 359 357 357 356 355 355 356
334 335 336 336 337 338 339 338 338 338 339 342 342 343 343 344 344 345 345 345 345 345 345 346 349 349 349 347 346 345 346 344 343 343 342 343 344 343 340 339 340 343 345 347 349 352 352 352 353 353 357 357 357 356 358 358 358 358 357 356 354 355 354
333 334 335 336 337 338 339 339 339 338 339 340 342 342 343 344 345 345 346 347 345 346 347 347 348 350 349 349 347 346 346 346 344 344 343 342 343 344 342 340 340 340 343 345 348 349 351 352 353 352 354 356 356 356 356 358 358 358 357 357 355 355 355
333 334 334 336 337 338 339 339 340 340 340 341 343 344 345 344 345 346 347 347 347 345 346 347 348 350 350 350 348 347 345 345 345 343 344 342 341 343 344 342 342 340 341 345 346 347 348 350 351 353 353 355 355 355 355 357 358 358 357 357 355 355 356
333 333 334 336 337 339 339 339 340 341 341 341 341 343 344 344 345 346 346 348 348 347 347 347 347 349 350 351 350 348 347 346 346 345 344 343 341 341 343 344 344 343 342 342 345 347 346 346 349 352 353 354 354 354 355 357 357 358 357 357 356 355 357
333 334 334 335 337 339 340 340 340 340 341 340 341 342 344 345 345 345 346 348 349 348 348 348 348 349 350 350 350 349 348 347 346 346 344 343 342 341 340 343 345 346 344 343 344 347 348 346 346 349 352 353 354 354 355 356 357 358 358 357 356 355 355
332 332 334 335 337 339 340 341 341 341 340 340 341 343 344 345 345 345 346 348 349 349 349 349 349 349 349 350 350 350 348 347 347 346 345 343 342 341 341 340 343 348 347 346 346 346 349 349 347 347 349 352 353 354 354 355 356 357 358 357 357 356 355
330 332 335 333 335 337 339 340 341 341 341 341 341 343 345 345 345 345 346 348 349 350 351 351 351 350 349 350 349 349 348 347 347 346 345 344 343 342 342 341 340 344 348 348 347 347 347 349 350 348 348 350 352 353 354 355 356 356 357 358 358 357 356
334 335 334 335 335 336 337 341 341 342 342 342 342 343 344 345 346 346 346 347 350 351 351 352 352 351 350 350 349 349 348 347 347 346 346 345 344 343 342 342 341 340 345 349 348 349 348 347 350 350 349 350 351 352 353 354 355 355 356 357 358 357 357
328 329 330 331 333 334 335 335 336 339 341 343 343 344 345 346 346 346 346 347 349 351 352 352 352 352 350 350 350 349 349 348 347 347 346 347 346 345 344 342 342 341 341 347 349 349 349 348 348 351 351 350 351 351 352 353 354 355 355 356 356 356 356
327 324 326 328 329 330 331 332 334 336 337 341 343 345 345 346 347 347 346 346 348 351 352 353 353 352 351 351 350 350 350 349 349 347 347 347 347 346 345 344 343 342 342 344 346 348 349 349 348 349 351 351 351 352 352 353 353 354 354 355 355 355 355
319 320 321 323 325 327 328 329 333 335 337 338 339 340 343 345 347 347 347 348 349 351 353 354 353 352 352 352 351 351 351 352 351 350 349 349 348 347 346 345 345 345 344 344 346 348 349 350 349 348 349 352 352 352 352 352 353 354 354 354 354 354 355
317 317 318 320 322 324 325 326 329 333 336 338 340 339 339 341 343 348 346 347 348 350 354 355 354 354 353 353 353 353 354 353 353 352 350 349 348 348 348 347 347 347 346 346 346 347 349 349 350 349 349 350 351 352 353 353 354 350 342 345 354 353 354
316 316 317 318 320 321 323 325 326 328 333 334 338 341 341 342 342 343 347 348 348 348 351 354 354 355 354 352 346 344 344 347 353 353 352 351 350 349 349 348 348 347 348 348 348 348 349 350 349 349 349 349 351 352 352 353 353 341 335 336 341 352 353
316 315 316 317 320 320 321 323 324 324 327 330 333 337 339 342 344 344 343 344 348 350 352 352 352 351 348 345 345 345 345 346 346 351 353 352 351 350 349 349 348 347 348 348 348 349 350 350 349 350 350 350 350 351 352 353 345 335 332 334 334 341 354
314 314 315 315 317 319 321 322 323 323 325 328 331 333 337 342 343 343 343 345 344 347 349 349 349 348 347 347 346 346 347 347 346 347 352 353 352 351 350 349 348 347 347 348 349 350 349 350 350 350 350 350 349 350 352 353 342 332 330 331 332 333 345
313 314 314 315 316 317 318 321 322 324 324 327 330 333 337 341 345 346 346 347 346 345 345 347 348 348 348 347 347 347 347 348 348 349 352 354 353 352 351 350 348 348 348 349 350 350 350 350 349 350 350 350 350 350 351 352 342 330 328 328 329 331 337
313 313 314 314 314 316 317 319 320 321 322 325 328 331 334 335 340 347 349 346 345 344 344 343 346 347 348 347 348 348 348 348 348 350 353 354 354 353 351 350 349 349 349 349 349 350 350 349 349 349 350 351 351 350 351 353 338 328 326 325 326 328 333
314 312 313 314 314 315 316 317 318 320 322 326 325 328 331 332 334 334 340 348 344 344 344 343 345 347 348 347 347 348 348 348 348 351 354 354 354 352 352 351 350 349 349 350 350 351 351 351 351 350 350 350 351 351 350 353 333 327 325 324 324 327 339
315 314 313 315 315 315 317 318 319 320 323 323 324 325 328 331 333 331 333 337 343 345 345 345 345 347 348 348 348 349 349 349 349 351 354 355 353 352 352 351 350 350 350 349 349 350 351 351 351 351 350 350 351 351 351 352 338 325 323 322 323 326 342
316 316 314 314 315 315 316 317 319 321 322 321 322 323 325 327 330 329 331 335 341 345 347 346 346 348 349 349 349 350 350 350 351 352 355 355 354 353 353 352 352 351 351 349 349 349 350 352 352 352 351 350 350 351 351 352 341 322 321 321 321 329 344
316 314 316 315 314 314 315 316 318 319 320 320 320 321 323 325 326 328 329 334 337 342 346 346 347 348 348 349 350 351 351 352 353 354 355 355 355 354 353 353 352 352 352 351 351 350 351 352 352 352 352 351 351 348 350 352 344 322 321 319 319 329 346
315 314 314 316 316 316 317 318 317 316 316 317 318 321 322 324 326 327 329 331 334 337 342 347 348 349 349 350 350 351 351 352 354 355 356 356 355 355 355 355 354 352 352 351 351 351 351 352 352 351 351 352 351 352 352 352 353 338 319 319 317 321 346
316 315 315 316 315 319 316 316 316 315 316 317 318 320 322 324 324 326 327 330 331 334 341 348 353 352 350 349 350 350 351 352 354 356 357 357 357 356 356 355 354 353 352 351 351 351 350 350 351 351 351 352 351 351 352 354 353 346 318 317 317 317 328
315 314 315 317 317 317 315 315 316 316 316 317 318 319 321 322 323 325 326 328 329 332 338 343 348 353 354 350 348 350 350 351 354 357 358 358 358 356 355 356 355 354 353 352 351 350 350 349 350 351 351 351 352 351 351 352 346 354 322 318 315 316 317
312 313 313 314 314 314 316 314 315 316 316 317 318 319 320 322 323 325 327 327 329 333 336 340 345 352 356 354 349 347 349 352 353 356 359 358 358 356 355 355 355 354 354 352 351 350 349 349 349 349 349 350 351 351 352 352 351 339 338 317 315 314 314
312 313 314 315 316 314 315 313 315 315 316 317 318 320 322 322 323 324 326 326 331 333 336 339 344 352 357 357 353 349 348 350 354 356 358 358 358 357 355 355 355 354 354 352 351 350 349 349 349 348 348 348 349 350 351 352 352 337 330 328 314 315 314
310 312 313 313 314 315 315 313 314 315 315 316 318 320 322 324 324 325 325 328 331 333 334 338 343 349 356 359 359 356 352 351 353 356 357 358 358 356 355 354 355 353 354 353 351 350 349 349 348 347 347 348 348 349 351 352 352 351 334 325 318 314 314
310 311 312 313 313 314 316 316 315 314 314 316 318 320 324 326 326 326 327 330 333 335 337 340 344 349 354 358 359 359 356 352 352 355 358 358 358 357 357 355 355 354 354 353 351 351 350 348 348 347 347 347 348 349 350 352 352 352 347 331 324 318 314
309 310 310 311 313 315 314 314 313 313 314 315 318 321 324 326 328 330 332 334 336 339 341 343 347 352 356 357 358 359 357 353 352 354 357 358 358 358 358 357 356 355 353 353 352 351 350 349 348 347 347 347 348 350 351 351 352 352 351 343 337 331 326
309 310 311 312 313 315 315 313 311 312 313 314 317 321 323 325 327 329 331 333 336 341 345 348 351 353 354 355 356 357 357 353 351 353 356 357 358 357 357 357 357 355 353 353 353 352 350 350 349 347 347 347 349 350 350 351 352 352 352 349 343 339 335
308 309 309 310 312 316 313 313 313 313 313 315 318 321 321 323 326 327 328 331 335 338 339 343 347 351 353 354 355 356 355 353 351 353 356 357 358 358 358 357 357 356 355 357 357 356 353 352 351 351 350 350 349 349 349 350 351 353 337 350 332 340 341
308 309 309 311 313 313 312 314 313 313 314 315 319 320 320 322 324 326 328 330 333 335 335 338 342 348 349 351 354 356 356 352 351 353 355 357 357 357 348 323 312 321 352 357 346 338 334 333 351 354 353 351 351 352 350 351 353 335 323 320 318 318 321
309 309 310 311 311 311 311 312 315 315 315 316 319 319 320 322 323 325 326 328 330 331 333 334 339 344 347 349 351 350 353 353 352 352 355 357 357 352 337 340 341 322 306 310 318 327 321 319 323 328 333 349 351 346 332 332 329 326 318 315 313 313 314
310 310 312 312 311 311 311 311 313 314 315 317 319 319 319 321 322 323 325 326 327 328 330 332 336 341 345 347 344 343 345 351 353 353 350 342 339 340 341 341 343 343 319 305 311 314 317 312 312 316 319 324 334 345 349 327 316 317 313 313 312 311 311

ECMWFFLT1_sfc_thetae_069.txt.gz
Theta_e
335 334 335 336 335 335 335 336 336 335 334 334 335 335 335 336 337 339 340 340 341 341 342 342 344 344 344 344 343 343 343 342 341 339 338 338 339 339 341 343 346 347 349 349 351 352 353 356 356 357 357 357 357 357 357 357 357 358 356 355 353 355 355
334 334 335 336 336 336 336 336 336 336 335 335 335 335 335 336 337 338 340 340 341 341 342 343 344 344 344 344 344 343 342 342 342 343 340 339 341 339 340 341 344 346 347 349 350 351 352 354 356 356 357 357 357 357 356 356 356 355 355 353 352 352 354
334 335 335 335 336 336 336 336 336 337 336 336 336 335 335 336 337 338 340 340 340 341 343 343 344 344 344 344 344 342 342 342 342 341 341 339 338 339 339 340 341 345 347 348 349 350 351 353 355 356 357 356 357 356 356 355 355 355 353 353 353 353 352
334 335 335 336 337 337 337 337 336 337 337 337 336 336 335 336 337 338 340 340 340 341 341 343 344 344 344 344 344 343 342 341 341 342 342 341 338 338 339 339 339 341 344 345 348 350 351 352 354 355 361 356 356 356 356 356 355 355 353 353 352 352 353
334 335 335 335 336 336 337 337 336 337 337 338 338 338 336 336 338 338 339 341 341 340 342 343 345 345 345 345 345 344 343 341 341 341 342 342 341 338 338 339 339 339 343 345 347 349 349 349 352 354 355 356 355 355 356 356 355 355 353 352 352 352 352
333 333 334 335 336 336 337 338 337 337 337 338 338 338 337 337 338 338 338 340 341 342 342 343 344 345 344 344 345 345 344 343 342 342 341 342 341 338 337 338 340 340 341 344 348 348 348 349 350 352 353 355 355 355 355 356 356 356 354 353 352 352 352
333 333 334 335 336 336 337 338 338 338 338 339 339 340 340 338 337 338 338 339 341 340 341 341 343 345 345 344 344 344 343 343 342 341 341 341 341 340 338 338 340 340 342 344 345 347 348 348 349 350 352 354 355 354 354 354 355 356 355 353 352 351 351
332 333 334 335 336 337 337 338 339 338 338 339 339 339 339 339 338 339 339 339 340 341 341 341 342 343 344 345 344 343 343 344 344 342 341 340 340 341 340 339 338 339 340 342 344 346 348 348 349 350 350 352 353 354 354 354 355 355 355 354 353 352 353
330 334 334 335 335 337 338 338 339 338 338 338 339 339 340 340 339 339 340 340 340 341 341 342 343 344 345 345 344 343 343 343 343 343 342 340 339 339 341 341 340 339 338 339 342 345 346 347 348 349 349 350 351 352 353 353 354 355 355 354 353 353 353
325 329 331 333 336 337 339 339 339 338 337 337 338 339 339 340 340 340 341 341 341 341 342 342 343 344 345 345 345 345 344 343 343 343 342 341 340 339 339 340 342 342 339 338 338 341 345 345 346 347 348 349 350 350 351 352 353 354 354 355 354 353 353
321 324 326 329 332 335 336 337 337 339 338 337 338 339 340 340 341 341 341 342 342 342 343 343 344 344 345 346 345 345 344 343 343 342 342 342 342 341 340 339 339 341 342 340 338 338 340 344 344 343 345 348 349 350 350 351 352 353 354 355 355 354 354
318 320 321 323 325 328 332 334 336 337 339 340 337 338 340 341 341 342 342 343 344 344 344 344 345 345 345 346 346 346 345 345 344 343 343 342 342 341 341 340 339 339 341 343 341 340 339 340 343 344 342 344 346 348 350 351 352 352 353 354 355 355 354
316 317 318 319 322 323 325 326 330 334 337 339 341 338 339 340 342 342 342 343 345 346 346 345 345 345 345 346 346 346 346 346 345 345 344 344 343 343 342 341 340 339 338 341 343 342 341 341 341 344 344 343 344 345 348 350 351 352 353 354 354 354 354
318 315 316 317 318 319 321 322 323 327 330 334 338 341 342 341 342 342 343 343 345 346 347 347 346 346 345 346 346 346 347 347 347 346 346 345 345 344 343 342 341 340 340 340 340 342 343 342 342 342 345 344 344 345 347 348 350 351 352 353 353 354 354
312 313 314 315 316 318 319 319 321 323 325 327 330 334 340 342 344 345 344 344 345 346 347 349 347 346 346 346 345 346 347 348 348 348 347 347 346 345 344 343 342 341 341 340 339 342 343 344 344 343 343 345 346 346 347 347 349 351 352 352 352 353 353
311 312 312 313 315 316 317 319 320 321 323 324 326 329 333 339 342 343 349 350 348 349 351 351 349 348 347 346 346 347 348 348 348 348 347 347 346 345 345 344 344 342 341 340 339 339 341 343 345 344 344 344 345 346 347 348 349 347 340 344 353 352 353
310 311 312 313 314 315 317 318 319 320 321 322 325 327 330 334 340 343 346 347 348 348 349 349 346 348 349 348 348 348 348 348 348 348 347 346 346 346 345 345 345 343 342 341 340 339 340 342 342 344 345 344 344 345 347 348 348 338 333 334 339 351 352
309 310 311 312 314 315 315 316 317 318 320 322 324 326 328 331 336 341 343 345 346 346 347 347 347 347 347 348 348 348 349 349 349 348 348 347 346 346 346 346 345 344 343 342 341 341 340 340 341 342 344 345 345 345 346 348 341 332 330 332 332 340 353
310 310 310 312 312 314 314 315 317 318 320 322 324 325 327 331 332 333 340 345 344 345 346 345 347 347 347 346 346 348 349 349 349 349 349 348 348 347 347 346 345 344 344 343 343 342 341 340 341 341 343 344 344 344 346 347 338 331 329 329 330 331 343
311 311 311 311 312 313 314 315 316 318 320 323 325 326 328 329 330 332 336 346 346 343 343 344 344 346 348 348 347 348 349 349 348 347 349 350 350 349 347 346 345 345 345 345 345 344 343 343 342 342 343 344 344 345 346 346 338 330 326 326 327 329 335
311 312 311 311 311 312 313 314 315 317 319 321 324 325 327 327 328 329 331 333 342 345 344 345 343 345 347 348 348 349 349 348 348 348 349 350 351 351 349 348 347 346 346 346 345 344 344 344 343 344 345 345 346 345 346 347 335 327 325 324 324 326 331
313 313 312 312 311 311 313 313 314 315 317 320 319 320 323 325 327 328 329 331 334 340 345 345 345 344 346 346 347 348 348 349 349 349 349 349 350 351 351 350 349 347 348 347 347 346 346 346 346 345 346 346 346 346 346 348 331 326 324 323 322 325 337
316 316 315 314 313 313 314 315 315 316 318 317 317 318 319 322 325 327 327 330 331 335 339 344 343 344 344 346 346 347 348 348 349 349 349 349 349 349 351 351 350 350 350 348 347 346 346 346 346 347 347 347 347 346 347 348 336 324 322 321 321 324 339
317 318 317 316 315 314 314 315 316 317 317 316 317 318 318 319 322 324 326 330 333 332 333 336 342 344 344 345 346 347 348 348 349 349 350 349 349 350 351 352 352 351 352 349 348 347 347 347 347 347 348 347 347 348 347 347 339 323 320 320 319 328 340
316 316 316 318 318 314 314 315 316 317 317 316 316 317 318 319 320 322 325 328 328 329 331 333 337 344 347 346 347 348 349 349 349 349 349 349 350 351 352 352 353 353 352 351 350 349 349 349 347 347 348 348 348 345 347 348 341 322 320 318 317 327 342
312 314 314 316 318 317 316 317 315 314 314 314 316 317 318 319 319 321 323 325 327 329 329 332 335 338 341 345 349 350 350 350 350 349 349 349 350 351 353 354 354 353 352 351 351 350 349 349 348 347 348 349 349 349 348 348 349 339 319 318 316 320 342
311 314 315 314 315 319 316 315 314 313 313 315 316 317 318 319 319 320 322 325 326 327 330 332 334 336 337 340 343 348 350 350 350 349 350 350 350 351 353 354 354 354 353 352 351 350 349 348 348 348 348 349 349 349 349 350 349 345 319 316 315 316 326
310 311 313 317 318 318 316 315 314 314 314 315 316 317 317 318 319 321 323 324 325 327 330 331 333 334 336 338 341 345 351 352 350 351 351 351 351 351 352 354 355 354 353 353 351 350 349 348 348 348 348 349 349 349 349 349 342 350 323 317 314 314 316
307 308 310 312 314 315 317 314 314 314 314 315 315 316 316 317 319 321 324 324 326 329 330 332 333 335 336 337 340 344 351 355 351 350 351 352 352 352 352 354 354 354 354 352 351 349 348 348 348 347 347 348 349 349 350 350 349 335 340 318 314 312 313
307 308 309 312 313 315 317 315 314 315 315 315 315 315 316 317 319 321 322 323 328 329 332 333 334 336 337 339 341 344 350 357 353 348 350 351 352 352 352 353 354 354 354 352 351 349 348 348 348 347 346 346 347 349 350 350 351 338 330 331 314 313 312
305 306 308 309 311 314 315 314 314 314 315 315 315 316 316 317 318 320 320 323 328 329 330 332 335 338 339 340 342 346 351 357 359 356 350 351 352 351 352 353 354 353 353 352 351 350 348 348 348 347 346 346 346 347 349 350 350 350 337 325 319 314 312
305 306 308 309 310 312 314 315 315 315 314 315 316 316 317 317 318 318 320 323 326 327 328 331 334 338 341 343 345 348 354 357 357 357 358 355 353 353 354 354 354 353 353 352 351 350 349 348 348 347 346 346 346 347 348 349 350 350 348 333 326 319 314
304 305 306 307 309 312 311 312 313 313 314 313 315 316 317 317 319 320 321 322 325 326 328 329 332 335 337 339 344 351 354 353 353 354 356 356 354 354 355 355 355 354 352 352 351 350 349 348 347 347 346 346 346 347 348 348 349 349 349 345 339 334 328
303 304 305 307 308 311 311 311 311 312 313 313 314 316 317 318 318 320 320 322 325 326 326 327 330 332 334 336 340 346 350 350 352 353 354 356 355 353 354 355 355 354 352 352 352 351 349 349 348 347 347 347 347 347 347 347 348 348 349 347 343 340 337
303 304 305 306 308 312 310 311 313 313 313 313 314 316 317 318 319 320 320 322 324 325 325 325 327 330 332 334 339 343 347 349 350 352 353 354 354 354 354 354 354 354 354 356 356 354 353 351 350 350 350 349 348 347 346 346 346 348 334 347 330 338 341
302 303 305 307 309 310 310 313 313 313 313 313 315 316 317 318 320 321 321 322 323 324 323 324 324 326 329 333 337 341 345 348 348 348 349 351 352 352 349 338 329 343 355 354 343 336 333 332 350 353 352 351 351 350 348 347 349 333 325 321 319 318 321
302 303 305 307 308 309 310 310 313 314 314 314 315 316 318 319 320 320 321 321 322 323 322 322 323 325 328 332 335 339 345 345 345 345 346 349 351 351 348 347 343 317 320 332 340 329 320 318 322 327 333 348 351 345 331 331 327 322 316 315 314 313 314
303 305 307 309 310 311 311 312 312 312 313 312 313 315 317 319 320 320 320 320 321 322 322 322 323 323 326 330 333 338 343 344 344 344 344 346 348 349 347 346 346 343 320 310 316 320 316 315 315 316 317 321 332 343 348 326 317 316 312 313 312 310 311

ECMWFFLT1_sfc_thetae_072.txt.gz
Theta_e
333 333 333 334 334 335 336 336 335 334 335 336 337 337 337 337 338 339 340 342 342 342 343 344 344 345 345 344 345 345 344 343 342 340 340 340 341 344 347 348 350 350 352 353 354 355 357 359 359 360 360 360 360 359 360 361 361 361 361 361 358 359 358
332 333 333 334 334 335 336 337 336 335 335 336 337 337 337 337 338 338 340 341 342 342 342 343 345 344 345 345 345 345 344 343 343 344 341 341 343 343 346 347 349 349 351 353 354 355 356 357 359 359 359 360 360 360 359 360 360 360 360 359 358 357 358
332 333 334 334 334 334 336 337 336 335 335 336 337 337 337 337 338 338 340 341 341 342 342 343 344 344 345 345 344 344 344 343 343 342 340 339 340 341 343 346 347 348 350 352 353 353 356 356 358 359 359 359 360 360 360 359 360 360 359 358 358 357 356
332 333 334 335 335 336 336 337 337 336 336 336 336 337 337 337 338 339 340 341 341 342 341 342 343 344 344 344 344 344 344 344 343 342 342 341 340 341 341 343 345 347 348 349 351 353 354 355 356 357 362 359 359 360 359 359 359 359 359 358 357 357 357
331 334 334 334 335 335 336 336 336 336 335 336 337 338 338 338 338 338 339 341 341 341 342 342 343 344 345 345 344 344 344 344 343 343 343 342 342 341 340 340 341 343 346 348 350 353 353 353 354 356 358 359 359 359 359 359 359 359 358 358 357 357 356
326 332 334 334 335 336 336 336 337 337 336 335 336 337 337 337 338 337 339 340 341 342 343 343 343 344 344 345 345 344 344 344 344 344 344 343 342 340 339 340 340 341 342 345 350 350 351 352 353 355 356 357 358 358 358 358 359 359 359 357 357 357 356
322 326 333 335 335 336 337 337 337 337 338 337 337 338 338 337 337 337 338 339 341 340 341 342 343 343 344 345 345 346 344 343 343 343 344 343 343 341 340 340 342 341 342 345 346 349 349 350 351 353 355 356 358 357 358 358 358 359 359 358 357 356 357
319 321 324 331 336 336 336 339 338 338 338 338 337 336 337 337 337 337 337 338 340 340 341 341 342 343 344 345 345 344 344 344 343 343 343 342 342 343 341 340 341 342 343 342 344 348 349 349 350 352 354 355 356 357 358 358 358 358 358 357 357 356 355
318 319 321 323 326 332 336 339 339 337 337 337 337 337 337 337 336 336 337 338 339 340 340 342 342 344 345 344 344 345 345 345 344 343 342 341 341 342 342 341 340 342 342 341 342 347 348 348 350 351 352 354 355 356 357 357 357 358 358 358 357 356 356
315 317 319 320 323 325 327 331 335 337 342 337 337 337 337 337 337 337 337 337 338 339 340 341 342 344 344 344 344 344 345 344 344 343 342 341 341 341 342 342 341 342 340 341 343 344 348 349 350 350 351 351 353 355 356 356 356 357 357 357 357 357 357
314 316 316 317 319 321 322 324 326 328 331 336 339 338 338 337 339 337 337 338 338 339 341 341 343 343 343 344 344 344 344 344 344 343 342 341 341 341 341 342 342 342 340 340 340 343 345 348 350 350 350 350 351 352 354 355 356 356 356 357 357 357 357
313 314 314 316 317 318 319 321 323 324 326 329 333 338 341 339 338 339 337 338 339 339 340 341 342 342 342 343 343 344 343 343 343 343 343 343 342 341 341 341 341 342 343 341 339 340 342 345 347 348 349 350 351 351 352 354 355 355 355 356 356 357 357
313 313 314 315 316 317 319 319 320 322 324 326 328 331 336 342 340 339 339 339 339 340 340 341 342 342 342 342 343 343 343 343 343 343 343 344 344 343 342 341 341 341 341 344 342 340 339 341 344 347 347 348 350 351 352 352 354 354 355 355 356 357 357
316 313 314 314 314 315 316 318 319 320 322 324 325 327 330 334 339 344 342 340 340 341 341 341 342 342 342 343 343 343 343 344 345 344 344 344 345 345 344 343 342 341 341 342 343 342 341 340 340 343 346 346 347 349 351 352 353 353 354 355 355 356 356
310 312 313 312 313 314 315 316 317 319 320 322 323 324 326 329 331 334 341 347 343 342 342 343 342 342 342 342 343 344 345 346 346 346 346 346 345 345 344 344 344 343 342 342 341 342 343 343 342 341 342 344 345 346 347 349 351 352 353 353 354 355 355
309 310 311 312 313 313 314 315 316 317 319 321 322 322 324 326 327 329 331 337 344 345 344 344 343 343 342 342 343 344 346 347 347 347 347 346 346 345 345 345 344 344 343 342 341 341 343 343 344 343 342 342 344 345 345 346 347 347 339 343 353 354 354
309 309 310 310 312 313 314 315 316 317 317 319 321 321 323 324 326 327 329 331 339 346 349 347 345 344 343 343 344 345 347 347 348 348 347 347 347 347 346 346 345 345 344 343 342 342 342 343 342 342 343 343 343 343 345 346 346 337 332 333 337 351 354
309 309 309 310 311 312 313 315 315 316 317 318 320 321 321 324 325 325 327 330 333 345 348 350 348 346 345 346 347 347 347 347 348 348 348 348 347 347 347 347 346 346 345 344 343 343 342 341 341 342 343 343 344 343 344 346 339 331 330 331 331 338 353
310 310 310 310 310 311 312 313 314 315 317 319 320 320 322 325 324 324 326 329 331 343 346 346 349 349 348 348 347 347 347 347 347 348 348 348 348 348 348 347 347 346 345 344 345 344 343 342 341 341 342 343 343 343 344 345 336 329 328 329 329 330 342
311 311 311 311 311 311 312 313 314 315 317 320 320 320 322 325 325 325 328 330 332 338 342 343 343 345 348 348 347 347 347 347 348 348 348 349 349 349 348 347 347 346 347 346 346 345 343 343 342 342 342 342 342 344 345 345 336 328 325 326 327 328 334
310 312 312 312 312 312 312 313 314 315 316 319 320 320 319 320 321 324 327 329 331 334 336 342 342 344 346 347 348 347 348 348 348 348 349 349 349 349 348 348 348 347 347 347 346 345 344 343 343 342 343 342 342 343 343 344 333 326 324 323 323 326 331
310 312 312 313 313 313 313 313 313 313 315 319 317 318 319 318 320 322 324 329 331 333 334 335 340 343 344 345 347 349 349 349 349 349 350 349 350 349 348 348 348 347 348 348 347 347 347 346 345 344 343 343 343 342 342 344 329 324 323 322 322 324 337
310 312 313 314 315 315 316 315 315 315 317 317 316 317 318 319 320 321 323 326 330 332 332 333 336 341 344 346 347 348 350 350 349 349 350 350 349 349 349 349 349 349 350 348 347 346 346 346 345 346 345 345 344 343 343 344 334 323 321 320 320 324 340
309 310 312 313 314 315 316 316 317 317 317 316 316 316 317 318 320 321 322 325 328 329 331 332 335 339 342 344 347 348 349 350 350 350 350 350 349 349 350 351 351 351 351 348 347 347 347 347 347 347 347 346 345 345 344 345 338 322 319 318 318 327 342
307 308 310 312 313 313 314 316 317 318 316 315 314 316 318 318 318 319 321 324 326 327 329 330 332 334 334 335 338 342 348 350 350 350 349 350 351 351 350 351 352 353 353 351 350 349 350 350 349 348 348 348 347 344 345 346 340 323 319 317 316 326 343
306 307 307 309 311 314 316 317 317 316 315 314 315 316 317 318 318 319 321 323 326 327 328 330 332 333 334 335 335 338 340 344 349 350 349 349 351 352 352 353 353 353 353 354 353 351 351 351 350 349 348 349 349 349 347 347 348 342 319 317 315 318 343
306 307 307 307 309 314 313 315 315 315 315 315 316 316 317 317 316 317 320 323 324 325 326 329 331 332 334 335 335 337 339 341 344 349 350 350 351 352 353 354 353 353 353 353 353 353 352 351 351 350 350 350 350 350 350 349 349 347 321 316 314 315 326
306 306 307 309 311 311 310 312 314 315 315 317 317 317 316 316 316 318 320 321 321 323 324 327 329 331 333 335 337 339 340 342 344 348 351 352 352 351 351 353 354 354 354 354 354 353 352 352 351 350 350 351 350 350 350 349 341 351 327 317 313 313 316
304 304 304 306 307 309 310 310 311 313 314 316 316 317 316 315 316 317 319 319 321 322 323 326 328 329 330 333 337 340 342 344 345 348 346 345 349 351 350 351 352 353 354 354 354 353 352 352 351 351 350 350 351 351 352 352 350 333 343 320 313 312 312
304 305 305 306 307 308 310 309 310 310 313 315 316 317 317 316 316 317 318 319 322 322 324 325 327 328 329 332 336 339 344 346 348 349 347 347 348 348 349 350 351 352 353 353 353 352 351 351 351 351 349 349 349 351 351 352 352 338 328 334 315 313 311
303 304 305 305 305 308 309 308 308 309 310 313 315 317 317 317 316 317 317 319 322 323 323 324 326 327 328 330 333 337 340 345 349 348 345 345 347 346 347 348 350 350 352 353 352 352 351 351 351 350 350 349 349 350 351 352 353 353 338 324 321 314 312
303 304 305 305 305 305 307 307 307 308 309 311 314 316 318 317 316 316 317 320 322 322 323 324 325 326 327 329 331 334 336 338 345 354 348 348 349 349 348 347 348 348 350 352 352 352 351 351 351 350 350 350 350 350 351 352 352 352 352 335 328 320 314
302 303 303 303 304 307 305 306 306 307 309 310 313 314 316 316 316 317 319 321 322 322 323 323 324 325 327 327 328 331 333 335 339 345 349 352 353 355 354 351 348 347 346 348 351 352 352 351 351 350 350 349 350 351 351 351 351 352 352 351 345 340 331
302 302 303 304 304 306 305 305 305 306 308 310 311 313 315 316 316 317 319 321 322 322 322 322 323 324 325 325 327 328 331 334 339 343 345 347 349 351 354 355 350 348 345 345 347 349 351 351 351 349 350 350 350 351 351 351 351 351 351 352 349 345 342
302 302 302 303 303 306 304 305 306 307 309 310 312 313 315 315 316 317 319 321 323 322 321 321 323 324 323 324 325 327 331 334 337 341 344 346 348 350 351 353 352 349 348 349 350 352 352 352 352 353 353 352 351 350 349 350 350 351 335 350 332 342 345
301 301 302 303 304 304 304 306 307 308 309 310 312 314 315 316 316 317 319 321 323 322 320 321 322 321 322 324 325 327 330 333 336 339 343 343 344 345 347 342 330 340 351 350 339 333 331 332 351 355 355 353 354 354 351 351 352 333 323 320 318 318 322
301 301 302 303 303 303 303 304 308 309 310 312 315 315 315 315 316 316 318 322 323 321 320 321 321 322 322 324 325 326 329 331 333 336 340 342 343 345 344 345 344 316 318 331 340 331 322 318 320 324 330 349 354 349 333 331 328 323 315 313 313 313 314
301 302 303 304 303 304 304 305 308 310 312 313 314 313 314 314 315 315 318 321 321 321 320 320 321 320 321 322 324 326 328 330 332 336 339 342 343 343 344 345 345 348 322 315 318 320 314 313 314 314 316 320 331 345 353 328 317 316 312 311 311 311 311

ECMWFFLT1_sfc_thetae_075.txt.gz
Theta_e
339 339 340 341 341 341 341 342 343 342 343 345 345 346 346 347 348 350 350 352 353 354 355 356 356 356 356 356 357 358 357 356 356 354 353 353 354 357 358 358 360 363 362 362 364 365 367 369 369 369 369 369 368 369 370 371 371 369 371 372 370 369 368
337 338 339 340 341 341 342 343 344 343 343 344 345 347 346 346 348 348 350 352 353 354 354 355 355 355 356 356 357 358 357 356 356 356 354 355 356 357 358 360 361 364 365 364 365 368 369 368 369 369 369 370 368 371 370 370 370 370 368 371 369 369 369
331 336 339 340 340 341 343 343 344 343 343 343 345 345 346 348 349 349 350 350 352 353 354 354 355 355 356 357 356 357 357 356 355 354 353 351 352 350 355 359 361 361 361 364 366 365 366 366 369 369 369 368 367 370 370 370 371 369 370 370 368 367 369
329 332 338 341 342 343 343 344 344 343 343 344 344 345 346 349 349 350 350 350 350 352 352 353 354 353 354 355 355 356 356 356 356 353 352 352 352 352 354 356 359 359 360 361 362 363 362 365 367 368 369 369 369 369 369 369 368 370 370 370 367 367 369
327 331 337 339 340 341 342 343 343 344 343 343 344 346 347 347 347 348 348 349 349 350 351 351 351 353 354 355 353 354 355 355 355 354 354 353 354 354 352 351 354 355 357 359 362 364 364 365 364 366 367 369 368 369 369 370 369 370 370 370 367 367 365
324 327 330 335 340 341 341 342 343 343 342 341 343 343 344 345 346 345 347 348 349 350 352 352 351 353 353 353 353 353 355 356 357 356 354 355 355 352 351 352 352 354 354 357 359 360 363 363 363 364 364 365 365 364 366 367 367 368 369 369 368 366 364
323 325 327 330 333 338 341 342 342 344 343 343 343 344 344 344 344 345 345 346 347 348 349 349 350 351 353 353 353 354 354 353 355 354 354 353 353 352 352 352 353 352 353 358 357 359 359 361 363 364 364 363 365 364 366 368 367 368 369 369 368 369 369
321 322 325 327 329 330 332 339 343 344 344 343 342 342 343 343 343 343 345 345 346 347 348 348 349 351 353 353 353 353 353 353 353 354 354 352 352 352 351 352 352 353 354 353 356 358 357 360 360 362 363 363 364 366 366 369 369 367 367 367 367 367 365
319 321 323 324 327 328 330 332 335 339 343 344 342 342 342 343 348 347 350 351 352 346 347 348 348 350 353 353 353 353 353 352 353 353 353 351 351 350 350 351 351 353 352 349 351 356 356 357 357 361 363 362 363 366 366 368 367 367 367 366 367 366 365
315 318 320 323 324 326 328 330 332 334 335 337 344 343 342 343 342 343 345 347 347 344 345 347 348 349 351 352 351 352 352 353 352 351 351 350 350 350 350 350 350 352 350 350 349 351 355 357 357 360 362 361 362 365 365 366 365 366 366 366 367 366 366
314 315 317 319 321 323 325 326 328 330 331 333 336 340 344 343 342 342 343 344 343 343 345 346 348 348 349 350 350 350 351 351 351 350 350 349 349 350 350 350 350 351 350 349 349 350 352 356 358 359 360 357 359 361 363 363 365 365 364 365 366 366 365
314 314 314 316 318 320 320 322 324 327 329 330 332 334 337 341 342 342 346 344 344 343 344 345 346 347 348 349 348 349 350 351 351 350 350 350 349 349 350 350 350 350 350 349 349 350 350 353 354 356 359 359 359 360 362 363 365 366 365 363 363 365 364
313 314 314 315 315 316 319 320 321 323 326 327 328 331 333 335 336 341 344 343 343 344 344 346 347 348 347 348 347 349 349 350 350 351 350 351 350 350 350 350 349 349 349 350 349 349 349 351 354 356 357 359 359 358 360 362 362 364 366 364 364 364 364
315 312 313 314 314 315 315 317 318 320 322 324 325 328 331 334 334 336 339 340 345 347 343 345 347 348 348 348 348 349 348 350 351 352 352 352 353 352 351 350 350 350 351 351 350 348 349 349 351 354 355 356 357 358 361 362 361 364 365 364 363 363 363
311 311 311 311 312 314 316 315 316 317 319 321 323 324 326 329 331 334 337 340 342 345 353 346 346 348 347 348 348 350 351 352 352 353 354 354 354 353 352 351 351 351 351 352 351 350 349 349 350 351 353 354 356 357 358 357 358 359 361 362 362 363 360
311 311 311 311 312 313 314 316 317 317 318 320 320 321 323 325 328 330 332 336 339 341 346 352 348 347 346 346 349 351 353 354 354 354 355 354 355 356 354 353 353 351 351 351 351 352 352 351 350 349 350 351 354 355 355 355 356 352 342 347 360 361 358
312 312 312 312 312 312 313 314 315 316 318 319 320 320 321 323 325 327 330 333 336 339 342 349 354 351 347 347 350 351 353 356 355 355 355 355 356 356 355 354 353 353 353 352 351 351 353 352 350 348 348 348 350 351 351 352 351 340 333 334 339 355 360
311 312 313 313 313 313 313 314 314 314 316 319 320 320 321 322 323 325 327 330 333 336 341 347 351 354 353 351 354 354 355 354 355 355 355 356 355 355 356 355 354 354 354 352 350 353 351 349 349 350 349 348 348 348 349 350 341 332 330 331 331 339 356
309 311 312 313 314 314 314 314 314 315 317 319 319 320 321 322 323 324 326 329 333 336 339 343 349 350 353 358 355 355 355 356 355 355 355 356 356 357 357 356 355 354 352 350 352 351 351 351 349 350 350 349 349 348 348 349 337 329 328 329 329 329 341
308 309 310 312 313 314 315 316 316 317 317 319 320 320 321 322 323 324 326 329 333 335 338 340 344 348 349 352 356 359 359 357 356 355 356 357 357 357 356 355 354 353 352 352 353 353 352 351 351 350 351 350 350 350 349 349 338 327 325 325 325 327 332
307 308 308 310 311 312 314 316 317 318 318 319 319 319 319 320 321 323 326 329 331 333 334 336 340 345 348 350 352 354 355 355 356 356 356 357 357 357 356 355 355 354 353 352 352 352 352 350 350 350 351 350 349 350 349 348 333 325 323 322 322 324 328
308 308 308 309 309 311 313 313 314 316 319 320 318 318 319 319 321 322 325 330 331 332 333 334 338 342 346 348 349 351 353 353 354 355 357 357 357 356 356 356 357 356 356 355 353 354 353 353 352 351 351 350 350 348 348 349 330 324 322 321 321 323 339
309 310 311 310 310 310 312 313 314 316 320 319 319 318 318 320 321 322 324 328 330 332 333 334 335 337 339 342 343 343 344 348 352 354 355 356 356 356 355 356 357 358 358 355 353 352 352 353 352 354 352 352 351 350 349 350 337 322 320 319 320 324 345
310 310 310 311 312 311 312 313 314 316 318 318 319 319 319 319 320 321 323 326 330 331 332 333 333 335 336 337 339 341 342 344 344 347 351 355 354 355 355 356 356 356 357 355 354 352 353 354 354 354 354 353 352 351 350 350 342 322 318 317 318 328 346
308 309 310 310 310 310 311 313 314 315 316 316 317 318 319 319 319 319 321 323 326 328 329 329 328 330 332 334 336 339 342 343 344 345 345 347 351 354 353 355 354 356 357 355 355 354 355 355 354 354 355 354 353 347 349 351 344 323 318 316 316 327 348
307 308 309 310 311 312 313 315 314 313 312 313 315 318 319 319 319 319 319 322 323 325 326 327 328 329 332 335 337 339 341 343 344 345 345 346 348 352 354 355 355 355 356 356 356 355 355 354 355 354 354 355 354 353 352 352 353 349 317 316 314 317 346
308 308 308 309 309 313 312 312 312 312 312 313 315 316 316 318 318 318 320 320 321 322 323 325 328 330 331 333 334 336 338 342 343 344 346 347 348 350 353 355 354 355 356 355 356 356 355 355 355 354 355 355 356 355 355 354 354 352 319 315 313 314 324
307 308 309 310 311 311 311 311 312 312 312 313 313 314 315 317 317 319 319 319 319 321 323 326 328 329 331 332 332 334 337 341 346 348 349 348 350 349 350 355 357 357 356 356 356 356 356 357 356 355 355 356 356 357 356 354 344 356 327 316 312 312 313
306 306 307 308 309 310 310 310 310 310 311 312 312 312 314 315 316 318 319 319 321 322 323 325 327 329 330 331 332 334 336 339 342 346 349 349 348 347 347 351 355 357 360 359 358 357 356 356 357 357 356 357 357 358 359 359 357 334 349 320 312 311 311
307 307 307 308 308 309 310 310 310 311 311 311 313 313 314 315 315 316 318 319 322 323 323 324 326 328 329 330 331 333 335 337 340 342 345 348 349 347 346 348 351 355 357 353 351 351 352 354 357 357 355 355 355 356 358 360 360 342 329 338 313 312 310
305 306 306 307 307 309 310 309 310 310 310 311 313 314 315 315 314 315 317 320 322 322 323 324 325 326 328 329 330 332 334 335 337 339 341 344 348 346 345 346 347 346 350 351 349 349 349 352 355 355 354 354 354 355 357 359 360 362 346 326 322 313 311
306 307 307 307 307 308 309 309 309 309 309 311 312 313 315 315 314 314 316 319 321 322 323 324 325 325 326 328 330 331 332 332 333 335 338 341 349 347 347 347 349 348 350 349 349 350 351 352 353 354 355 355 355 355 357 359 361 361 363 341 331 322 314
305 306 306 306 308 309 308 308 307 308 309 309 312 313 313 315 315 315 317 319 320 321 322 324 324 324 325 327 329 331 331 330 330 332 336 339 341 345 352 352 351 352 349 350 349 351 352 353 353 353 354 353 354 356 358 358 360 361 361 362 357 350 338
305 306 307 308 308 309 308 308 308 308 309 310 311 313 313 313 314 316 317 318 319 320 321 323 324 323 323 324 327 328 328 329 331 333 335 338 340 342 344 352 354 353 352 351 351 351 352 353 353 353 354 354 355 357 357 357 360 360 360 360 360 359 353
305 306 306 306 307 309 307 308 308 309 309 310 311 312 313 314 315 317 320 320 320 321 320 321 323 323 324 324 325 326 328 329 331 333 334 337 340 343 347 347 348 352 354 358 358 356 354 355 354 355 357 358 357 357 356 358 358 360 340 362 339 354 358
305 305 305 306 307 307 307 308 308 309 309 309 311 311 312 313 315 319 320 321 320 320 320 321 321 321 321 323 325 326 327 329 330 332 335 336 337 339 341 338 326 334 345 345 337 330 324 325 349 356 358 358 358 360 357 359 361 340 328 323 321 319 323
304 304 304 305 305 305 306 307 308 309 309 310 312 312 312 314 317 319 319 319 319 319 320 321 321 320 320 321 323 325 327 327 328 330 333 335 336 338 338 341 344 315 312 321 327 323 317 312 312 315 323 345 355 354 334 330 325 324 321 314 314 314 313
304 304 305 305 305 306 306 307 308 308 309 310 311 311 313 314 315 316 317 319 319 319 321 321 320 319 319 320 322 324 326 327 328 330 331 333 336 337 338 339 341 344 324 313 314 315 311 310 311 311 312 312 321 336 353 334 317 313 316 309 309 311 310

ECMWFFLT1_sfc_thetae_078.txt.gz
Theta_e
338 344 346 346 346 344 346 347 349 348 349 350 351 352 352 353 354 357 357 361 362 363 365 366 365 365 364 363 363 364 364 363 363 361 360 358 358 359 359 357 358 360 360 360 362 361 366 366 367 367 367 368 367 368 371 371 372 371 374 376 371 370 370
337 342 344 346 346 347 348 349 349 349 349 350 351 353 352 353 354 355 357 361 362 363 364 365 365 364 363 364 363 364 364 363 363 363 361 360 361 360 359 361 359 361 362 362 362 367 368 366 366 366 366 368 366 368 368 371 372 372 371 373 370 370 370
336 339 341 344 346 348 350 348 349 349 350 350 351 352 352 354 355 357 358 359 361 363 364 364 365 363 364 365 363 363 364 362 362 361 359 356 359 356 359 361 360 358 360 361 362 364 366 368 368 368 366 366 363 366 368 370 370 370 371 375 371 368 372
335 338 342 343 347 349 350 350 348 349 349 350 351 352 353 355 355 357 358 359 360 361 362 362 363 362 363 364 363 364 364 363 362 359 357 356 357 358 357 358 360 359 357 358 359 360 358 363 366 367 368 365 365 366 367 366 367 369 369 371 369 370 373
335 337 340 340 343 346 348 349 348 350 350 350 351 353 354 353 354 355 357 358 357 359 360 361 360 361 362 363 361 362 363 362 361 359 359 357 358 359 357 355 357 357 356 358 360 362 363 364 362 364 366 366 364 365 366 367 366 369 369 370 367 367 367
331 333 335 337 339 343 346 348 348 349 349 349 350 351 352 352 353 353 354 356 356 357 360 361 360 361 361 361 361 360 363 364 363 362 360 359 359 357 357 357 355 357 353 356 358 359 363 362 360 361 360 361 360 359 362 363 363 366 368 369 368 366 363
326 330 331 334 336 339 342 346 347 347 349 350 350 350 351 351 351 352 352 352 353 354 355 357 358 359 361 361 361 362 362 361 362 360 360 358 358 359 358 358 358 355 356 357 357 359 359 361 361 362 360 357 358 356 361 363 362 364 368 368 368 368 367
322 325 329 331 332 334 337 340 343 347 349 348 347 348 348 349 350 350 350 351 351 351 351 353 355 359 360 362 361 360 361 361 361 362 361 358 357 359 358 358 358 358 358 355 357 359 357 360 359 361 361 358 358 360 358 362 365 360 361 365 366 366 364
320 322 325 327 328 329 332 337 339 341 344 348 350 348 349 350 348 348 350 352 351 350 350 351 352 355 358 360 361 361 360 360 360 361 360 357 355 355 355 356 358 359 358 354 353 359 358 356 357 359 362 361 360 363 361 364 363 361 359 360 363 363 358
318 318 320 322 323 324 327 330 334 336 338 341 345 349 349 349 350 348 348 349 350 350 350 351 351 352 355 357 359 360 360 361 360 358 358 356 355 354 354 353 355 358 357 355 352 351 357 357 356 358 363 363 362 364 365 364 363 362 361 362 362 363 363
317 317 318 318 320 321 322 324 325 329 332 336 339 342 346 348 349 348 348 348 349 350 351 351 353 351 352 353 356 357 358 357 358 357 357 356 354 353 353 353 352 355 356 355 352 351 353 358 358 359 362 361 361 362 364 363 365 363 360 359 361 361 359
315 316 316 317 318 320 320 321 322 324 327 332 334 337 341 344 348 347 348 348 349 349 350 350 351 351 352 352 352 355 356 357 357 356 356 356 355 353 353 353 352 352 355 355 353 353 351 355 357 357 360 363 361 361 364 365 364 365 363 357 357 358 359
315 315 316 315 316 318 320 320 320 322 324 325 328 331 334 337 340 346 348 347 347 348 348 349 349 350 351 351 351 354 354 355 356 357 356 357 356 355 354 353 352 352 353 356 354 352 351 351 357 359 359 362 361 358 361 364 363 365 366 361 358 358 360
317 315 316 316 316 316 317 318 319 320 322 323 324 326 328 331 334 338 344 345 347 350 348 348 349 350 352 351 351 353 352 354 356 358 358 358 360 359 356 354 354 354 355 357 356 353 352 351 353 357 358 358 358 359 360 363 364 366 367 366 360 357 358
315 314 315 316 316 317 317 317 319 319 320 321 322 324 325 327 330 333 337 343 345 346 349 352 358 350 349 351 351 354 355 355 355 357 359 359 360 360 358 357 357 358 358 358 357 355 355 354 352 354 356 356 356 356 356 354 358 359 362 363 363 360 356
316 316 315 315 316 317 318 318 319 319 320 321 320 321 323 324 326 328 331 336 342 345 347 350 354 357 351 349 351 354 356 357 358 357 359 359 361 362 361 359 359 358 358 358 358 359 359 358 356 354 354 355 356 356 353 352 352 354 344 350 360 361 354
316 316 316 317 317 318 319 320 320 319 320 320 320 321 322 323 325 327 329 333 340 345 347 348 351 354 357 352 352 355 358 359 359 359 358 360 362 363 363 361 360 359 360 359 359 360 361 359 356 354 353 353 355 355 353 352 350 342 334 336 341 356 359
313 314 315 316 317 317 318 318 319 320 321 321 321 321 321 322 324 325 327 331 335 340 347 349 352 353 356 359 357 356 357 358 361 361 359 360 361 363 364 363 361 360 361 359 357 360 359 357 357 357 355 353 354 354 354 354 344 332 331 333 333 342 356
312 312 313 314 314 315 316 315 316 320 323 324 322 321 321 322 322 322 325 328 334 339 342 346 350 353 354 355 357 357 355 358 358 359 360 361 362 363 363 364 362 360 359 357 359 358 359 360 357 358 357 355 354 353 353 354 341 330 328 330 330 331 344
313 313 313 313 314 314 315 316 315 317 321 325 325 324 323 323 323 323 325 328 334 337 340 342 346 350 350 351 350 354 357 359 357 356 357 360 361 362 362 361 361 360 358 358 359 360 358 358 358 358 359 358 357 356 355 354 343 329 325 326 327 328 335
313 314 313 314 314 314 316 316 317 317 318 322 324 325 324 323 324 324 324 326 331 336 338 340 341 341 343 347 350 353 355 357 358 358 358 358 359 359 359 359 359 360 359 356 356 358 359 357 358 358 358 357 356 356 354 353 337 328 322 322 323 325 332
313 314 313 314 314 315 316 316 316 316 318 320 319 322 323 323 323 323 323 326 327 332 336 339 339 339 340 340 343 347 351 354 355 355 357 359 358 357 357 358 360 359 360 359 355 357 357 359 359 358 357 357 357 355 355 356 333 327 323 320 320 323 344
313 313 314 315 314 314 317 317 317 317 319 318 317 317 319 323 324 324 324 325 326 329 334 336 337 337 337 338 342 345 348 350 353 355 357 357 356 356 356 357 358 359 362 360 359 355 355 358 358 360 358 358 358 357 357 356 341 324 321 319 319 326 349
313 313 313 314 315 315 317 317 318 318 318 318 318 318 318 319 321 324 326 325 326 327 330 332 332 334 335 335 338 341 344 347 349 352 354 356 356 356 356 358 357 357 359 359 358 357 357 358 358 360 361 359 358 357 357 357 347 324 319 318 317 331 350
312 312 313 313 313 314 314 316 318 318 319 318 317 319 319 319 318 320 323 325 324 325 326 326 329 331 333 335 337 341 343 345 347 350 352 354 354 354 357 356 354 357 356 355 358 359 360 359 357 358 360 359 359 354 355 358 349 325 319 317 315 331 353
311 312 312 313 314 315 316 318 318 317 316 315 318 319 319 318 319 319 321 323 324 325 325 325 326 329 332 335 337 339 341 343 346 347 349 351 353 354 357 357 356 353 355 358 358 357 357 358 358 357 356 358 359 358 358 358 360 361 318 317 314 318 351
311 312 312 312 313 316 315 315 315 315 316 317 319 319 318 318 317 319 321 321 322 324 326 327 328 328 331 333 335 338 340 342 345 346 348 350 350 352 353 354 354 354 355 356 357 357 356 357 359 356 357 358 358 359 359 359 359 359 320 315 313 314 326
311 311 313 314 314 314 314 313 315 316 315 318 318 318 318 318 318 320 321 320 320 322 325 328 329 329 330 332 334 338 340 342 344 346 348 350 350 351 352 354 354 354 358 356 356 357 358 359 358 357 357 358 360 361 361 359 350 360 328 316 313 312 314
311 311 311 312 313 313 312 313 313 314 315 316 317 317 318 318 319 320 321 320 322 323 324 326 328 330 330 331 333 336 336 341 343 344 347 349 351 350 349 351 351 351 354 356 357 359 357 358 359 359 356 357 362 361 362 363 362 337 354 318 313 311 311
311 312 311 311 311 312 313 312 313 314 315 315 317 318 318 319 319 321 321 322 324 323 323 325 327 330 330 330 331 332 335 338 341 344 346 348 348 348 349 351 351 352 355 355 356 355 355 355 357 357 357 358 358 358 359 363 363 348 333 341 312 313 310
310 311 311 311 311 313 313 312 313 313 313 315 316 318 319 320 319 321 321 323 325 324 323 324 326 328 329 330 330 331 333 335 339 341 343 345 346 347 349 349 351 352 354 353 352 352 353 355 356 357 356 356 356 358 359 359 362 365 351 328 319 313 311
311 312 311 311 312 313 313 312 313 313 313 314 315 316 319 319 319 319 321 323 324 324 324 324 325 327 328 329 330 331 331 332 333 336 340 341 343 346 350 351 352 352 353 354 351 351 352 352 354 354 354 354 355 356 359 360 362 362 367 346 332 321 314
310 311 311 311 312 312 312 312 311 312 313 313 316 316 316 318 319 320 321 322 322 323 324 324 324 326 327 328 328 330 331 331 330 333 335 338 339 342 346 351 352 352 352 354 355 353 352 352 352 352 352 353 353 355 359 359 363 362 360 365 362 351 338
310 310 311 312 312 313 313 312 312 312 313 313 316 317 317 317 317 319 320 320 321 321 323 324 325 325 326 327 328 328 330 330 330 332 334 336 338 338 340 345 350 351 351 352 353 353 352 352 352 351 353 354 356 358 354 351 353 355 358 364 363 361 359
309 309 310 310 311 312 312 312 312 313 313 314 315 316 318 319 319 319 320 321 322 323 324 323 324 325 326 326 327 326 329 329 329 330 332 335 338 340 342 343 343 346 350 354 357 356 354 354 356 356 357 359 359 351 349 350 351 358 331 348 331 347 361
308 309 309 310 311 311 311 312 312 313 313 314 315 316 317 318 319 320 320 321 322 323 323 323 322 323 323 324 324 324 326 326 326 328 330 331 334 336 338 337 323 333 342 342 338 329 320 322 347 353 357 356 355 355 350 350 357 332 320 314 313 319 320
306 307 307 309 309 309 310 311 311 312 312 313 314 315 316 317 318 319 320 321 322 321 322 322 322 321 322 323 323 323 325 325 326 327 329 331 332 333 333 334 338 317 312 318 325 323 319 315 312 313 317 339 347 344 329 324 319 313 311 313 312 310 312
308 308 308 309 308 309 309 309 311 311 311 312 313 314 315 315 316 317 318 320 321 321 321 321 320 320 321 322 323 324 325 326 328 329 329 330 331 332 332 333 334 337 322 312 314 316 312 311 311 309 309 309 316 329 344 331 318 313 313 314 315 310 308

ECMWFFLT1_sfc_thetae_081.txt.gz
Theta_e
340 343 344 346 347 348 349 350 350 351 350 353 351 351 352 352 353 356 356 360 363 364 365 366 365 365 364 361 362 363 363 362 361 360 359 357 355 356 356 355 356 359 359 359 360 361 363 367 366 366 367 366 367 369 373 373 374 372 374 373 370 370 371
336 340 344 344 345 347 350 349 350 352 350 351 352 352 353 353 354 356 358 362 364 361 365 366 366 365 364 363 362 363 364 363 362 362 359 359 358 357 356 357 356 359 363 362 362 365 364 363 367 367 367 368 364 370 368 373 373 373 370 371 369 372 370
339 340 341 344 344 345 351 349 350 353 350 348 351 353 353 355 355 357 359 363 364 363 366 365 368 365 364 365 363 363 364 362 362 360 358 354 357 353 357 359 358 356 358 363 365 364 366 363 365 365 366 365 362 364 369 366 371 370 372 374 370 369 372
340 342 342 343 346 349 352 351 350 350 351 352 350 353 353 355 353 356 361 362 361 364 363 358 366 363 364 364 364 364 364 364 362 359 357 353 354 354 354 356 358 357 357 358 360 363 362 365 363 365 365 365 365 366 365 367 368 368 371 377 369 369 373
339 338 338 339 344 347 347 348 346 348 349 350 351 354 353 353 355 356 360 356 361 362 363 365 362 361 363 364 361 361 363 363 361 359 358 354 356 356 353 352 354 353 354 356 358 360 363 362 363 363 363 365 363 365 365 365 366 368 368 372 368 368 369
333 335 336 339 344 346 348 347 351 349 353 350 351 353 352 353 355 355 354 356 356 359 362 362 360 361 361 362 361 359 364 365 365 362 359 357 356 353 353 353 352 352 350 354 354 357 359 360 360 361 361 360 359 359 361 363 361 363 367 367 366 365 364
331 333 335 338 343 346 347 348 348 349 351 350 353 354 353 353 352 354 354 354 357 360 359 357 354 359 362 361 361 360 362 362 363 360 358 356 356 356 354 355 355 352 352 355 353 355 357 360 361 361 360 359 358 356 360 363 361 362 366 367 367 366 366
327 331 333 334 336 340 342 347 347 350 351 351 347 351 351 354 356 354 350 353 352 356 359 358 356 358 361 361 359 359 360 361 362 361 359 356 354 356 355 355 355 354 354 351 354 356 354 359 360 359 358 357 358 358 357 362 364 360 361 364 365 365 361
325 328 330 331 333 334 336 340 344 348 349 349 350 351 354 354 353 352 354 356 356 356 355 356 357 358 363 361 361 361 360 360 360 360 358 354 351 352 351 354 355 356 354 351 350 355 355 354 356 358 360 359 358 360 359 363 361 361 360 362 363 364 363
323 325 328 329 331 332 334 335 337 338 343 347 350 351 350 354 352 351 354 351 349 352 357 359 355 357 362 362 360 361 361 360 358 356 356 352 350 350 349 348 351 355 354 352 348 349 355 356 355 356 360 358 358 359 360 360 360 360 359 359 361 362 362
321 323 324 325 327 329 330 330 331 332 334 338 344 346 347 350 351 351 353 350 351 354 356 358 353 353 357 361 359 359 360 359 357 355 355 353 351 349 348 347 347 350 353 352 349 347 351 355 356 358 359 357 359 359 360 359 360 360 358 357 358 360 358
320 321 321 322 324 325 325 327 328 329 331 334 335 338 342 344 345 347 349 352 350 350 352 352 354 352 354 356 356 359 358 359 358 356 355 354 351 350 349 347 346 347 350 351 349 348 346 352 353 354 358 360 361 361 361 362 361 361 360 356 355 355 356
321 320 319 320 322 324 325 326 326 327 328 330 332 333 336 338 340 343 345 346 348 350 351 353 352 353 353 353 354 355 356 357 357 357 356 355 354 352 351 349 347 346 346 349 350 348 345 346 353 354 355 359 360 359 361 361 360 363 362 359 355 354 355
323 322 321 320 321 322 323 325 326 326 326 327 328 330 332 335 336 340 342 343 346 350 351 352 354 351 352 353 354 354 355 357 358 358 360 358 359 357 352 351 350 349 348 350 349 347 347 345 348 353 354 355 358 359 360 360 361 363 363 361 355 352 352
320 320 321 320 320 322 323 323 325 325 325 326 326 327 328 330 332 336 341 344 345 346 348 351 353 356 354 352 353 355 357 360 359 359 360 360 362 360 357 355 354 355 353 354 351 349 347 346 345 349 353 354 356 357 355 353 356 358 360 361 360 354 349
318 318 318 318 319 320 322 323 324 325 326 327 326 326 325 326 329 332 336 340 343 345 347 349 351 354 355 356 355 355 357 360 361 361 362 362 363 364 362 359 359 354 354 353 351 354 354 353 349 346 349 352 354 355 351 349 349 355 348 353 360 358 349
317 317 317 318 319 319 320 321 323 325 326 326 326 326 326 326 327 330 334 340 343 345 347 349 349 350 354 355 358 357 357 358 360 360 362 364 364 365 366 363 360 359 362 358 355 358 363 357 351 348 347 349 351 352 349 346 345 343 336 338 344 357 356
316 317 317 317 319 319 319 318 320 322 324 326 327 326 327 328 329 329 331 338 341 343 347 347 348 350 353 353 354 353 355 357 355 356 357 360 360 364 366 364 363 361 360 357 356 361 355 354 355 356 351 349 349 348 349 348 343 332 333 335 335 345 358
316 317 317 318 318 320 320 319 319 320 323 324 325 327 328 329 328 328 331 333 339 343 343 344 345 347 352 354 351 350 353 353 355 357 355 359 364 364 364 364 364 362 358 355 358 357 359 361 356 357 357 354 353 349 349 349 341 329 330 332 332 334 347
317 317 317 318 318 319 320 321 321 321 322 321 323 326 328 329 329 330 332 334 337 341 343 344 345 347 348 349 349 350 350 350 352 354 357 359 361 362 363 362 362 363 360 358 358 360 359 358 359 359 361 359 358 357 353 351 344 328 327 328 329 331 340
316 317 317 317 318 318 319 320 321 321 322 321 321 321 321 324 328 331 332 332 333 335 340 343 343 343 341 341 344 345 346 350 353 355 356 358 357 355 353 357 357 358 362 362 360 357 359 359 359 360 360 359 359 358 355 353 339 327 324 324 325 328 336
316 316 316 316 317 319 319 318 319 318 321 323 320 319 320 321 322 325 329 331 331 332 334 338 339 339 340 339 339 340 343 345 347 351 354 354 353 352 355 357 357 355 358 356 359 358 359 358 361 360 360 360 359 357 357 355 335 327 322 321 322 326 347
316 316 316 317 317 317 320 321 320 320 322 321 321 320 319 322 321 322 326 328 329 332 331 332 333 334 337 338 337 338 341 344 346 348 351 355 353 350 352 353 354 356 358 357 354 355 353 354 356 362 360 359 360 358 358 358 344 325 320 319 320 328 353
316 317 316 317 318 318 320 320 320 321 321 321 321 322 321 321 322 322 324 325 326 330 332 330 330 331 333 334 334 337 339 342 343 344 348 351 351 350 352 355 355 354 358 352 352 353 356 357 357 358 359 360 359 358 359 359 350 324 318 317 318 334 354
315 315 316 316 316 317 317 319 320 321 321 321 320 321 322 322 321 320 321 323 322 324 327 330 330 330 331 331 334 336 338 340 341 342 343 345 348 353 350 350 353 356 359 356 356 356 358 357 357 357 360 358 357 359 358 359 351 326 319 317 315 333 357
314 315 316 316 317 318 318 320 320 319 318 317 321 322 322 321 321 322 322 322 321 322 323 326 328 331 332 333 333 335 337 338 342 342 343 344 346 351 356 354 352 353 357 357 358 355 356 356 358 358 358 357 359 359 359 359 361 357 318 316 314 320 355
314 314 315 315 316 318 317 317 317 317 317 319 322 321 321 321 320 322 324 324 322 322 322 324 327 328 331 334 333 334 336 337 337 338 342 345 346 349 350 349 353 353 356 355 354 354 354 355 356 357 358 359 360 359 359 360 360 360 318 314 313 315 329
314 314 315 317 317 317 316 315 317 317 317 319 319 320 320 321 321 323 324 324 324 325 324 325 325 325 328 332 332 334 336 338 339 339 339 344 347 348 346 348 350 349 357 357 355 352 352 356 356 355 356 360 361 361 359 359 352 360 327 316 313 313 316
314 314 314 315 316 316 315 315 315 316 317 317 318 318 319 319 321 322 323 324 326 326 328 327 325 326 327 329 330 332 333 336 337 339 340 343 342 342 344 346 347 349 351 353 353 352 351 355 356 357 357 359 362 360 360 361 363 340 354 318 312 311 312
315 315 314 314 314 315 315 315 316 316 317 317 319 319 320 320 320 322 323 324 328 328 329 328 327 327 326 327 327 328 330 331 335 338 340 341 342 342 343 343 347 349 351 352 353 352 352 353 356 355 354 355 355 358 361 364 361 350 337 341 312 312 310
313 313 314 314 314 316 316 315 315 315 316 317 319 320 321 320 320 321 321 324 326 327 327 326 327 327 327 327 328 328 329 330 333 335 337 338 338 341 342 343 346 347 352 354 353 354 355 356 356 356 354 354 354 356 359 361 363 364 353 333 320 312 310
314 315 314 314 315 316 315 315 316 315 314 316 317 318 320 320 320 320 321 323 325 326 326 326 326 327 327 327 327 328 329 328 327 328 331 332 336 338 340 339 341 343 348 350 350 352 352 350 353 354 354 354 355 357 356 356 358 359 358 354 340 324 312
314 315 314 314 315 315 315 315 314 315 315 315 317 317 318 319 320 321 323 323 323 323 324 325 324 324 326 328 328 330 330 329 326 325 327 328 327 329 335 340 343 345 347 350 349 350 350 352 352 352 352 353 354 357 352 352 355 356 357 364 364 358 344
314 314 315 315 315 316 315 314 314 314 315 315 317 318 319 319 320 321 322 323 323 323 324 324 325 323 325 326 327 327 328 327 329 328 325 326 328 328 333 337 341 342 342 344 346 348 346 348 348 350 351 352 356 355 351 353 354 358 354 358 361 363 364
313 313 313 313 314 314 314 314 314 315 315 315 317 318 319 320 321 322 323 323 324 325 324 323 324 325 326 325 326 326 329 328 327 327 327 327 330 334 338 337 337 336 337 342 346 345 341 339 340 344 350 354 353 353 351 351 353 357 335 342 324 342 354
312 311 312 312 313 313 313 314 314 314 315 315 317 317 318 318 319 321 321 323 324 324 323 323 323 323 322 323 323 323 324 324 324 325 327 327 328 330 331 334 322 331 337 336 333 325 319 317 334 338 340 340 343 349 349 351 358 331 313 314 315 313 312
311 311 311 311 311 311 312 312 313 314 314 315 316 316 317 317 318 319 320 321 321 321 321 322 322 322 321 322 322 322 323 323 323 325 327 327 326 325 325 328 336 312 310 317 323 319 313 311 311 312 314 329 337 338 326 322 318 312 309 309 310 308 306
311 311 311 311 311 311 311 311 312 313 313 314 315 315 316 316 317 318 318 320 320 321 321 321 320 320 320 321 322 323 324 324 325 326 327 328 328 329 329 328 328 333 319 310 311 312 309 307 306 304 306 307 313 325 338 327 317 313 312 309 307 306 305

ECMWFFLT1_sfc_thetae_084.txt.gz
Theta_e
340 342 344 346 345 346 349 350 351 349 349 351 353 351 348 347 350 353 356 360 360 360 361 362 363 363 362 361 363 364 363 364 363 361 361 361 361 361 359 356 358 363 360 359 360 362 365 365 365 365 367 367 368 370 372 371 371 369 371 375 371 378 369
339 341 342 344 346 346 345 349 347 349 348 350 350 351 349 350 352 352 357 361 361 361 360 361 363 363 361 362 362 364 364 364 363 364 361 366 366 366 361 361 362 365 368 366 365 365 365 363 364 366 365 367 365 371 368 371 372 372 371 373 371 371 371
337 338 341 345 346 347 346 347 347 347 349 350 350 351 351 351 349 353 359 359 362 363 361 360 364 362 362 363 362 363 363 362 362 360 359 356 356 352 356 362 361 361 361 364 369 363 362 364 368 369 367 364 361 369 371 371 372 370 372 373 373 369 372
339 340 342 344 347 349 352 350 349 348 349 350 352 352 350 350 352 352 356 359 361 362 361 360 361 361 361 362 361 363 363 363 362 358 357 356 355 354 356 360 362 359 361 360 360 359 358 363 364 369 368 368 367 365 366 367 367 369 369 372 370 368 373
338 340 342 344 344 346 347 347 350 351 351 351 352 357 355 351 353 355 352 354 356 359 360 361 361 360 361 361 358 359 360 360 360 359 358 356 358 357 355 352 354 355 358 357 363 367 371 364 361 365 366 370 365 367 367 366 366 369 370 370 372 369 368
335 337 340 342 344 348 349 349 352 352 352 352 351 351 352 351 352 351 355 355 352 354 359 360 359 360 360 360 359 358 361 363 363 362 360 359 358 353 352 353 354 354 353 357 358 360 364 364 362 362 361 360 359 360 361 363 363 364 368 370 371 366 365
333 334 337 339 342 345 349 350 350 349 350 351 353 354 354 351 350 350 354 354 355 354 355 358 358 356 359 360 360 362 361 359 360 357 357 354 354 354 353 353 355 352 352 358 356 358 358 362 364 364 363 360 362 359 363 366 364 365 367 369 370 370 369
330 332 335 336 337 340 344 347 348 349 350 353 352 352 349 351 351 351 351 351 350 353 358 358 353 353 358 359 358 356 358 360 360 358 357 353 351 352 352 352 353 355 354 352 357 357 354 359 358 361 361 360 360 362 361 367 369 360 362 365 367 366 361
329 331 332 334 335 335 338 346 348 349 350 351 351 349 353 351 350 352 354 358 358 357 356 358 358 358 356 354 357 356 357 360 360 359 356 352 350 349 349 351 351 355 352 348 350 355 355 357 357 362 363 361 363 363 362 366 363 362 363 364 366 364 362
327 328 329 330 333 333 333 335 339 345 348 350 351 352 354 355 354 354 354 355 356 357 357 358 358 359 358 358 356 352 353 358 358 357 354 351 349 349 349 350 350 353 351 348 349 349 355 357 358 361 364 362 364 365 362 366 361 362 362 366 365 365 366
324 326 327 328 329 329 329 331 333 336 340 346 349 348 350 353 353 349 351 353 353 357 358 357 358 358 355 352 354 355 349 352 352 354 355 351 348 348 348 349 350 351 349 348 347 349 351 356 360 361 363 357 360 363 362 363 363 363 360 360 362 364 362
322 323 324 325 325 326 326 329 330 331 334 337 341 344 347 348 349 349 351 352 353 354 355 356 354 356 356 355 354 354 353 352 352 352 351 352 349 346 347 347 347 349 350 350 349 350 350 353 354 358 360 360 359 360 362 363 364 364 362 357 358 360 361
321 321 322 323 324 324 325 327 328 329 330 330 332 336 339 339 344 346 348 349 351 352 354 354 355 355 352 352 353 352 351 355 352 353 348 350 348 346 347 345 344 345 348 350 350 348 346 351 354 356 359 360 360 358 361 362 361 364 364 362 360 359 358
323 321 322 323 324 324 324 325 326 328 330 330 331 333 336 337 338 342 346 346 348 349 350 353 354 353 353 351 353 352 353 353 357 354 349 353 356 355 348 346 346 347 348 351 350 348 346 345 352 355 355 359 358 360 362 363 361 364 365 362 360 359 359
320 319 319 320 322 324 325 325 326 327 329 330 328 331 333 335 336 341 344 346 347 348 349 351 351 352 351 351 349 350 355 356 356 357 355 353 351 352 356 355 356 359 357 356 350 347 348 346 345 351 351 353 357 359 360 358 358 358 361 361 360 359 355
320 319 318 317 319 321 324 326 326 327 329 330 328 327 328 329 332 335 337 342 344 347 348 350 350 352 351 351 352 355 355 358 355 357 359 358 355 354 355 359 362 359 365 364 355 355 355 354 352 349 351 352 355 357 356 356 356 357 349 353 359 358 352
318 318 318 318 319 318 320 323 324 325 327 328 329 329 328 329 333 335 337 340 342 344 347 348 349 350 350 351 352 353 357 357 358 358 355 356 357 358 359 360 354 352 352 355 360 366 368 360 353 347 345 350 350 351 351 353 352 346 337 339 346 358 358
316 317 317 318 319 319 319 319 320 321 323 325 328 328 330 331 332 332 334 336 340 345 349 348 347 348 348 351 351 352 352 355 355 357 359 358 360 358 361 358 358 356 354 353 351 352 355 352 356 358 352 346 347 349 350 352 347 334 333 335 336 346 359
316 317 317 318 318 319 320 319 319 321 321 322 322 327 328 330 330 332 334 336 339 345 346 344 344 344 345 347 348 346 347 351 353 354 355 358 359 360 359 358 356 356 354 352 354 355 353 351 354 356 355 352 354 349 349 350 342 331 330 332 333 335 349
317 317 317 318 318 318 319 320 321 321 321 324 324 322 322 327 331 332 334 337 339 341 344 343 342 341 341 343 343 344 346 347 348 350 354 356 358 358 358 358 357 357 358 357 357 356 356 354 355 352 357 357 354 356 355 351 344 329 326 328 330 332 340
316 316 317 317 317 318 318 319 321 322 322 322 322 323 321 321 327 333 334 335 335 337 339 338 339 339 340 341 342 343 344 345 348 349 351 354 356 356 355 355 357 357 357 358 359 357 358 358 357 357 355 356 356 355 353 352 340 329 323 324 326 329 336
316 315 315 316 318 318 318 317 318 319 321 323 321 321 322 320 322 324 324 329 333 333 335 334 334 335 337 339 341 342 343 344 345 347 350 352 354 354 353 354 356 358 360 360 360 360 359 356 355 353 354 356 357 355 354 355 337 329 321 321 323 327 343
316 316 316 317 318 318 319 319 319 320 322 321 320 319 321 323 323 324 323 323 326 336 333 332 333 332 334 334 335 336 338 341 342 344 346 349 350 349 349 351 353 356 358 357 357 357 356 356 355 355 354 355 357 358 357 356 344 330 319 318 320 326 347
317 317 316 316 319 318 319 319 320 320 320 320 321 320 321 322 325 326 327 326 326 329 333 328 329 333 333 332 333 334 337 340 340 341 343 345 347 349 350 352 353 354 356 353 353 353 354 355 355 356 356 355 356 357 357 357 351 332 319 316 317 330 346
316 316 316 316 317 316 316 318 320 320 320 320 319 320 321 322 322 323 323 323 322 322 322 323 324 326 329 329 333 336 336 335 338 337 338 343 344 348 349 349 349 351 354 354 355 355 356 356 354 355 358 357 356 358 359 358 349 333 320 315 315 327 347
314 315 315 316 317 316 318 320 319 318 317 317 318 320 321 321 322 324 324 323 323 323 322 324 325 325 327 329 330 332 337 338 338 338 336 338 343 348 352 354 351 350 352 354 357 355 355 356 356 354 354 356 358 357 357 356 357 355 326 314 313 318 347
315 314 315 315 314 319 316 317 317 316 316 318 320 319 319 319 320 322 324 324 325 324 324 326 328 328 331 332 328 329 333 336 339 338 338 337 339 345 347 349 349 350 356 356 357 356 354 353 354 355 355 356 356 356 355 355 357 355 325 313 310 312 325
314 315 315 316 318 318 316 315 316 317 317 317 317 318 318 319 321 322 323 323 323 324 327 328 328 328 328 330 330 330 333 336 339 339 340 341 342 340 339 342 343 344 348 351 354 355 355 355 352 352 355 354 353 354 357 357 352 352 331 322 314 310 309
314 313 313 314 315 316 315 315 316 315 315 316 317 319 319 319 320 320 322 321 324 325 327 327 327 328 327 329 328 331 329 333 334 337 337 340 342 341 341 342 341 343 347 347 348 349 351 354 353 352 353 354 353 353 357 357 356 337 349 333 324 311 308
315 314 313 314 315 316 316 315 315 315 316 316 318 318 319 320 319 321 321 322 324 324 325 325 326 327 328 329 328 328 328 328 333 336 337 339 340 340 342 342 344 345 345 346 347 349 349 350 351 352 350 350 350 351 355 356 353 348 340 343 328 315 308
314 314 313 314 314 317 316 314 314 315 316 317 318 319 320 319 319 319 320 322 325 325 324 324 325 326 325 325 325 326 327 329 332 336 337 336 336 337 339 340 342 342 345 345 344 345 346 349 354 352 350 349 348 350 352 351 351 352 349 337 337 319 313
315 315 315 315 315 315 315 315 315 315 315 316 317 318 320 319 319 319 320 322 324 325 325 325 324 324 324 324 325 326 328 328 327 327 330 327 329 332 338 338 338 339 341 343 343 346 346 347 348 350 351 349 349 350 349 350 352 357 359 350 350 342 323
315 315 314 314 315 316 315 314 314 314 315 315 317 318 318 319 319 320 322 323 321 322 326 325 325 325 325 326 324 325 326 325 325 324 324 325 325 325 326 330 333 336 342 348 346 346 347 347 347 344 343 347 347 345 347 350 354 355 356 358 357 354 348
314 313 314 314 315 314 314 313 313 313 314 314 316 317 318 318 319 320 321 321 321 322 323 324 323 323 323 323 325 325 326 326 329 329 327 327 327 326 325 328 334 337 342 338 336 336 336 339 339 337 336 338 343 345 346 348 349 352 350 351 353 355 356
313 313 313 313 313 314 313 313 313 313 313 314 315 316 317 318 318 319 320 321 321 322 321 320 322 322 322 322 323 322 327 324 323 323 324 326 331 333 336 334 331 336 339 337 338 338 335 335 333 332 329 330 335 338 335 335 338 348 324 331 323 334 344
312 312 312 313 313 313 313 313 313 313 313 314 315 316 316 316 317 318 318 320 320 321 320 320 319 319 319 320 320 320 321 322 321 322 323 322 324 326 329 332 318 323 331 327 333 327 319 319 331 331 331 332 334 336 335 336 341 323 313 310 309 309 310
311 311 311 312 311 311 311 312 313 313 313 313 314 314 315 315 315 316 317 317 318 317 318 318 318 317 318 319 319 320 321 321 320 321 324 323 321 322 322 322 326 312 311 313 319 316 313 310 309 310 313 328 332 333 324 322 316 309 306 305 305 304 305
312 312 311 311 311 311 311 312 312 312 312 313 313 313 314 313 314 315 315 316 316 318 319 318 318 317 317 318 319 322 323 321 323 323 322 324 325 325 325 325 324 327 317 311 311 311 308 306 306 305 306 307 313 324 334 324 312 308 306 306 305 306 305

ECMWFFLT1_sfc_thetae_087.txt.gz
Theta_e
340 341 341 342 342 342 345 346 344 343 345 347 348 346 340 340 345 348 350 349 352 350 353 356 354 355 353 354 355 356 354 356 357 354 356 355 356 357 357 358 359 357 357 356 356 355 357 361 360 360 361 360 364 364 365 363 362 365 365 368 366 370 362
337 339 342 344 344 343 346 346 345 347 346 348 349 345 344 345 345 347 350 350 352 351 353 356 356 355 355 353 356 356 354 356 357 359 357 357 358 357 357 357 358 359 357 358 357 357 360 360 359 360 361 362 362 365 366 365 363 364 365 366 364 362 365
338 340 341 342 342 341 345 348 346 346 346 348 348 348 347 345 346 346 347 348 350 354 353 356 357 356 357 355 356 356 356 356 356 356 354 356 356 356 356 355 357 358 358 359 358 358 361 359 360 359 361 360 362 364 364 365 364 365 366 365 365 363 363
336 338 343 345 346 344 345 347 345 347 348 350 352 350 346 347 347 347 349 348 349 352 354 355 357 357 357 356 355 356 356 356 356 355 355 354 354 353 354 354 356 357 358 357 362 360 360 358 359 359 367 359 358 363 364 363 364 365 366 364 363 363 361
337 338 339 341 343 343 345 343 343 344 348 353 350 349 348 348 349 349 350 351 350 351 357 356 358 358 357 357 357 358 357 357 356 355 355 354 354 351 350 353 353 356 357 357 357 359 357 358 358 361 362 359 360 361 363 362 362 364 364 363 361 362 362
335 336 338 339 342 343 344 347 347 348 348 350 348 347 350 351 351 350 350 352 352 352 351 350 350 354 356 357 356 357 357 357 357 356 355 354 353 351 349 350 351 351 355 356 357 357 358 358 358 361 360 360 360 359 361 361 362 363 363 363 363 362 362
331 334 336 338 340 343 345 346 347 351 350 350 350 350 350 349 349 350 350 351 352 350 349 349 350 350 354 357 355 355 355 356 357 356 356 354 353 350 349 349 351 350 353 354 354 356 359 356 357 358 359 358 359 358 358 358 358 361 361 361 361 362 361
326 330 335 338 341 341 342 350 349 351 352 352 351 350 348 348 350 352 352 351 350 350 350 349 348 348 352 356 357 355 355 356 357 357 355 354 352 350 349 349 351 349 350 352 353 355 356 357 358 357 358 356 355 355 357 357 357 360 359 361 361 362 365
327 328 329 330 330 333 341 345 347 349 349 349 350 350 351 350 350 351 352 352 351 349 348 350 350 354 355 355 355 355 356 356 356 356 354 354 350 350 349 348 350 350 349 350 351 354 354 356 357 357 357 356 355 355 356 358 357 359 359 360 360 359 360
325 326 327 327 328 330 333 337 344 347 348 348 349 348 347 345 349 351 353 356 353 350 352 354 356 358 356 354 351 350 350 355 362 356 354 352 350 347 347 347 348 351 348 347 349 350 352 355 355 356 356 355 355 354 354 358 357 357 357 359 359 359 359
323 324 325 325 326 329 332 332 330 331 334 338 340 345 349 349 353 352 353 352 352 356 357 355 355 352 348 353 358 358 351 351 351 350 351 350 349 347 346 346 346 348 348 346 345 348 349 353 353 353 356 355 354 356 352 357 357 355 355 358 360 360 359
322 323 323 324 325 326 327 329 330 329 330 331 334 335 340 346 348 349 350 350 350 349 351 348 349 348 344 348 355 354 354 353 353 354 350 347 344 346 345 346 346 346 348 347 344 344 347 350 352 353 355 354 354 356 354 357 356 355 354 354 356 359 359
322 323 323 324 324 326 326 326 327 327 328 330 331 333 334 335 341 347 347 349 350 351 349 348 350 349 348 350 354 353 352 354 352 351 352 349 348 348 346 347 345 346 347 347 345 344 345 346 351 354 354 354 354 354 355 355 357 356 355 354 353 355 357
323 323 324 324 323 323 323 324 325 327 326 327 329 330 332 334 337 344 346 346 348 349 350 351 352 353 353 355 354 353 353 354 355 354 352 350 350 348 349 351 352 343 347 347 345 344 343 346 348 351 354 354 353 353 354 355 355 356 357 355 355 354 354
318 320 322 323 324 324 323 323 325 326 327 326 328 329 331 333 335 339 343 344 345 349 350 350 350 350 350 350 350 350 351 352 352 354 354 354 351 350 350 352 354 352 351 346 346 346 345 344 347 348 352 354 353 353 353 354 355 355 357 356 354 354 353
316 317 319 320 322 322 323 324 325 326 327 326 327 329 331 332 334 337 340 343 344 344 349 350 348 349 350 350 351 352 355 355 353 355 356 354 352 351 353 355 355 353 352 350 354 350 347 344 345 347 348 351 352 352 353 353 355 356 349 353 356 353 353
315 315 316 318 318 318 319 322 325 325 326 327 328 328 330 331 333 335 337 342 344 345 348 348 346 348 349 349 349 350 351 349 351 355 353 353 354 355 356 357 356 353 352 352 353 349 350 350 350 344 347 347 350 351 352 353 355 347 337 339 346 356 352
315 315 315 316 317 317 317 317 318 319 322 327 327 327 328 330 333 332 333 338 342 343 345 345 345 344 344 345 345 345 347 350 350 349 350 351 354 356 356 356 356 354 353 353 353 351 353 351 350 350 350 347 347 349 351 352 349 337 334 335 335 346 355
314 315 315 316 316 318 318 317 317 319 319 320 322 327 328 330 331 332 332 334 341 343 341 341 343 343 343 343 344 344 345 347 347 350 349 350 353 357 356 355 355 354 354 353 353 353 351 350 351 351 352 353 351 347 348 350 342 334 331 332 332 333 346
313 314 314 315 316 317 319 321 319 319 321 320 321 322 328 332 330 330 335 337 338 337 338 339 340 342 342 342 343 344 345 346 348 349 349 351 353 353 354 354 353 355 356 356 354 353 353 354 352 351 350 351 352 351 352 349 346 331 327 327 329 331 337
313 314 314 313 314 315 316 317 319 320 317 318 321 320 320 321 328 332 335 335 334 334 335 337 337 338 339 341 342 343 344 345 346 348 348 350 354 353 352 352 353 354 356 355 356 353 352 353 353 352 353 352 350 350 351 353 342 333 325 322 322 326 332
312 314 313 313 313 314 314 316 316 318 318 322 318 319 320 319 321 321 324 332 331 331 332 333 333 334 335 336 338 340 343 343 344 345 346 349 350 349 350 350 352 352 354 354 355 356 357 355 354 352 352 352 352 351 350 353 335 327 326 319 318 322 334
313 314 315 314 314 314 316 316 317 319 318 316 316 319 321 322 323 323 323 325 331 329 329 330 330 332 334 333 333 336 338 342 342 343 346 346 348 347 348 348 350 351 353 351 351 352 353 353 354 354 353 352 353 351 351 354 331 324 322 322 321 326 334
314 314 315 314 314 315 317 317 318 319 317 315 316 317 319 321 323 322 321 322 325 324 323 323 324 327 328 331 335 335 335 338 338 337 340 343 345 346 348 351 350 350 353 351 350 350 351 352 352 353 354 353 352 352 351 352 334 321 317 323 321 329 336
312 313 313 313 312 313 316 318 320 318 317 315 316 316 319 322 322 322 321 322 321 321 320 321 323 324 325 325 328 335 336 336 339 336 336 336 339 345 347 347 346 348 350 351 352 352 353 354 353 353 354 354 355 359 355 351 343 327 324 320 322 330 341
311 311 311 312 313 316 319 318 315 314 313 314 316 316 318 321 322 325 323 323 322 321 323 324 325 325 325 327 325 327 332 336 336 336 337 335 335 340 344 345 346 347 349 351 353 352 353 354 353 352 352 354 354 354 354 353 352 346 328 326 323 320 339
312 311 311 313 316 322 314 314 314 312 312 315 317 316 319 321 321 321 323 323 321 322 323 325 325 325 326 325 325 328 329 331 333 336 336 337 337 339 341 343 343 343 345 347 349 351 352 353 352 352 352 353 354 353 353 355 352 348 325 322 319 315 325
312 311 312 320 321 319 313 314 312 312 313 314 316 317 317 319 321 322 321 321 319 320 323 323 323 325 324 324 326 329 328 327 331 332 334 337 340 338 338 339 340 338 338 344 345 344 347 350 351 350 349 352 354 353 353 356 354 353 333 322 315 310 315
310 311 311 312 312 316 315 312 312 312 312 315 316 316 316 319 321 320 321 318 319 321 322 323 324 325 324 326 327 327 326 326 327 329 330 331 334 333 334 337 339 339 340 340 341 342 343 345 347 348 348 349 350 351 353 353 355 345 347 325 316 313 309
312 311 311 313 314 313 315 312 313 314 314 315 316 317 317 317 318 320 319 317 320 322 323 323 323 325 326 326 323 322 324 326 327 327 327 330 332 331 331 331 335 338 339 340 339 339 340 343 346 346 346 346 347 349 351 352 353 350 340 341 328 322 311
311 311 312 312 312 316 314 312 312 313 313 314 315 316 317 317 316 320 317 317 322 321 321 323 324 323 323 322 322 323 324 325 325 326 326 326 325 323 325 324 329 331 334 336 337 337 338 340 343 344 346 346 346 347 348 351 351 351 347 337 335 323 319
312 311 311 311 312 314 313 312 312 312 313 313 314 315 317 317 316 316 316 319 321 320 323 322 323 323 323 323 323 322 322 322 322 322 323 323 323 324 323 322 323 323 324 328 333 334 337 340 343 342 343 343 343 345 346 348 348 350 351 351 351 344 328
311 311 310 310 312 314 312 311 310 312 312 313 313 314 315 315 317 317 318 318 318 319 319 321 321 321 321 319 320 321 322 322 322 322 324 324 324 325 326 325 324 325 329 330 335 337 336 335 339 336 334 332 331 331 333 342 347 348 350 348 348 346 344
310 311 311 312 312 313 311 310 309 311 312 312 312 314 315 315 315 316 316 318 318 319 319 320 321 318 317 318 318 320 321 322 329 327 323 322 322 321 321 322 327 324 323 324 326 328 329 330 330 329 328 325 323 322 324 333 337 342 345 343 340 339 339
309 310 310 310 311 312 309 310 311 311 311 312 313 313 313 313 314 315 314 315 316 316 316 318 318 318 315 315 316 316 321 320 319 319 319 319 319 319 319 320 321 321 321 322 325 326 325 323 323 326 324 323 321 321 323 326 328 337 330 334 325 329 332
309 310 309 310 311 310 310 310 309 311 311 311 311 312 313 312 313 314 314 314 314 315 314 317 316 315 314 315 316 317 318 319 318 319 321 320 319 320 321 327 316 315 319 320 326 322 313 311 320 324 323 323 324 326 325 326 330 326 314 307 306 306 307
309 307 309 308 309 309 309 310 311 312 311 310 313 312 312 312 312 312 313 313 314 314 314 314 315 316 314 316 315 316 318 318 317 317 317 318 318 318 319 319 320 310 310 313 316 311 306 304 303 304 307 318 318 321 319 317 313 308 307 307 306 304 303
309 308 309 309 307 309 310 310 310 309 310 309 311 310 310 310 311 311 312 313 313 314 313 313 314 312 312 313 314 316 317 315 316 318 318 316 316 316 317 317 318 320 312 308 308 307 304 302 301 301 303 305 309 315 320 316 311 307 306 306 305 305 303

ECMWFFLT1_sfc_thetae_090.txt.gz
Theta_e
338 339 338 338 338 338 338 338 338 335 335 336 337 337 338 342 345 346 345 346 346 346 350 349 347 350 351 350 350 350 352 352 351 350 350 351 353 353 354 354 354 356 355 355 354 355 356 359 357 359 359 359 359 358 356 359 358 361 360 364 361 358 354
337 338 340 341 340 339 339 340 342 338 336 336 337 337 338 342 345 346 346 347 346 346 350 350 349 349 352 351 351 351 350 352 354 354 353 354 356 355 356 356 355 355 355 356 355 356 356 358 358 357 358 359 360 360 360 359 357 358 359 360 358 359 358
335 339 337 339 340 340 341 342 343 343 345 348 338 337 337 342 345 346 346 347 347 347 351 351 350 350 352 352 351 352 351 351 353 353 352 353 354 356 356 357 357 356 355 356 356 356 357 358 357 357 358 357 358 361 361 360 359 360 359 359 359 357 357
332 333 337 341 341 342 343 343 344 345 349 349 350 343 341 342 346 347 347 348 348 348 350 352 351 351 351 352 352 352 352 351 353 353 353 353 354 355 355 355 357 357 356 355 356 356 357 357 357 356 365 357 357 360 360 361 361 360 361 360 359 358 357
333 334 338 338 340 341 342 341 342 343 347 349 349 350 346 345 347 348 347 349 350 348 351 353 353 353 353 353 354 354 353 352 353 353 352 353 354 354 353 353 354 355 356 356 357 356 356 356 356 355 359 356 356 358 360 360 361 360 359 359 358 358 358
333 335 338 340 342 342 342 344 345 345 346 345 345 345 346 347 348 348 348 350 351 350 352 354 354 354 353 353 354 354 354 353 353 353 352 352 352 350 352 352 353 354 355 355 357 357 356 356 355 355 356 357 356 359 359 360 360 361 359 359 358 358 359
332 334 336 337 336 340 342 341 344 345 348 346 345 347 348 349 347 348 349 350 352 351 351 353 355 354 354 355 353 354 353 354 354 353 353 352 351 350 349 351 352 353 354 355 354 356 355 355 355 355 356 357 357 357 358 358 359 359 359 359 357 358 358
324 326 329 331 337 340 342 346 349 349 350 350 347 347 346 349 349 347 347 350 349 352 352 352 354 355 355 355 354 353 354 354 355 354 353 352 351 350 348 348 350 351 352 353 354 354 356 355 355 356 357 357 356 356 357 357 357 359 359 359 356 357 361
324 325 326 329 331 333 335 337 346 346 346 347 346 346 346 348 348 348 348 351 347 346 348 350 350 349 349 350 353 353 354 354 354 354 353 352 351 351 350 348 348 349 349 352 352 353 355 355 355 356 357 356 356 355 355 356 356 357 357 358 358 357 359
322 323 324 327 330 332 333 334 339 342 341 343 344 343 343 345 346 347 348 348 348 349 350 350 349 347 346 347 347 347 351 353 354 354 354 352 352 351 350 349 348 350 348 349 351 351 353 355 355 355 356 355 354 353 353 355 355 356 357 357 357 357 357
322 322 323 324 326 328 330 331 331 334 340 342 343 343 345 346 348 348 348 349 348 348 350 350 350 348 347 349 349 350 349 348 352 353 353 353 352 351 350 349 348 348 348 347 348 350 351 353 355 354 355 355 354 353 352 353 355 355 355 357 357 357 357
320 322 322 323 324 326 327 328 329 330 333 336 340 343 344 346 347 348 347 348 349 348 348 350 351 348 345 346 349 350 347 344 342 344 350 351 347 346 346 346 345 346 349 347 346 347 350 351 352 353 353 354 353 353 353 352 354 354 354 355 357 357 357
321 321 322 322 323 324 326 327 327 328 330 334 337 339 342 344 344 346 347 348 350 349 349 349 348 345 344 345 350 347 345 345 344 345 347 350 347 346 347 347 349 346 344 347 346 344 346 348 350 352 352 353 353 353 353 352 354 354 353 353 355 356 356
324 322 322 323 323 324 324 326 327 327 328 331 334 338 341 343 345 345 346 347 348 348 349 349 346 346 345 345 348 347 345 346 348 350 349 349 349 347 348 350 352 352 351 348 345 344 343 345 348 350 351 352 353 353 353 353 353 353 353 352 352 353 355
320 323 323 323 323 323 324 325 326 327 328 330 332 334 336 339 341 344 346 347 348 349 350 352 351 350 351 351 349 349 348 348 352 352 351 351 349 348 348 349 352 351 350 350 347 346 343 344 346 348 350 350 352 352 352 353 353 354 353 352 351 351 351
319 320 321 321 322 322 323 325 325 327 328 329 331 333 335 337 339 340 343 345 346 345 348 349 349 349 350 350 351 352 350 349 351 350 349 349 348 348 348 350 351 351 350 350 350 349 345 342 343 345 348 349 350 350 351 351 352 355 349 352 353 351 351
317 317 318 317 317 320 321 322 325 325 325 327 329 331 333 335 337 340 343 343 343 344 347 347 347 347 346 346 349 350 349 349 351 352 350 348 349 350 351 352 352 349 349 349 350 348 350 347 342 342 344 348 350 350 350 351 352 346 336 339 345 354 351
314 314 315 315 316 317 318 320 322 325 325 327 328 329 331 332 335 338 339 340 340 342 344 344 343 343 343 344 344 345 346 348 348 348 348 350 352 353 352 354 352 350 348 349 350 350 350 348 347 348 347 345 346 348 350 350 348 337 333 334 335 345 353
313 314 315 316 316 316 316 317 319 321 324 326 326 328 329 331 333 335 338 339 339 341 341 341 342 342 342 343 343 344 345 345 346 347 347 349 350 351 352 351 351 351 350 351 351 351 349 348 349 348 349 349 348 347 346 348 344 335 331 331 331 332 345
312 313 314 315 316 317 318 318 318 318 320 323 327 329 330 333 333 333 335 335 336 337 337 338 339 340 340 341 342 342 344 345 347 346 347 349 351 351 351 350 349 352 353 353 352 350 350 351 348 348 347 349 349 348 351 349 338 332 329 327 327 329 333
310 312 312 312 313 314 316 318 317 318 318 319 321 325 327 328 331 332 330 331 332 333 333 334 333 335 337 338 339 341 342 343 345 345 347 348 347 347 348 348 349 352 354 354 353 351 350 351 350 350 351 350 349 348 348 346 329 327 324 323 324 325 329
310 311 311 312 313 313 315 316 317 316 317 322 320 320 321 321 323 326 330 330 329 330 330 331 331 330 331 332 335 337 340 341 342 343 344 346 347 346 346 347 347 347 350 351 351 352 353 353 352 351 350 350 350 349 346 343 325 326 323 320 318 322 334
311 311 311 312 313 313 314 316 315 316 317 317 320 321 320 321 322 323 324 325 323 323 323 324 324 326 328 330 332 334 335 338 337 338 337 341 344 344 346 346 345 346 349 347 348 350 350 350 352 351 351 351 351 349 346 344 329 324 323 320 317 326 333
313 312 312 311 312 314 314 313 314 316 315 316 319 320 321 321 321 321 320 320 320 321 321 321 321 323 324 323 325 330 333 334 334 334 336 336 339 343 343 346 346 345 349 347 347 349 350 351 351 351 351 350 349 353 349 345 335 319 316 318 320 332 335
310 310 311 312 312 312 312 315 316 316 316 315 317 319 321 322 322 322 321 321 321 322 321 321 322 322 322 322 323 325 329 332 335 334 334 334 336 340 342 342 341 343 346 348 349 350 350 350 349 351 350 353 352 353 352 350 339 315 317 317 317 329 339
309 311 312 313 313 312 313 314 313 313 313 314 315 319 319 320 322 324 321 319 320 320 321 321 321 322 322 322 324 326 328 328 330 332 334 333 334 336 339 342 341 341 343 346 348 347 348 351 350 349 350 352 352 352 351 351 351 344 323 317 315 320 342
310 312 312 312 314 319 311 311 311 312 313 313 315 317 320 320 319 318 320 318 317 318 319 319 321 322 321 323 325 325 324 324 325 326 327 329 333 337 340 340 339 339 339 340 343 344 344 346 348 346 347 348 350 351 349 351 352 349 331 321 316 315 323
312 312 315 320 321 317 311 312 312 313 313 314 315 317 318 319 319 318 316 316 316 318 318 319 321 322 322 323 322 323 323 323 325 328 327 328 330 328 330 333 336 337 337 337 340 341 342 344 346 345 344 346 347 349 350 353 353 352 339 326 315 312 312
309 309 309 310 311 317 314 311 311 312 313 314 315 315 317 319 319 317 316 314 316 319 319 322 322 322 322 323 322 323 324 324 325 325 326 327 329 327 325 326 328 331 335 335 336 338 340 341 344 346 344 343 344 347 348 350 353 347 349 334 318 312 310
309 309 310 312 313 314 315 311 312 312 312 313 315 315 315 317 318 318 316 313 317 319 322 322 321 322 322 323 321 322 322 323 324 323 323 324 325 323 322 321 322 324 327 333 334 335 335 337 340 342 344 344 345 344 348 342 346 347 343 342 326 311 309
309 309 310 311 313 315 312 310 310 311 311 312 313 314 314 314 316 317 314 314 319 319 319 320 321 322 319 317 318 319 319 320 321 321 322 322 322 322 323 322 323 322 322 324 326 330 332 334 337 338 341 341 342 344 345 346 346 348 346 338 335 322 313
308 309 309 310 310 311 310 310 311 311 311 310 312 313 315 313 313 314 313 316 317 316 317 320 320 320 318 317 317 317 318 318 319 321 322 322 321 323 323 321 323 323 321 321 322 324 326 327 335 331 335 335 336 335 332 333 335 339 345 350 349 342 322
307 307 307 308 311 312 309 309 310 311 312 310 310 312 313 312 313 313 313 315 315 315 317 318 318 318 315 313 314 315 316 317 320 319 318 318 319 319 320 320 320 320 322 320 319 320 322 322 324 323 324 324 325 326 325 324 327 334 338 341 341 339 338
306 306 307 308 310 309 307 307 307 309 311 310 309 310 311 311 311 311 311 312 313 313 314 317 316 315 311 312 313 315 317 317 322 319 316 317 318 317 317 318 321 318 318 318 318 318 319 319 320 319 320 319 319 319 320 322 323 328 330 334 338 336 333
306 306 306 306 307 308 306 308 308 309 311 308 308 310 309 309 310 312 310 311 311 312 312 315 316 316 312 312 312 312 318 318 315 315 315 314 315 315 315 316 317 316 317 318 320 322 320 318 317 321 320 319 319 318 318 320 321 324 322 332 322 327 330
305 305 306 306 308 306 308 310 307 309 309 307 308 309 309 309 309 310 311 311 311 312 312 314 314 311 311 312 312 313 315 316 314 314 316 314 313 314 314 320 314 312 315 317 323 318 309 309 315 318 316 315 317 319 318 318 321 316 307 304 303 304 304
304 304 304 306 305 305 306 307 311 309 308 307 309 308 310 310 308 308 310 310 311 312 311 310 314 312 310 314 312 314 316 315 313 314 314 314 313 313 314 314 315 309 308 311 314 308 303 302 302 303 307 316 314 317 313 312 308 303 302 301 301 301 300
304 304 305 307 304 306 308 307 307 306 307 306 308 307 307 308 308 308 310 311 311 311 310 311 312 310 310 311 312 316 316 314 315 316 315 313 313 313 314 313 313 315 309 306 306 306 304 303 302 302 303 305 308 311 313 311 306 303 302 301 300 299 298

ECMWFFLT1_sfc_thetae_093.txt.gz
Theta_e
336 336 336 337 339 339 339 338 332 334 335 335 337 337 338 340 342 343 344 345 344 343 345 346 345 346 347 348 347 348 349 348 350 348 348 347 348 349 349 350 350 351 352 351 351 351 352 356 357 357 358 358 357 357 356 356 356 359 356 360 357 356 353
335 336 338 339 340 338 339 339 341 333 335 336 336 337 338 339 341 342 343 345 344 344 345 346 346 346 348 348 348 348 349 348 350 353 349 349 352 350 351 351 351 352 353 353 352 352 354 356 357 356 356 358 358 357 356 355 356 355 356 357 355 354 353
336 338 336 336 338 338 340 341 342 343 334 335 336 336 337 339 341 342 342 344 344 345 346 346 347 346 348 348 347 348 349 350 350 351 348 348 350 352 352 352 352 352 354 355 354 354 356 355 356 356 356 356 357 357 357 356 356 356 356 356 356 356 353
333 335 337 338 338 338 339 339 341 345 341 336 336 336 337 339 342 343 343 344 344 345 345 346 346 346 348 348 348 348 348 349 351 351 351 350 350 353 353 353 353 353 353 354 356 356 357 356 356 355 362 355 356 357 358 358 357 356 357 357 356 354 353
333 336 338 337 338 339 338 338 340 343 345 342 338 338 337 339 343 343 343 344 344 344 346 348 348 347 349 350 349 349 349 349 350 351 351 351 352 353 353 353 354 353 354 355 355 356 355 354 355 354 356 355 355 355 358 358 358 358 357 356 355 355 354
332 335 337 339 339 340 342 342 341 343 346 345 344 342 339 339 343 344 344 345 345 345 346 348 348 349 348 350 351 350 351 350 350 351 351 351 352 352 352 353 354 354 354 354 355 354 354 354 354 354 355 356 355 355 357 358 359 359 357 357 357 357 357
331 334 336 336 337 339 342 342 346 345 346 346 347 349 346 344 343 344 346 348 349 346 346 348 349 349 349 350 351 352 350 350 350 350 351 351 351 352 352 352 354 354 355 355 354 355 353 353 353 354 354 355 355 355 356 356 357 358 358 357 356 355 356
327 329 330 332 334 335 335 340 346 348 347 346 346 346 346 347 348 347 346 346 347 348 348 350 351 350 351 351 351 351 351 351 351 351 351 350 350 350 350 351 351 353 353 353 354 355 354 354 354 354 354 354 354 354 356 356 356 357 357 357 355 355 358
325 327 329 331 331 332 334 334 338 345 346 345 345 345 346 346 347 346 346 346 347 347 348 351 351 352 353 352 351 350 352 352 352 351 351 350 349 350 349 349 349 351 351 352 352 353 354 354 354 353 353 353 354 354 354 355 356 356 357 356 356 355 356
324 325 327 328 329 329 330 333 334 341 343 342 342 343 344 346 346 347 346 347 347 347 349 351 350 350 351 352 352 351 352 351 352 352 351 350 350 349 349 349 347 349 349 349 351 351 352 354 354 353 353 353 353 353 353 353 354 355 356 356 356 355 355
322 323 324 326 327 327 329 330 332 336 342 341 342 343 344 345 346 346 346 347 348 348 350 350 350 349 349 351 350 350 349 351 352 351 351 351 351 350 350 349 348 348 347 347 348 349 350 352 353 352 352 353 353 353 352 353 353 353 354 355 356 356 356
320 322 323 324 325 326 325 326 329 331 335 341 342 343 343 344 345 346 347 347 348 348 349 350 350 349 349 349 349 348 347 347 348 350 351 351 351 351 350 350 348 347 348 347 346 346 349 349 352 353 352 353 353 353 353 352 352 353 353 354 355 355 355
320 321 322 323 324 325 325 325 327 330 332 337 341 343 344 345 345 346 346 347 349 349 349 349 350 348 348 348 348 347 346 345 347 348 349 350 348 346 347 346 345 345 345 347 346 345 346 348 349 352 352 353 353 353 353 352 352 352 352 353 353 353 354
322 321 321 323 324 324 324 325 327 329 331 335 338 341 343 344 345 345 345 346 347 347 347 347 347 347 347 347 348 346 346 345 346 346 348 348 346 344 344 346 348 348 348 347 345 345 344 345 347 349 352 352 352 353 353 352 351 351 352 352 352 353 353
319 319 320 321 322 324 325 325 326 328 331 335 338 340 342 343 344 345 346 346 346 347 347 348 346 345 346 346 348 346 346 345 346 346 348 348 347 346 345 346 347 347 347 348 347 347 343 344 345 347 348 350 351 352 352 352 352 352 352 351 351 351 351
318 319 320 320 321 323 324 325 326 327 330 332 333 336 339 341 342 344 344 344 345 346 348 347 346 345 346 345 347 348 346 345 347 348 347 346 345 346 346 346 346 347 346 346 347 346 347 342 342 344 346 347 349 350 351 351 352 354 347 350 353 350 351
315 317 319 320 321 322 324 325 326 327 328 330 332 333 336 337 339 341 342 343 343 343 345 348 346 346 346 346 347 348 347 346 346 347 346 345 345 345 346 348 350 348 345 345 346 345 347 348 341 340 342 345 347 347 349 351 352 346 337 337 342 353 350
313 314 317 318 320 322 323 324 325 326 327 328 330 331 334 335 338 339 338 340 340 342 344 344 343 342 342 343 344 345 345 346 346 346 346 347 346 346 346 349 350 348 346 346 347 346 347 345 344 341 340 342 344 346 348 349 347 337 334 334 334 343 352
312 313 314 316 318 319 321 322 324 326 327 328 329 330 332 335 336 335 337 338 340 342 341 341 341 341 341 342 342 344 346 345 344 345 346 347 350 351 349 348 348 347 347 347 347 348 344 345 345 345 345 343 341 343 346 348 343 335 332 331 331 332 343
310 312 314 315 315 315 317 320 323 325 327 328 328 330 332 334 333 333 336 337 337 336 337 338 338 338 338 339 339 341 343 344 346 346 346 347 348 348 349 349 347 348 348 349 349 345 347 347 345 345 343 345 345 344 344 345 345 335 331 328 328 329 334
310 310 310 312 314 315 316 317 318 320 323 326 327 325 325 325 328 329 330 331 331 331 331 332 332 334 335 336 337 338 340 342 342 342 343 345 345 345 345 346 346 349 352 351 349 346 346 346 345 347 349 348 348 347 348 346 325 323 325 325 324 326 331
310 311 311 312 313 314 315 315 317 318 320 323 321 322 321 322 325 326 325 326 324 324 324 325 325 327 329 330 334 334 334 335 337 338 341 344 344 344 344 343 344 344 349 349 348 348 349 349 350 347 346 347 347 347 346 344 323 322 322 320 321 324 334
311 312 312 313 313 313 315 317 318 320 321 320 321 321 320 321 321 321 321 321 322 322 322 322 322 323 324 326 328 333 335 335 335 335 336 339 340 340 341 341 340 342 346 344 345 347 348 348 347 346 346 347 348 347 346 345 328 320 318 319 319 326 333
310 311 312 312 313 314 315 317 318 321 320 320 320 321 321 321 321 321 320 320 320 321 321 322 321 322 323 323 325 326 328 331 333 334 336 336 337 338 338 339 339 340 344 345 346 347 348 348 348 347 348 347 347 351 348 346 336 321 320 319 320 330 335
309 309 310 311 312 314 316 317 318 319 319 319 319 320 322 321 319 318 318 318 317 318 318 319 320 320 321 322 324 324 324 326 328 327 328 330 332 336 339 339 337 338 339 341 344 344 347 349 347 348 347 350 352 353 351 348 342 324 320 319 318 327 337
308 309 309 310 311 312 314 317 316 315 315 316 317 320 320 320 320 321 317 316 316 316 316 317 319 320 321 322 322 323 324 325 327 327 326 326 328 331 335 339 339 340 340 340 342 342 344 348 347 345 346 347 348 349 349 348 347 342 322 317 317 317 333
310 310 311 312 314 319 312 312 313 313 313 314 316 318 319 318 316 316 318 316 316 317 317 318 320 321 320 320 321 322 322 323 325 325 325 326 327 328 329 329 330 333 335 338 341 342 340 343 344 343 343 344 347 348 349 350 347 346 330 320 314 313 320
312 314 315 318 318 315 312 312 312 313 313 313 316 318 317 316 316 315 314 314 315 316 318 319 319 320 319 319 319 320 320 321 323 325 325 326 326 323 323 324 324 326 328 333 336 338 338 338 341 342 342 344 345 346 343 335 332 333 326 319 317 318 313
308 309 310 310 312 315 313 310 311 311 312 313 314 315 316 317 316 315 314 313 314 316 319 320 319 318 318 318 317 319 319 321 321 322 323 324 324 322 321 323 323 323 325 326 330 333 335 337 340 342 341 341 342 344 336 333 332 332 336 329 322 318 318
308 309 310 311 312 312 314 310 310 310 311 312 313 313 314 315 316 316 314 311 315 316 319 318 317 316 316 318 316 316 318 320 322 320 320 321 321 322 320 320 321 322 322 322 323 325 326 329 333 336 341 340 341 342 337 336 339 340 335 335 327 320 316
308 309 309 310 311 314 312 309 309 309 310 310 312 312 312 312 313 314 311 310 315 316 315 316 317 316 314 313 314 315 316 317 318 317 318 318 318 319 320 319 318 318 319 320 320 321 321 322 326 326 329 330 332 334 334 332 335 333 333 332 334 326 320
307 308 308 309 309 311 310 310 310 310 309 309 310 310 313 311 310 310 309 312 314 312 314 316 316 315 313 313 313 313 315 315 316 315 316 317 317 318 319 318 317 319 318 318 318 319 320 320 322 322 323 324 324 325 325 327 326 327 331 337 336 334 328
306 307 307 307 310 311 308 309 309 310 309 308 308 309 310 309 310 310 310 311 311 312 314 316 316 314 312 310 312 312 315 313 315 314 314 314 314 315 317 319 316 316 319 318 317 317 319 318 320 319 319 320 319 320 321 321 322 324 326 327 328 329 331
305 306 306 307 308 307 306 307 307 308 308 307 306 308 308 308 308 309 308 309 311 311 314 316 316 310 309 310 310 313 315 313 320 316 312 313 314 312 312 314 316 315 315 316 317 317 315 315 317 317 316 315 316 316 317 318 318 321 321 322 322 320 319
305 305 305 305 305 307 305 307 308 307 308 306 306 306 306 307 307 308 308 309 309 310 313 315 315 312 309 310 310 311 318 316 314 313 313 311 312 313 312 313 314 314 315 316 319 319 314 314 314 317 314 314 314 314 315 316 316 319 316 318 309 311 311
304 304 304 305 307 305 307 309 307 307 307 304 305 307 307 306 307 307 309 309 309 311 313 315 313 310 309 311 310 314 316 315 313 313 314 312 311 312 314 319 311 311 313 314 320 315 307 309 313 314 312 311 313 315 315 314 317 314 305 301 299 299 300
303 303 304 304 303 303 305 306 309 308 307 304 307 307 308 307 306 306 309 309 310 310 310 310 312 310 309 312 311 316 316 314 312 313 312 311 311 312 313 312 313 306 306 309 312 307 302 300 300 302 306 315 312 314 311 310 306 301 300 299 298 298 297
303 303 304 303 304 306 307 306 306 305 305 304 305 305 305 306 306 306 309 309 309 309 308 309 309 308 307 309 311 314 315 311 312 312 311 310 310 311 312 311 310 310 306 304 305 305 302 301 300 300 300 302 306 310 311 309 305 301 299 299 299 299 297

ECMWFFLT1_sfc_thetae_096.txt.gz
Theta_e
333 334 334 339 337 336 331 331 334 335 337 337 338 338 338 341 343 344 345 345 345 344 346 347 346 348 348 348 348 348 349 349 350 349 349 349 349 349 350 351 352 352 354 353 354 354 355 356 357 358 360 361 361 361 361 362 362 361 361 362 359 361 359
331 332 334 339 338 338 339 335 333 335 336 337 338 338 338 340 342 343 344 345 345 345 346 347 347 346 348 349 348 348 348 349 351 353 351 351 352 351 351 352 352 352 354 355 355 355 356 356 358 358 359 361 362 361 361 360 361 361 361 360 360 360 360
332 331 333 335 337 337 339 341 337 335 336 337 338 338 337 339 342 343 344 345 344 345 346 347 348 346 347 348 348 348 349 349 350 351 349 349 350 350 352 353 353 353 353 355 356 355 356 356 359 359 359 360 360 361 361 360 360 360 360 360 361 361 359
333 332 334 335 337 339 340 340 343 340 336 337 338 338 338 339 342 343 344 345 344 344 344 346 347 346 347 347 348 348 348 349 350 351 351 350 350 352 352 353 354 354 355 355 356 356 357 357 357 358 362 359 360 360 360 361 360 360 360 360 362 361 360
335 337 336 336 337 336 338 338 342 344 345 338 338 340 339 340 342 343 343 345 346 345 345 346 347 347 348 348 348 348 349 349 350 351 352 351 352 353 352 352 353 354 354 356 358 358 358 358 357 357 359 359 358 359 360 361 360 361 360 361 361 361 360
334 335 335 336 337 337 338 339 341 344 345 341 337 338 338 339 341 342 343 345 346 346 346 347 347 348 347 348 349 348 350 350 352 352 352 352 352 352 353 353 354 354 354 355 357 358 357 357 357 357 357 358 358 358 359 360 360 361 360 361 361 362 361
335 336 336 336 337 339 340 341 341 342 346 348 344 340 340 339 340 342 343 343 345 345 345 346 346 347 347 348 349 350 348 349 350 351 353 352 353 353 353 354 356 355 356 357 356 357 356 356 357 358 357 358 359 357 358 359 360 361 361 361 361 361 362
333 333 334 335 336 337 338 341 343 344 346 347 346 344 339 338 340 342 342 343 344 345 345 346 347 347 347 349 349 349 349 349 349 351 352 352 352 353 353 354 355 356 357 356 357 357 356 356 356 357 357 357 358 358 358 359 360 359 360 360 360 360 359
331 331 332 332 332 333 334 336 339 345 345 344 345 345 344 342 341 342 344 345 346 345 346 348 349 349 349 349 349 350 350 350 350 350 351 351 351 352 352 353 354 356 356 356 356 357 357 356 356 357 357 357 358 358 358 359 359 360 360 360 360 359 359
327 329 329 329 329 330 332 335 338 342 343 343 343 344 346 345 345 344 345 346 347 347 348 349 350 351 350 350 350 350 351 350 351 350 351 350 351 351 352 352 353 355 355 355 356 355 357 358 357 357 356 356 357 357 357 358 358 359 360 360 360 360 360
324 326 326 327 326 327 329 331 333 337 342 341 341 343 345 346 346 346 346 347 347 348 350 351 352 352 352 352 351 351 351 351 352 351 351 351 351 351 351 351 351 352 353 353 353 355 355 357 358 357 356 355 355 356 357 357 357 358 358 359 360 360 359
323 324 323 324 325 326 327 328 331 334 339 340 340 342 344 345 346 347 347 347 349 348 348 348 349 349 351 352 352 351 351 352 352 352 352 352 352 351 351 351 351 350 352 352 352 353 353 354 355 356 356 357 357 357 357 357 357 358 358 358 359 359 359
322 323 323 323 323 325 326 328 329 332 335 341 341 342 343 345 346 347 347 348 349 348 347 348 348 348 349 351 352 351 351 351 352 353 353 353 353 352 352 351 351 350 349 351 350 350 350 351 353 356 356 356 356 356 357 357 356 357 358 358 358 358 358
323 322 322 322 323 324 325 327 329 331 334 339 342 343 344 345 346 345 345 347 347 348 348 348 348 347 348 349 350 350 350 351 352 353 353 354 354 353 352 352 352 351 350 351 350 349 349 349 350 353 355 355 356 357 358 357 356 357 357 357 357 357 357
318 319 320 321 322 323 325 327 329 331 333 336 340 342 343 344 345 345 346 347 347 348 347 347 347 346 346 346 348 349 347 344 343 344 348 352 352 351 350 350 350 350 350 350 349 349 349 349 349 350 353 354 355 356 357 355 355 355 355 356 356 356 356
318 318 319 320 321 323 325 326 328 330 332 333 336 339 342 343 343 345 345 345 346 347 347 347 346 345 345 346 347 346 345 344 344 343 343 344 345 347 349 348 349 350 350 350 349 349 349 348 348 349 350 351 353 354 354 355 355 355 348 350 356 356 355
318 318 319 320 322 324 326 327 328 329 330 331 333 335 337 339 342 342 343 344 344 345 346 346 345 346 346 346 347 347 344 343 343 344 342 342 343 344 345 348 349 350 350 350 350 350 352 350 345 346 347 349 350 352 352 354 354 347 337 337 343 356 356
316 317 318 320 322 323 324 326 328 328 329 330 332 333 334 335 335 337 338 340 341 342 344 345 344 344 344 345 346 346 344 345 345 344 344 343 343 343 345 348 349 350 350 350 350 351 351 350 347 346 345 345 348 349 351 352 349 338 335 335 334 344 357
315 317 318 319 320 322 324 327 327 327 327 327 329 331 333 334 333 333 334 335 337 340 340 341 341 341 341 343 345 344 344 345 345 345 345 345 345 345 347 348 348 348 344 346 350 351 350 350 349 347 346 344 345 346 348 350 344 334 333 332 332 333 347
313 315 315 316 319 321 320 324 325 325 326 325 326 329 330 331 330 329 331 331 331 331 333 334 335 336 337 339 340 343 344 345 346 345 345 346 346 346 346 345 343 345 346 348 346 345 351 352 350 349 350 350 347 347 347 349 341 334 331 328 328 329 336
310 312 313 315 316 317 319 321 321 321 322 323 325 324 322 321 323 324 324 325 325 326 326 327 328 330 332 333 334 336 338 340 342 343 344 344 345 344 343 343 343 342 342 343 344 346 350 352 352 352 352 351 350 352 348 341 323 324 325 325 325 326 332
310 311 312 314 315 316 318 318 319 320 321 324 321 321 321 321 322 322 323 324 324 325 325 325 325 327 328 328 330 333 335 336 337 338 340 340 341 341 341 341 343 344 345 344 343 345 349 350 349 348 348 349 352 351 349 342 321 321 321 320 321 324 337
311 311 312 313 314 315 318 320 320 321 321 320 320 321 321 321 321 321 321 322 322 323 323 323 323 324 324 325 327 329 329 331 332 334 335 337 335 335 338 339 341 343 346 344 345 347 348 347 347 348 347 348 350 352 349 346 326 319 318 319 321 333 340
311 312 313 315 317 317 318 319 321 323 321 321 321 320 320 319 319 319 319 320 321 321 321 322 322 323 323 323 325 327 328 328 328 329 330 330 335 336 335 336 339 341 344 345 346 346 347 348 348 348 349 351 352 353 349 348 335 320 319 318 320 333 343
310 312 314 316 317 316 317 319 321 321 321 320 319 320 320 319 318 318 318 319 319 320 320 321 321 322 322 323 323 325 326 328 328 328 328 328 329 331 335 337 336 338 340 341 340 340 345 347 346 347 347 350 352 351 349 348 342 322 318 317 316 331 343
310 311 312 313 315 317 318 320 318 317 317 317 317 319 319 319 320 321 318 318 319 318 319 319 320 320 321 321 322 323 325 326 328 327 327 326 328 331 332 333 333 337 340 338 337 338 340 346 343 343 346 349 347 343 338 338 335 329 316 315 316 318 338
311 312 312 314 316 319 314 314 314 314 315 316 317 318 319 318 317 318 319 317 317 318 318 319 320 319 320 321 321 322 323 324 325 325 325 326 326 327 327 328 330 331 334 338 340 339 338 341 342 342 344 345 343 336 336 336 334 333 314 313 315 316 329
311 313 316 319 319 316 313 313 313 313 314 315 317 318 317 317 317 317 316 316 316 317 319 318 318 318 319 319 321 321 321 322 323 324 324 325 324 323 323 324 325 327 330 335 337 338 338 339 340 341 342 341 336 332 332 336 336 338 328 320 316 314 318
311 311 311 311 313 316 313 311 311 312 312 313 314 316 317 317 316 316 315 314 315 318 319 318 316 317 318 319 319 321 320 320 321 321 322 323 323 321 320 322 323 324 325 326 327 328 328 330 336 340 340 338 334 332 332 333 337 332 335 323 313 313 311
310 310 310 312 312 313 314 310 311 311 311 312 313 314 315 315 315 315 313 312 316 317 318 317 316 316 317 319 318 318 320 319 319 319 319 321 322 322 320 321 322 322 323 323 324 324 324 326 327 328 333 337 334 332 332 331 332 334 332 329 318 313 311
309 310 310 311 312 314 312 310 310 310 310 311 312 312 312 313 313 314 311 312 318 317 317 317 317 315 315 315 316 318 318 318 317 318 318 318 320 320 320 320 322 320 320 321 321 321 321 323 324 324 325 323 324 325 326 328 329 329 330 327 325 317 313
309 310 310 310 310 311 310 310 310 309 309 309 311 312 313 311 311 312 311 313 316 316 317 316 316 315 314 315 316 316 317 317 316 316 317 317 317 320 320 318 319 321 320 319 319 320 320 321 321 321 321 321 322 322 323 324 325 325 326 326 325 324 319
308 309 309 308 311 312 309 309 309 309 309 308 309 310 311 310 311 312 313 313 313 316 317 316 315 315 313 313 315 317 317 318 317 315 315 316 316 316 318 319 318 318 320 319 317 317 318 318 319 318 317 317 318 319 321 322 323 324 323 323 321 320 320
307 308 309 310 310 310 309 308 308 308 308 308 307 309 310 309 310 311 311 312 313 316 317 317 315 312 312 313 315 318 317 316 320 317 314 315 316 315 316 317 318 318 318 318 316 315 315 316 316 315 314 314 316 317 318 319 319 322 321 320 318 316 316
308 308 307 307 308 310 307 308 309 309 309 307 307 307 308 308 309 311 312 313 314 316 316 315 315 314 313 314 315 316 317 315 314 315 314 314 315 316 317 316 316 317 317 319 321 317 314 315 315 316 314 315 316 316 315 316 316 319 313 315 306 310 312
306 306 306 307 308 308 310 310 308 308 308 307 307 308 308 308 309 310 312 313 313 315 316 316 313 312 312 314 315 314 313 313 313 313 314 313 313 315 316 317 309 311 316 315 319 312 306 307 313 314 314 314 316 318 315 314 317 311 300 298 297 297 298
305 305 305 306 306 307 307 307 310 309 309 307 310 309 309 309 309 310 311 311 312 312 313 313 314 312 312 315 314 313 313 312 312 313 312 312 313 314 314 314 315 304 303 306 310 305 300 299 299 301 306 315 314 316 311 309 305 300 297 296 297 296 296
306 306 306 306 307 307 308 308 308 307 308 306 308 308 308 309 308 309 310 311 311 311 311 312 312 311 311 313 313 314 313 311 312 312 312 312 312 314 314 313 312 314 307 303 303 303 300 298 298 297 299 301 306 311 316 310 303 298 296 297 297 297 296

ECMWFFLT1_sfc_thetae_099.txt.gz
Theta_e
338 339 343 340 336 336 338 340 343 344 346 347 348 347 348 349 352 354 353 355 355 356 358 359 360 361 360 359 361 361 361 361 361 360 359 360 360 360 360 359 360 362 361 359 361 362 364 365 364 364 365 365 365 366 368 369 368 366 368 370 369 368 367
337 339 342 341 336 335 338 342 344 345 345 347 347 348 348 349 352 352 353 355 355 356 357 357 359 360 360 360 360 362 361 361 362 363 361 362 363 362 361 362 361 363 365 363 364 366 366 364 365 364 364 365 365 367 367 368 369 369 368 370 368 367 367
338 338 340 342 340 339 338 340 342 344 345 345 346 347 347 351 353 353 354 354 355 356 357 356 359 359 360 361 360 361 360 360 361 360 360 358 360 358 360 362 362 361 361 364 366 363 365 364 367 367 365 364 363 366 368 368 369 368 370 371 368 365 367
338 338 339 342 342 343 342 341 343 344 345 345 346 346 347 351 353 354 355 355 355 355 355 355 356 357 359 360 360 360 360 361 361 359 358 358 359 360 361 361 362 362 362 361 362 363 361 364 365 367 367 366 365 366 367 367 367 368 369 370 367 366 368
339 339 338 338 341 342 344 343 343 344 344 345 347 348 349 349 351 352 354 356 356 355 354 354 354 355 357 359 358 358 359 359 360 360 360 360 362 362 360 358 360 360 361 362 365 365 366 366 364 366 366 368 365 366 367 368 367 370 370 370 367 365 364
337 337 336 337 341 341 341 343 348 347 344 344 346 348 347 347 349 349 351 354 356 356 356 357 355 356 355 355 356 356 359 360 362 362 360 362 362 359 359 360 360 361 360 362 363 364 365 365 364 364 363 363 362 362 364 365 366 367 368 369 367 364 361
337 337 338 338 340 340 341 341 343 347 350 349 345 347 347 347 347 348 350 351 352 353 354 353 354 355 355 355 355 357 358 357 359 358 359 359 360 360 360 361 362 361 361 364 363 365 363 364 365 366 365 363 364 362 365 366 365 367 369 368 367 366 366
339 338 339 339 340 339 341 342 344 346 347 350 349 344 347 346 347 348 348 349 350 352 353 353 352 354 356 356 356 355 356 356 357 359 359 358 359 359 359 361 362 364 365 362 364 365 363 365 364 365 365 364 365 366 365 367 369 365 366 366 365 364 363
339 340 340 340 340 341 342 343 343 344 346 349 348 345 345 346 347 347 349 350 352 353 354 355 353 354 356 356 356 356 356 356 357 358 358 356 356 356 355 358 361 364 362 359 360 365 364 364 363 366 367 365 366 368 366 368 366 366 366 365 365 364 363
336 337 338 339 341 342 344 344 346 346 345 346 347 348 346 346 348 349 350 352 353 354 356 356 355 356 357 357 356 355 355 356 356 354 355 354 355 355 355 355 358 362 360 359 358 361 365 365 364 366 368 366 367 368 367 367 366 365 366 366 365 365 364
330 332 333 335 337 339 342 343 343 345 346 347 345 345 346 345 346 347 348 351 351 353 357 357 358 357 355 356 356 356 354 354 354 354 354 354 354 354 355 356 356 359 358 357 357 360 362 366 367 367 367 363 365 366 367 367 367 367 365 364 364 365 363
328 329 330 331 334 336 339 341 344 346 346 346 348 347 347 347 350 348 350 351 353 354 356 357 359 358 357 356 354 356 356 355 355 354 355 354 354 354 354 355 355 356 358 357 358 361 360 363 364 365 367 367 366 366 367 368 368 368 367 364 364 365 364
327 328 330 331 334 335 336 337 338 340 343 346 347 348 350 350 351 351 351 352 354 356 357 358 358 359 358 356 355 357 357 357 358 358 357 357 355 355 356 355 356 356 356 358 358 358 358 359 363 365 365 367 366 364 366 367 367 369 369 367 366 365 366
329 330 330 330 332 332 332 333 335 337 340 342 344 347 347 349 350 351 352 352 354 357 356 356 356 358 358 357 356 357 357 359 361 362 361 361 361 359 358 357 357 358 358 359 358 357 357 357 358 361 362 363 364 365 366 367 366 368 369 368 366 365 365
327 329 330 330 330 331 331 332 333 335 337 340 342 345 346 348 350 352 351 353 353 354 355 356 356 353 354 357 357 359 359 361 363 364 363 363 363 361 360 360 360 361 361 361 359 356 357 358 357 358 359 360 362 363 364 362 362 363 365 366 366 366 364
326 327 328 329 329 330 331 332 333 334 336 337 339 342 345 346 346 347 349 352 353 353 354 354 353 352 350 351 352 353 353 356 359 361 362 362 361 362 361 360 360 360 360 360 359 360 361 361 360 358 358 358 361 362 360 360 360 363 354 357 364 366 363
326 328 329 330 330 331 331 331 331 332 333 334 336 337 339 342 346 348 348 349 351 352 352 352 349 351 350 348 350 350 348 346 348 353 355 357 360 360 359 358 358 359 360 360 361 361 362 361 359 358 357 356 357 358 357 358 358 352 340 340 345 362 365
325 326 328 329 330 331 330 330 330 330 331 331 333 334 336 337 338 337 338 341 344 345 346 346 346 347 348 350 350 349 348 347 346 347 348 349 351 354 356 357 357 358 358 357 357 359 358 358 358 358 356 355 355 355 355 356 356 340 337 336 335 346 362
324 326 328 328 329 328 328 328 329 329 329 329 329 329 332 334 333 332 334 335 337 341 344 344 346 346 345 347 349 351 349 348 346 345 346 348 349 350 353 355 355 355 356 355 357 357 359 360 358 359 358 356 356 354 355 355 350 338 336 334 333 334 349
324 326 327 328 327 326 326 328 329 327 325 325 326 327 328 330 330 330 332 333 334 335 335 335 335 336 337 341 346 350 349 348 347 345 345 346 348 348 350 350 350 352 356 356 356 356 357 356 358 358 360 359 358 358 356 356 338 331 334 331 330 332 339
324 326 327 326 324 325 326 327 327 326 325 324 325 327 328 329 330 329 328 329 329 331 331 330 330 330 332 333 335 340 347 347 346 346 346 346 346 347 349 350 349 349 352 355 356 356 358 358 358 359 359 358 358 357 354 345 323 325 325 328 328 329 337
324 324 323 324 325 326 327 325 325 323 324 326 324 324 325 326 328 328 327 328 327 328 328 327 328 328 330 330 332 332 334 337 342 345 347 346 346 346 346 346 348 347 349 350 353 355 356 356 358 358 355 356 357 357 352 344 322 322 322 323 325 329 348
322 321 323 324 325 326 327 325 324 324 324 322 322 323 324 326 327 327 326 326 327 327 327 326 325 326 328 329 330 330 331 332 333 335 338 341 344 344 344 344 344 346 348 349 352 353 353 354 353 352 350 351 352 352 351 348 327 319 319 321 324 340 355
322 323 323 324 326 326 326 326 325 324 322 323 323 323 325 326 327 326 325 325 325 326 326 326 326 327 328 328 329 330 331 332 332 332 333 335 337 339 342 344 344 346 350 349 351 354 355 354 350 349 349 349 351 348 348 339 326 317 316 318 322 344 358
321 322 323 325 326 325 325 325 325 324 325 324 323 325 326 325 325 324 323 323 322 324 323 324 326 327 327 327 328 329 331 332 331 331 331 332 333 335 337 340 340 340 341 342 345 347 351 351 349 348 351 351 348 346 341 335 331 317 314 315 316 340 357
320 321 323 324 326 327 327 327 325 323 322 322 324 325 326 325 325 325 323 322 322 322 322 324 325 326 326 326 327 328 328 329 330 331 330 329 331 333 332 335 338 339 338 338 340 341 344 347 345 344 344 343 341 338 338 338 337 328 314 312 315 320 353
322 322 322 323 323 325 324 324 322 321 322 324 325 324 325 325 323 323 323 322 322 321 322 324 325 325 326 325 324 324 326 326 327 326 327 328 329 331 331 333 335 337 339 339 340 340 340 341 343 342 339 336 338 339 338 338 337 330 313 311 312 314 332
320 321 323 324 325 323 322 321 321 321 322 324 323 324 324 324 323 322 322 321 320 321 323 324 325 325 325 325 324 323 324 326 327 327 326 327 328 328 330 330 332 333 338 343 341 339 339 339 341 337 334 335 335 336 337 337 335 335 320 312 309 310 316
320 320 320 321 321 322 321 320 319 319 320 321 322 322 321 321 321 320 320 320 321 321 323 323 324 324 324 323 323 323 322 324 324 326 327 327 327 327 326 328 329 331 334 334 334 332 332 335 339 337 334 333 332 333 332 334 333 328 328 316 309 308 310
321 321 320 320 320 320 320 319 319 318 319 320 321 322 322 321 320 320 319 320 323 322 322 322 323 323 322 323 322 321 322 323 324 324 325 327 328 327 327 326 327 328 329 329 330 330 331 332 334 333 329 327 328 329 330 332 333 329 326 325 313 310 307
319 319 319 319 318 320 319 318 317 316 316 318 319 321 322 321 319 319 318 320 323 323 322 322 322 322 321 321 322 323 322 323 324 325 325 325 326 326 326 326 325 325 327 327 327 328 328 328 328 326 326 325 325 326 327 330 332 329 326 323 323 314 311
319 319 319 319 319 319 318 317 316 315 315 315 317 318 320 320 320 319 319 322 322 322 322 322 322 322 322 321 322 322 322 321 321 322 324 323 325 325 324 325 324 322 323 322 323 325 326 325 324 323 324 324 325 325 325 326 327 326 326 325 325 323 318
318 318 318 318 319 319 317 317 315 315 315 314 315 316 317 318 319 321 322 322 320 321 322 322 321 321 321 321 320 322 322 320 319 319 321 322 321 321 322 323 322 323 322 321 319 321 322 322 323 322 321 321 322 323 324 325 325 325 325 325 325 325 325
318 318 320 320 320 320 318 317 316 315 315 314 316 317 316 317 317 320 320 319 319 320 321 321 320 319 319 319 320 320 320 320 320 320 318 319 320 320 320 321 322 321 320 319 319 318 318 319 319 318 319 319 321 323 324 323 323 322 319 320 320 321 323
318 318 318 318 319 320 319 318 316 316 315 314 316 317 318 319 319 319 320 320 320 321 320 318 319 319 318 318 318 318 319 318 318 318 318 319 321 321 321 320 320 321 321 321 320 318 318 318 318 318 319 320 320 321 321 321 321 321 310 317 307 312 318
317 317 318 319 320 320 320 319 318 316 315 315 316 316 317 317 318 319 318 320 320 320 318 318 317 316 315 315 315 314 316 316 316 318 318 317 318 319 319 316 309 314 320 319 316 308 302 306 316 316 319 320 320 321 319 318 319 306 298 296 296 296 297
317 317 317 317 317 319 319 318 318 316 315 315 317 317 317 317 317 318 318 318 318 318 318 317 316 315 315 315 314 313 314 314 315 317 318 318 318 318 317 317 320 302 302 309 311 303 297 298 299 301 305 316 319 319 311 309 304 298 296 296 296 296 295
319 319 318 318 318 318 317 317 316 315 315 316 317 317 317 316 317 317 316 318 317 318 317 316 316 315 314 315 315 315 315 314 315 316 316 316 317 317 317 316 316 318 308 303 304 303 300 298 298 298 300 302 307 316 321 313 304 297 296 296 296 295 295

ECMWFFLT1_sfc_thetae_102.txt.gz
Theta_e
340 340 341 343 344 343 343 345 347 348 348 351 353 353 353 354 353 356 356 359 361 361 362 362 362 362 362 362 363 364 365 366 367 365 363 363 363 364 363 363 363 364 361 360 363 361 365 364 362 362 365 364 364 365 368 369 369 365 367 369 368 367 366
339 339 340 342 343 343 345 346 348 349 349 352 353 355 353 353 356 357 358 362 362 361 362 361 362 362 362 362 363 364 364 364 366 366 365 364 366 366 365 365 365 366 367 365 364 367 367 364 363 363 362 365 364 367 367 368 369 370 368 369 367 368 368
339 339 340 341 343 343 344 347 348 349 351 351 352 352 353 356 358 360 361 361 362 362 362 361 363 362 362 363 363 363 363 362 363 363 362 361 362 360 363 366 364 363 364 366 367 365 366 367 366 367 366 366 365 367 369 370 369 368 372 375 368 367 367
340 341 346 347 343 346 346 347 348 350 350 351 352 352 353 356 359 362 363 363 362 361 361 359 360 360 360 362 362 363 363 363 363 361 359 360 361 361 363 363 363 365 364 365 364 364 362 365 366 367 366 367 366 368 367 367 367 369 370 374 368 368 370
341 343 343 343 342 339 341 341 346 350 352 351 353 355 354 355 358 361 363 364 364 362 359 358 356 357 360 360 359 359 361 361 362 361 360 360 362 364 362 360 360 361 363 363 366 366 366 365 365 367 365 367 367 368 368 369 368 371 371 372 368 367 366
340 341 342 343 341 341 342 346 347 346 349 349 351 354 353 354 358 359 361 362 363 362 362 362 358 358 358 357 357 356 359 362 363 363 360 360 361 360 360 361 360 360 360 362 364 364 364 364 364 365 364 363 362 362 364 366 365 367 369 370 368 366 362
339 341 342 343 342 342 343 346 350 352 350 348 349 353 355 354 356 356 356 357 359 359 358 358 358 357 359 358 357 357 357 357 359 359 360 359 359 359 359 361 362 360 361 364 363 365 364 364 365 366 363 363 364 362 365 367 366 366 369 369 370 368 366
341 340 342 342 343 344 342 342 345 348 346 347 352 350 353 352 353 354 353 354 354 357 357 358 356 357 359 360 357 356 356 356 356 359 358 357 357 357 356 358 360 362 363 361 363 364 363 365 364 364 364 363 364 365 365 368 368 366 366 368 367 367 364
343 343 342 342 343 343 344 345 345 344 341 340 341 349 352 352 352 352 354 355 356 357 359 360 358 357 360 360 359 358 356 356 355 356 357 355 354 353 354 355 357 361 361 359 359 363 363 362 363 365 368 365 365 366 366 367 367 365 365 367 368 366 364
342 343 343 344 345 344 346 344 343 343 340 337 338 342 348 352 353 353 353 354 354 356 359 361 360 360 361 362 360 358 355 355 355 352 354 353 353 352 353 352 354 357 357 358 357 357 362 363 364 367 369 367 368 368 367 368 364 364 365 365 366 366 366
340 342 344 344 343 343 345 345 345 344 343 341 341 343 346 345 348 350 351 353 354 355 358 361 362 361 361 363 363 361 355 352 352 351 352 352 351 351 352 352 351 355 355 355 354 356 360 363 365 367 369 364 367 368 368 367 367 366 364 365 365 364 362
335 338 340 342 342 343 343 344 344 346 345 346 348 349 349 348 347 347 345 347 352 354 357 359 361 362 363 363 360 362 359 354 353 351 352 352 351 351 352 352 350 351 355 354 353 356 357 361 362 363 368 368 367 368 368 367 369 369 368 365 364 363 362
333 335 337 339 341 342 342 343 344 346 347 347 348 349 349 350 349 347 347 347 348 351 355 359 360 361 361 361 358 358 361 359 358 355 353 353 353 352 352 352 352 352 351 353 353 353 354 357 362 364 364 367 366 365 366 367 366 368 369 366 366 366 366
334 333 335 337 339 340 341 342 342 343 345 347 348 349 349 351 352 351 349 349 350 351 354 357 358 358 358 358 357 356 357 360 361 362 359 358 359 356 354 353 353 354 355 355 355 351 352 354 358 361 363 364 364 365 366 367 367 367 368 367 366 365 365
334 335 336 336 336 337 339 339 340 342 343 345 346 347 349 350 351 352 353 352 352 353 355 357 356 357 357 358 357 358 359 361 363 364 365 362 362 361 358 357 357 356 357 358 356 353 352 353 354 358 359 361 361 363 362 360 361 363 365 364 365 365 364
333 334 334 334 335 336 337 338 339 341 343 343 345 347 348 348 348 351 351 352 354 355 357 357 355 355 354 355 357 360 361 362 362 362 365 365 365 367 365 361 360 358 359 360 359 358 357 356 355 356 357 357 358 359 358 357 358 367 365 364 365 365 362
332 332 333 335 335 335 336 338 340 341 342 343 345 346 349 350 349 349 347 348 347 350 354 355 355 357 356 355 358 358 361 363 362 363 365 367 369 368 367 365 363 360 361 361 362 362 361 359 357 356 356 356 356 356 354 354 356 358 344 346 352 361 363
331 332 332 333 333 334 335 335 337 337 338 340 342 341 341 343 345 346 346 348 347 349 353 355 355 352 353 354 356 357 359 359 359 359 360 361 363 366 369 367 364 363 362 361 360 364 362 360 359 360 357 356 356 355 355 355 359 340 340 342 342 355 362
331 332 332 332 332 332 334 334 334 334 334 335 337 337 339 341 341 341 343 343 345 348 349 351 353 353 354 357 356 359 355 353 354 357 357 358 358 359 360 361 362 362 360 359 361 362 362 362 359 360 359 358 358 355 356 355 334 338 339 339 338 339 355
331 332 331 332 332 332 333 333 331 330 331 332 334 337 338 339 339 341 343 343 342 341 341 342 340 341 343 348 352 355 355 353 353 353 353 354 353 353 354 354 356 359 359 360 361 362 361 360 362 359 361 359 357 359 358 356 332 328 332 335 334 335 345
330 329 329 330 331 331 330 331 331 332 334 334 336 337 336 337 340 341 340 339 337 338 337 336 335 335 337 340 344 347 350 353 353 351 351 352 352 351 351 352 354 356 357 359 361 361 362 362 359 361 362 358 357 357 354 345 324 327 326 327 330 333 343
329 329 328 329 329 329 331 331 333 333 333 336 336 337 338 337 339 338 337 337 335 334 334 335 334 334 336 336 337 338 340 345 349 351 349 350 351 350 350 351 352 353 355 355 358 360 360 360 359 358 360 360 359 355 356 346 321 322 324 325 328 333 352
329 328 328 329 328 329 332 332 331 332 334 334 335 335 335 337 337 337 336 335 334 333 332 333 332 332 333 333 334 336 337 340 343 343 345 348 348 348 349 350 348 350 351 350 352 352 353 355 355 358 359 360 361 359 354 345 325 318 318 320 325 336 359
329 329 329 327 328 327 327 325 325 326 327 328 329 331 333 332 332 331 331 331 332 333 333 332 332 333 335 335 335 335 336 338 339 340 340 340 339 343 348 350 349 346 349 348 351 354 355 354 354 354 356 356 357 347 344 342 328 315 315 317 319 336 362
327 327 326 325 324 323 323 325 326 326 327 327 325 327 329 329 329 328 327 328 327 328 329 329 331 332 333 333 334 334 333 335 337 337 336 336 336 337 338 342 344 347 350 350 351 352 353 352 347 342 342 341 343 345 344 343 334 315 314 314 316 336 363
328 327 327 327 327 328 329 330 329 327 325 324 326 326 327 327 327 328 326 325 325 326 327 329 331 331 333 333 333 332 332 333 334 336 336 336 336 338 340 341 343 343 345 346 346 345 344 344 343 341 342 342 341 342 340 337 335 324 312 311 315 318 350
328 329 328 328 327 329 329 328 327 325 325 327 327 325 326 327 326 326 327 326 326 326 326 329 331 331 331 331 331 332 333 333 334 333 333 334 335 337 338 339 340 342 340 340 342 343 342 340 339 338 338 340 340 341 339 337 332 326 311 310 311 314 333
326 327 329 330 330 329 327 325 326 326 325 326 326 325 326 328 327 327 327 326 325 326 327 328 330 330 329 329 329 330 332 335 335 334 333 334 335 335 335 336 339 342 342 342 341 341 338 335 334 334 333 333 335 335 336 334 332 332 317 310 309 309 316
326 327 327 328 328 327 325 325 324 323 323 323 324 324 324 325 326 326 325 324 324 325 328 329 329 329 329 329 328 328 328 331 333 334 335 334 334 333 334 335 337 338 339 340 339 339 335 334 334 331 330 330 331 332 332 332 331 326 328 314 308 307 310
327 328 327 327 326 325 325 324 324 323 324 324 325 325 325 326 325 325 324 324 326 326 327 328 328 329 328 329 328 327 327 327 329 331 332 333 333 333 334 335 334 335 336 337 337 337 335 335 334 332 330 329 329 331 332 332 331 327 325 323 312 309 308
326 325 325 325 323 325 325 323 323 322 323 324 325 325 326 325 325 326 325 325 327 327 326 326 326 326 327 327 327 327 327 327 328 329 329 330 331 332 331 331 332 331 334 336 335 334 333 331 331 329 328 328 327 329 331 333 332 331 328 326 322 314 311
325 325 325 325 325 324 323 322 322 321 321 322 323 323 325 324 324 324 325 326 327 327 327 326 325 325 325 325 326 326 326 326 326 327 328 327 327 328 329 329 328 329 329 331 332 334 332 330 330 329 328 327 328 330 329 330 329 328 329 328 329 327 320
324 324 324 323 324 323 322 321 320 320 320 320 322 322 322 323 323 324 325 325 324 325 326 326 325 324 324 324 323 324 325 325 323 323 326 327 326 325 326 328 328 327 326 326 327 330 330 331 330 328 326 326 327 328 329 329 329 328 326 329 330 329 330
323 323 324 325 324 324 323 321 320 320 320 320 321 322 321 322 323 324 324 323 323 324 325 324 324 323 323 323 323 323 324 322 320 322 321 323 325 325 325 327 327 324 322 322 323 325 324 324 324 324 325 324 325 327 327 327 326 325 324 326 326 327 329
324 325 325 324 324 325 324 324 323 323 322 321 322 322 322 322 322 322 323 323 324 325 323 322 322 323 322 322 322 320 323 322 322 322 322 323 325 323 323 324 325 325 323 320 321 321 322 324 322 323 324 324 324 326 326 327 325 322 308 318 305 315 324
324 324 323 323 323 323 324 324 324 323 322 321 322 322 322 322 322 323 322 324 324 324 323 322 321 320 318 319 318 319 320 321 319 321 323 322 323 324 321 316 308 316 324 319 315 307 304 308 318 318 324 325 322 322 322 322 320 303 297 296 296 296 296
324 322 322 322 323 323 323 323 323 322 321 321 321 321 321 321 321 322 322 323 323 322 322 321 320 319 318 318 316 316 319 319 320 321 321 323 322 323 323 322 320 300 303 312 311 305 298 297 298 302 306 320 323 318 308 307 301 296 296 296 296 294 294
326 325 324 323 324 324 323 322 322 321 321 321 321 321 321 321 321 322 321 322 322 322 322 321 320 318 318 319 319 319 320 319 319 321 321 321 321 323 321 322 321 320 303 300 304 301 298 298 298 299 300 301 307 321 324 313 303 296 296 296 296 296 295